<?xml version="1.0" encoding="UTF-8" ?>
<gpx version="1.1" xmlns:xsi="http://www.w3.org/2001/XMLSchema-instance"
    xmlns="http://www.topografix.com/GPX/1/1"
    xsi:schemaLocation="http://www.topografix.com/GPX/1/1 http://www.topografix.com/GPX/1/1/gpx.xsd"
    creator="Openrunner - https://www.openrunner.com" >	<trk>
	                   <name>L&#039;Échappée Médievale-24439357</name>
						<trkseg>
					<trkpt lat="45.658820" lon="4.564120">
						<ele>727</ele>
						<time>2026-08-28T08:25:36Z</time>
					</trkpt>
					<trkpt lat="45.658850" lon="4.564150">
						<ele>727</ele>
						<time>2026-08-28T08:25:37Z</time>
					</trkpt>
					<trkpt lat="45.658890" lon="4.564170">
						<ele>727</ele>
						<time>2026-08-28T08:25:37Z</time>
					</trkpt>
					<trkpt lat="45.658920" lon="4.564160">
						<ele>727</ele>
						<time>2026-08-28T08:25:38Z</time>
					</trkpt>
					<trkpt lat="45.658960" lon="4.564110">
						<ele>727</ele>
						<time>2026-08-28T08:25:39Z</time>
					</trkpt>
					<trkpt lat="45.658980" lon="4.564040">
						<ele>727</ele>
						<time>2026-08-28T08:25:40Z</time>
					</trkpt>
					<trkpt lat="45.658980" lon="4.564010">
						<ele>727</ele>
						<time>2026-08-28T08:25:40Z</time>
					</trkpt>
					<trkpt lat="45.658970" lon="4.563970">
						<ele>727</ele>
						<time>2026-08-28T08:25:41Z</time>
					</trkpt>
					<trkpt lat="45.658950" lon="4.563930">
						<ele>727</ele>
						<time>2026-08-28T08:25:41Z</time>
					</trkpt>
					<trkpt lat="45.658920" lon="4.563910">
						<ele>727</ele>
						<time>2026-08-28T08:25:42Z</time>
					</trkpt>
					<trkpt lat="45.658870" lon="4.563900">
						<ele>727</ele>
						<time>2026-08-28T08:25:43Z</time>
					</trkpt>
					<trkpt lat="45.658840" lon="4.563920">
						<ele>727</ele>
						<time>2026-08-28T08:25:43Z</time>
					</trkpt>
					<trkpt lat="45.658780" lon="4.563870">
						<ele>726</ele>
						<time>2026-08-28T08:25:45Z</time>
					</trkpt>
					<trkpt lat="45.658730" lon="4.563830">
						<ele>726</ele>
						<time>2026-08-28T08:25:46Z</time>
					</trkpt>
					<trkpt lat="45.658560" lon="4.563660">
						<ele>725</ele>
						<time>2026-08-28T08:25:49Z</time>
					</trkpt>
					<trkpt lat="45.658510" lon="4.563620">
						<ele>725</ele>
						<time>2026-08-28T08:25:50Z</time>
					</trkpt>
					<trkpt lat="45.658390" lon="4.563420">
						<ele>724</ele>
						<time>2026-08-28T08:25:54Z</time>
					</trkpt>
					<trkpt lat="45.658320" lon="4.563250">
						<ele>723</ele>
						<time>2026-08-28T08:25:56Z</time>
					</trkpt>
					<trkpt lat="45.658290" lon="4.563110">
						<ele>722</ele>
						<time>2026-08-28T08:25:58Z</time>
					</trkpt>
					<trkpt lat="45.658120" lon="4.562260">
						<ele>719</ele>
						<time>2026-08-28T08:26:09Z</time>
					</trkpt>
					<trkpt lat="45.658050" lon="4.561860">
						<ele>716</ele>
						<time>2026-08-28T08:26:14Z</time>
					</trkpt>
					<trkpt lat="45.658000" lon="4.561590">
						<ele>714</ele>
						<time>2026-08-28T08:26:18Z</time>
					</trkpt>
					<trkpt lat="45.657930" lon="4.561000">
						<ele>711</ele>
						<time>2026-08-28T08:26:25Z</time>
					</trkpt>
					<trkpt lat="45.658030" lon="4.560980">
						<ele>712</ele>
						<time>2026-08-28T08:26:27Z</time>
					</trkpt>
					<trkpt lat="45.658030" lon="4.560880">
						<ele>711</ele>
						<time>2026-08-28T08:26:28Z</time>
					</trkpt>
					<trkpt lat="45.657990" lon="4.560810">
						<ele>711</ele>
						<time>2026-08-28T08:26:29Z</time>
					</trkpt>
					<trkpt lat="45.657900" lon="4.559130">
						<ele>702</ele>
						<time>2026-08-28T08:26:50Z</time>
					</trkpt>
					<trkpt lat="45.657890" lon="4.558720">
						<ele>701</ele>
						<time>2026-08-28T08:26:55Z</time>
					</trkpt>
					<trkpt lat="45.657880" lon="4.557440">
						<ele>697</ele>
						<time>2026-08-28T08:27:11Z</time>
					</trkpt>
					<trkpt lat="45.657910" lon="4.556670">
						<ele>695</ele>
						<time>2026-08-28T08:27:21Z</time>
					</trkpt>
					<trkpt lat="45.657970" lon="4.556220">
						<ele>694</ele>
						<time>2026-08-28T08:27:26Z</time>
					</trkpt>
					<trkpt lat="45.658090" lon="4.556280">
						<ele>696</ele>
						<time>2026-08-28T08:27:29Z</time>
					</trkpt>
					<trkpt lat="45.657980" lon="4.556130">
						<ele>694</ele>
						<time>2026-08-28T08:27:31Z</time>
					</trkpt>
					<trkpt lat="45.657930" lon="4.556090">
						<ele>694</ele>
						<time>2026-08-28T08:27:32Z</time>
					</trkpt>
					<trkpt lat="45.657910" lon="4.556050">
						<ele>693</ele>
						<time>2026-08-28T08:27:33Z</time>
					</trkpt>
					<trkpt lat="45.657890" lon="4.556030">
						<ele>693</ele>
						<time>2026-08-28T08:27:33Z</time>
					</trkpt>
					<trkpt lat="45.657890" lon="4.555940">
						<ele>693</ele>
						<time>2026-08-28T08:27:35Z</time>
					</trkpt>
					<trkpt lat="45.657860" lon="4.555740">
						<ele>692</ele>
						<time>2026-08-28T08:27:37Z</time>
					</trkpt>
					<trkpt lat="45.657850" lon="4.555460">
						<ele>690</ele>
						<time>2026-08-28T08:27:41Z</time>
					</trkpt>
					<trkpt lat="45.657850" lon="4.555380">
						<ele>690</ele>
						<time>2026-08-28T08:27:42Z</time>
					</trkpt>
					<trkpt lat="45.657830" lon="4.555250">
						<ele>689</ele>
						<time>2026-08-28T08:27:43Z</time>
					</trkpt>
					<trkpt lat="45.657800" lon="4.555110">
						<ele>688</ele>
						<time>2026-08-28T08:27:45Z</time>
					</trkpt>
					<trkpt lat="45.657740" lon="4.554860">
						<ele>686</ele>
						<time>2026-08-28T08:27:48Z</time>
					</trkpt>
					<trkpt lat="45.657350" lon="4.553780">
						<ele>679</ele>
						<time>2026-08-28T08:28:03Z</time>
					</trkpt>
					<trkpt lat="45.657320" lon="4.553630">
						<ele>679</ele>
						<time>2026-08-28T08:28:05Z</time>
					</trkpt>
					<trkpt lat="45.657310" lon="4.553520">
						<ele>679</ele>
						<time>2026-08-28T08:28:07Z</time>
					</trkpt>
					<trkpt lat="45.657300" lon="4.553360">
						<ele>678</ele>
						<time>2026-08-28T08:28:09Z</time>
					</trkpt>
					<trkpt lat="45.657320" lon="4.553320">
						<ele>678</ele>
						<time>2026-08-28T08:28:09Z</time>
					</trkpt>
					<trkpt lat="45.657340" lon="4.553280">
						<ele>678</ele>
						<time>2026-08-28T08:28:10Z</time>
					</trkpt>
					<trkpt lat="45.657340" lon="4.553230">
						<ele>678</ele>
						<time>2026-08-28T08:28:11Z</time>
					</trkpt>
					<trkpt lat="45.657330" lon="4.553180">
						<ele>678</ele>
						<time>2026-08-28T08:28:11Z</time>
					</trkpt>
					<trkpt lat="45.657310" lon="4.553140">
						<ele>678</ele>
						<time>2026-08-28T08:28:12Z</time>
					</trkpt>
					<trkpt lat="45.657270" lon="4.553120">
						<ele>678</ele>
						<time>2026-08-28T08:28:13Z</time>
					</trkpt>
					<trkpt lat="45.657240" lon="4.553110">
						<ele>678</ele>
						<time>2026-08-28T08:28:13Z</time>
					</trkpt>
					<trkpt lat="45.657090" lon="4.552890">
						<ele>677</ele>
						<time>2026-08-28T08:28:17Z</time>
					</trkpt>
					<trkpt lat="45.656960" lon="4.552530">
						<ele>675</ele>
						<time>2026-08-28T08:28:22Z</time>
					</trkpt>
					<trkpt lat="45.656870" lon="4.552170">
						<ele>673</ele>
						<time>2026-08-28T08:28:27Z</time>
					</trkpt>
					<trkpt lat="45.656800" lon="4.551790">
						<ele>670</ele>
						<time>2026-08-28T08:28:32Z</time>
					</trkpt>
					<trkpt lat="45.656750" lon="4.551370">
						<ele>667</ele>
						<time>2026-08-28T08:28:37Z</time>
					</trkpt>
					<trkpt lat="45.656740" lon="4.551060">
						<ele>666</ele>
						<time>2026-08-28T08:28:41Z</time>
					</trkpt>
					<trkpt lat="45.656740" lon="4.550820">
						<ele>665</ele>
						<time>2026-08-28T08:28:44Z</time>
					</trkpt>
					<trkpt lat="45.656750" lon="4.550630">
						<ele>663</ele>
						<time>2026-08-28T08:28:46Z</time>
					</trkpt>
					<trkpt lat="45.656780" lon="4.550390">
						<ele>661</ele>
						<time>2026-08-28T08:28:49Z</time>
					</trkpt>
					<trkpt lat="45.656830" lon="4.550020">
						<ele>659</ele>
						<time>2026-08-28T08:28:54Z</time>
					</trkpt>
					<trkpt lat="45.657260" lon="4.547490">
						<ele>644</ele>
						<time>2026-08-28T08:29:26Z</time>
					</trkpt>
					<trkpt lat="45.657290" lon="4.547310">
						<ele>643</ele>
						<time>2026-08-28T08:29:29Z</time>
					</trkpt>
					<trkpt lat="45.657330" lon="4.547070">
						<ele>640</ele>
						<time>2026-08-28T08:29:32Z</time>
					</trkpt>
					<trkpt lat="45.657560" lon="4.545700">
						<ele>629</ele>
						<time>2026-08-28T08:29:49Z</time>
					</trkpt>
					<trkpt lat="45.657590" lon="4.545550">
						<ele>628</ele>
						<time>2026-08-28T08:29:51Z</time>
					</trkpt>
					<trkpt lat="45.657860" lon="4.545310">
						<ele>626</ele>
						<time>2026-08-28T08:29:57Z</time>
					</trkpt>
					<trkpt lat="45.658110" lon="4.545000">
						<ele>625</ele>
						<time>2026-08-28T08:30:03Z</time>
					</trkpt>
					<trkpt lat="45.658130" lon="4.544950">
						<ele>625</ele>
						<time>2026-08-28T08:30:03Z</time>
					</trkpt>
					<trkpt lat="45.658170" lon="4.544850">
						<ele>624</ele>
						<time>2026-08-28T08:30:05Z</time>
					</trkpt>
					<trkpt lat="45.658190" lon="4.544800">
						<ele>624</ele>
						<time>2026-08-28T08:30:06Z</time>
					</trkpt>
					<trkpt lat="45.658210" lon="4.544830">
						<ele>624</ele>
						<time>2026-08-28T08:30:06Z</time>
					</trkpt>
					<trkpt lat="45.658220" lon="4.544840">
						<ele>624</ele>
						<time>2026-08-28T08:30:06Z</time>
					</trkpt>
					<trkpt lat="45.658210" lon="4.544830">
						<ele>624</ele>
						<time>2026-08-28T08:30:06Z</time>
					</trkpt>
					<trkpt lat="45.658190" lon="4.544800">
						<ele>624</ele>
						<time>2026-08-28T08:30:07Z</time>
					</trkpt>
					<trkpt lat="45.658210" lon="4.544670">
						<ele>625</ele>
						<time>2026-08-28T08:30:09Z</time>
					</trkpt>
					<trkpt lat="45.658220" lon="4.544580">
						<ele>625</ele>
						<time>2026-08-28T08:30:10Z</time>
					</trkpt>
					<trkpt lat="45.658220" lon="4.544280">
						<ele>625</ele>
						<time>2026-08-28T08:30:14Z</time>
					</trkpt>
					<trkpt lat="45.658230" lon="4.544000">
						<ele>626</ele>
						<time>2026-08-28T08:30:17Z</time>
					</trkpt>
					<trkpt lat="45.658270" lon="4.543790">
						<ele>627</ele>
						<time>2026-08-28T08:30:20Z</time>
					</trkpt>
					<trkpt lat="45.658290" lon="4.543680">
						<ele>628</ele>
						<time>2026-08-28T08:30:21Z</time>
					</trkpt>
					<trkpt lat="45.658450" lon="4.543320">
						<ele>631</ele>
						<time>2026-08-28T08:30:26Z</time>
					</trkpt>
					<trkpt lat="45.658520" lon="4.543120">
						<ele>633</ele>
						<time>2026-08-28T08:30:29Z</time>
					</trkpt>
					<trkpt lat="45.658560" lon="4.542950">
						<ele>634</ele>
						<time>2026-08-28T08:30:31Z</time>
					</trkpt>
					<trkpt lat="45.658580" lon="4.542810">
						<ele>636</ele>
						<time>2026-08-28T08:30:33Z</time>
					</trkpt>
					<trkpt lat="45.658590" lon="4.542650">
						<ele>637</ele>
						<time>2026-08-28T08:30:35Z</time>
					</trkpt>
					<trkpt lat="45.658590" lon="4.542510">
						<ele>638</ele>
						<time>2026-08-28T08:30:37Z</time>
					</trkpt>
					<trkpt lat="45.658560" lon="4.542130">
						<ele>641</ele>
						<time>2026-08-28T08:30:42Z</time>
					</trkpt>
					<trkpt lat="45.658510" lon="4.541660">
						<ele>644</ele>
						<time>2026-08-28T08:30:48Z</time>
					</trkpt>
					<trkpt lat="45.658420" lon="4.540940">
						<ele>653</ele>
						<time>2026-08-28T08:30:57Z</time>
					</trkpt>
					<trkpt lat="45.658330" lon="4.540420">
						<ele>657</ele>
						<time>2026-08-28T08:31:03Z</time>
					</trkpt>
					<trkpt lat="45.658250" lon="4.540030">
						<ele>660</ele>
						<time>2026-08-28T08:31:08Z</time>
					</trkpt>
					<trkpt lat="45.658440" lon="4.539830">
						<ele>661</ele>
						<time>2026-08-28T08:31:13Z</time>
					</trkpt>
					<trkpt lat="45.658870" lon="4.539340">
						<ele>665</ele>
						<time>2026-08-28T08:31:22Z</time>
					</trkpt>
					<trkpt lat="45.659040" lon="4.539080">
						<ele>667</ele>
						<time>2026-08-28T08:31:27Z</time>
					</trkpt>
					<trkpt lat="45.659400" lon="4.538250">
						<ele>673</ele>
						<time>2026-08-28T08:31:39Z</time>
					</trkpt>
					<trkpt lat="45.659780" lon="4.537360">
						<ele>685</ele>
						<time>2026-08-28T08:31:52Z</time>
					</trkpt>
					<trkpt lat="45.659950" lon="4.537110">
						<ele>690</ele>
						<time>2026-08-28T08:31:56Z</time>
					</trkpt>
					<trkpt lat="45.660300" lon="4.536790">
						<ele>695</ele>
						<time>2026-08-28T08:32:04Z</time>
					</trkpt>
					<trkpt lat="45.660610" lon="4.536440">
						<ele>701</ele>
						<time>2026-08-28T08:32:11Z</time>
					</trkpt>
					<trkpt lat="45.660810" lon="4.536040">
						<ele>708</ele>
						<time>2026-08-28T08:32:17Z</time>
					</trkpt>
					<trkpt lat="45.660920" lon="4.535720">
						<ele>711</ele>
						<time>2026-08-28T08:32:21Z</time>
					</trkpt>
					<trkpt lat="45.660930" lon="4.535730">
						<ele>711</ele>
						<time>2026-08-28T08:32:21Z</time>
					</trkpt>
					<trkpt lat="45.660920" lon="4.535720">
						<ele>711</ele>
						<time>2026-08-28T08:32:22Z</time>
					</trkpt>
					<trkpt lat="45.660910" lon="4.535360">
						<ele>714</ele>
						<time>2026-08-28T08:32:26Z</time>
					</trkpt>
					<trkpt lat="45.660910" lon="4.534910">
						<ele>718</ele>
						<time>2026-08-28T08:32:32Z</time>
					</trkpt>
					<trkpt lat="45.660940" lon="4.534460">
						<ele>723</ele>
						<time>2026-08-28T08:32:37Z</time>
					</trkpt>
					<trkpt lat="45.661050" lon="4.533890">
						<ele>730</ele>
						<time>2026-08-28T08:32:45Z</time>
					</trkpt>
					<trkpt lat="45.661160" lon="4.533470">
						<ele>735</ele>
						<time>2026-08-28T08:32:50Z</time>
					</trkpt>
					<trkpt lat="45.661200" lon="4.533240">
						<ele>737</ele>
						<time>2026-08-28T08:32:53Z</time>
					</trkpt>
					<trkpt lat="45.661180" lon="4.532620">
						<ele>746</ele>
						<time>2026-08-28T08:33:01Z</time>
					</trkpt>
					<trkpt lat="45.661180" lon="4.532520">
						<ele>747</ele>
						<time>2026-08-28T08:33:02Z</time>
					</trkpt>
					<trkpt lat="45.661190" lon="4.532160">
						<ele>750</ele>
						<time>2026-08-28T08:33:07Z</time>
					</trkpt>
					<trkpt lat="45.661210" lon="4.532090">
						<ele>751</ele>
						<time>2026-08-28T08:33:08Z</time>
					</trkpt>
					<trkpt lat="45.661430" lon="4.531570">
						<ele>754</ele>
						<time>2026-08-28T08:33:15Z</time>
					</trkpt>
					<trkpt lat="45.661880" lon="4.530780">
						<ele>759</ele>
						<time>2026-08-28T08:33:28Z</time>
					</trkpt>
					<trkpt lat="45.661910" lon="4.530690">
						<ele>760</ele>
						<time>2026-08-28T08:33:29Z</time>
					</trkpt>
					<trkpt lat="45.661900" lon="4.530580">
						<ele>760</ele>
						<time>2026-08-28T08:33:31Z</time>
					</trkpt>
					<trkpt lat="45.661790" lon="4.530120">
						<ele>762</ele>
						<time>2026-08-28T08:33:37Z</time>
					</trkpt>
					<trkpt lat="45.661660" lon="4.529480">
						<ele>764</ele>
						<time>2026-08-28T08:33:45Z</time>
					</trkpt>
					<trkpt lat="45.661560" lon="4.528630">
						<ele>763</ele>
						<time>2026-08-28T08:33:56Z</time>
					</trkpt>
					<trkpt lat="45.661520" lon="4.528440">
						<ele>762</ele>
						<time>2026-08-28T08:33:58Z</time>
					</trkpt>
					<trkpt lat="45.661500" lon="4.528180">
						<ele>762</ele>
						<time>2026-08-28T08:34:01Z</time>
					</trkpt>
					<trkpt lat="45.661490" lon="4.527770">
						<ele>762</ele>
						<time>2026-08-28T08:34:06Z</time>
					</trkpt>
					<trkpt lat="45.661450" lon="4.527610">
						<ele>761</ele>
						<time>2026-08-28T08:34:09Z</time>
					</trkpt>
					<trkpt lat="45.661420" lon="4.527520">
						<ele>761</ele>
						<time>2026-08-28T08:34:10Z</time>
					</trkpt>
					<trkpt lat="45.661330" lon="4.527390">
						<ele>759</ele>
						<time>2026-08-28T08:34:12Z</time>
					</trkpt>
					<trkpt lat="45.661180" lon="4.527220">
						<ele>756</ele>
						<time>2026-08-28T08:34:15Z</time>
					</trkpt>
					<trkpt lat="45.661130" lon="4.527140">
						<ele>755</ele>
						<time>2026-08-28T08:34:17Z</time>
					</trkpt>
					<trkpt lat="45.661070" lon="4.527000">
						<ele>754</ele>
						<time>2026-08-28T08:34:19Z</time>
					</trkpt>
					<trkpt lat="45.661060" lon="4.526870">
						<ele>753</ele>
						<time>2026-08-28T08:34:20Z</time>
					</trkpt>
					<trkpt lat="45.661060" lon="4.526700">
						<ele>752</ele>
						<time>2026-08-28T08:34:23Z</time>
					</trkpt>
					<trkpt lat="45.661080" lon="4.526520">
						<ele>752</ele>
						<time>2026-08-28T08:34:25Z</time>
					</trkpt>
					<trkpt lat="45.661250" lon="4.525700">
						<ele>751</ele>
						<time>2026-08-28T08:34:35Z</time>
					</trkpt>
					<trkpt lat="45.661340" lon="4.525170">
						<ele>749</ele>
						<time>2026-08-28T08:34:42Z</time>
					</trkpt>
					<trkpt lat="45.661440" lon="4.524790">
						<ele>748</ele>
						<time>2026-08-28T08:34:47Z</time>
					</trkpt>
					<trkpt lat="45.661470" lon="4.524750">
						<ele>748</ele>
						<time>2026-08-28T08:34:48Z</time>
					</trkpt>
					<trkpt lat="45.661530" lon="4.524690">
						<ele>748</ele>
						<time>2026-08-28T08:34:49Z</time>
					</trkpt>
					<trkpt lat="45.661690" lon="4.524680">
						<ele>750</ele>
						<time>2026-08-28T08:34:52Z</time>
					</trkpt>
					<trkpt lat="45.661730" lon="4.524620">
						<ele>750</ele>
						<time>2026-08-28T08:34:53Z</time>
					</trkpt>
					<trkpt lat="45.661800" lon="4.524520">
						<ele>750</ele>
						<time>2026-08-28T08:34:55Z</time>
					</trkpt>
					<trkpt lat="45.661890" lon="4.524430">
						<ele>750</ele>
						<time>2026-08-28T08:34:57Z</time>
					</trkpt>
					<trkpt lat="45.662020" lon="4.524350">
						<ele>750</ele>
						<time>2026-08-28T08:34:59Z</time>
					</trkpt>
					<trkpt lat="45.662300" lon="4.524260">
						<ele>750</ele>
						<time>2026-08-28T08:35:05Z</time>
					</trkpt>
					<trkpt lat="45.662760" lon="4.524050">
						<ele>752</ele>
						<time>2026-08-28T08:35:13Z</time>
					</trkpt>
					<trkpt lat="45.663020" lon="4.523960">
						<ele>755</ele>
						<time>2026-08-28T08:35:18Z</time>
					</trkpt>
					<trkpt lat="45.663200" lon="4.523890">
						<ele>757</ele>
						<time>2026-08-28T08:35:21Z</time>
					</trkpt>
					<trkpt lat="45.663250" lon="4.523850">
						<ele>758</ele>
						<time>2026-08-28T08:35:22Z</time>
					</trkpt>
					<trkpt lat="45.663310" lon="4.523730">
						<ele>759</ele>
						<time>2026-08-28T08:35:24Z</time>
					</trkpt>
					<trkpt lat="45.663330" lon="4.523610">
						<ele>760</ele>
						<time>2026-08-28T08:35:26Z</time>
					</trkpt>
					<trkpt lat="45.663280" lon="4.523250">
						<ele>759</ele>
						<time>2026-08-28T08:35:30Z</time>
					</trkpt>
					<trkpt lat="45.663090" lon="4.521260">
						<ele>760</ele>
						<time>2026-08-28T08:35:55Z</time>
					</trkpt>
					<trkpt lat="45.663050" lon="4.520410">
						<ele>764</ele>
						<time>2026-08-28T08:36:06Z</time>
					</trkpt>
					<trkpt lat="45.662800" lon="4.519650">
						<ele>764</ele>
						<time>2026-08-28T08:36:16Z</time>
					</trkpt>
					<trkpt lat="45.662720" lon="4.519480">
						<ele>764</ele>
						<time>2026-08-28T08:36:19Z</time>
					</trkpt>
					<trkpt lat="45.662570" lon="4.519310">
						<ele>764</ele>
						<time>2026-08-28T08:36:22Z</time>
					</trkpt>
					<trkpt lat="45.662360" lon="4.519150">
						<ele>764</ele>
						<time>2026-08-28T08:36:26Z</time>
					</trkpt>
					<trkpt lat="45.662290" lon="4.519060">
						<ele>763</ele>
						<time>2026-08-28T08:36:28Z</time>
					</trkpt>
					<trkpt lat="45.662210" lon="4.518810">
						<ele>763</ele>
						<time>2026-08-28T08:36:31Z</time>
					</trkpt>
					<trkpt lat="45.662190" lon="4.518640">
						<ele>763</ele>
						<time>2026-08-28T08:36:34Z</time>
					</trkpt>
					<trkpt lat="45.662190" lon="4.518510">
						<ele>763</ele>
						<time>2026-08-28T08:36:35Z</time>
					</trkpt>
					<trkpt lat="45.662190" lon="4.518510">
						<ele>763</ele>
						<time>2026-08-28T08:36:35Z</time>
					</trkpt>
					<trkpt lat="45.662190" lon="4.518510">
						<ele>763</ele>
						<time>2026-08-28T08:36:35Z</time>
					</trkpt>
					<trkpt lat="45.662110" lon="4.518510">
						<ele>762</ele>
						<time>2026-08-28T08:36:37Z</time>
					</trkpt>
					<trkpt lat="45.661990" lon="4.518430">
						<ele>761</ele>
						<time>2026-08-28T08:36:39Z</time>
					</trkpt>
					<trkpt lat="45.661850" lon="4.518420">
						<ele>760</ele>
						<time>2026-08-28T08:36:41Z</time>
					</trkpt>
					<trkpt lat="45.661660" lon="4.518480">
						<ele>758</ele>
						<time>2026-08-28T08:36:45Z</time>
					</trkpt>
					<trkpt lat="45.661100" lon="4.518600">
						<ele>754</ele>
						<time>2026-08-28T08:36:55Z</time>
					</trkpt>
					<trkpt lat="45.660860" lon="4.518640">
						<ele>753</ele>
						<time>2026-08-28T08:36:59Z</time>
					</trkpt>
					<trkpt lat="45.660770" lon="4.518640">
						<ele>753</ele>
						<time>2026-08-28T08:37:01Z</time>
					</trkpt>
					<trkpt lat="45.660670" lon="4.518590">
						<ele>753</ele>
						<time>2026-08-28T08:37:03Z</time>
					</trkpt>
					<trkpt lat="45.660570" lon="4.518510">
						<ele>753</ele>
						<time>2026-08-28T08:37:05Z</time>
					</trkpt>
					<trkpt lat="45.660500" lon="4.518410">
						<ele>753</ele>
						<time>2026-08-28T08:37:07Z</time>
					</trkpt>
					<trkpt lat="45.660020" lon="4.517660">
						<ele>752</ele>
						<time>2026-08-28T08:37:19Z</time>
					</trkpt>
					<trkpt lat="45.659870" lon="4.517230">
						<ele>750</ele>
						<time>2026-08-28T08:37:25Z</time>
					</trkpt>
					<trkpt lat="45.659750" lon="4.516630">
						<ele>745</ele>
						<time>2026-08-28T08:37:33Z</time>
					</trkpt>
					<trkpt lat="45.659640" lon="4.516200">
						<ele>742</ele>
						<time>2026-08-28T08:37:39Z</time>
					</trkpt>
					<trkpt lat="45.659510" lon="4.515850">
						<ele>740</ele>
						<time>2026-08-28T08:37:44Z</time>
					</trkpt>
					<trkpt lat="45.659270" lon="4.515490">
						<ele>741</ele>
						<time>2026-08-28T08:37:50Z</time>
					</trkpt>
					<trkpt lat="45.658620" lon="4.514870">
						<ele>737</ele>
						<time>2026-08-28T08:38:04Z</time>
					</trkpt>
					<trkpt lat="45.658520" lon="4.514860">
						<ele>737</ele>
						<time>2026-08-28T08:38:05Z</time>
					</trkpt>
					<trkpt lat="45.658410" lon="4.514700">
						<ele>736</ele>
						<time>2026-08-28T08:38:08Z</time>
					</trkpt>
					<trkpt lat="45.658090" lon="4.514320">
						<ele>732</ele>
						<time>2026-08-28T08:38:16Z</time>
					</trkpt>
					<trkpt lat="45.657860" lon="4.513940">
						<ele>726</ele>
						<time>2026-08-28T08:38:22Z</time>
					</trkpt>
					<trkpt lat="45.657720" lon="4.513680">
						<ele>724</ele>
						<time>2026-08-28T08:38:26Z</time>
					</trkpt>
					<trkpt lat="45.657600" lon="4.513600">
						<ele>723</ele>
						<time>2026-08-28T08:38:28Z</time>
					</trkpt>
					<trkpt lat="45.656930" lon="4.513470">
						<ele>717</ele>
						<time>2026-08-28T08:38:40Z</time>
					</trkpt>
					<trkpt lat="45.656660" lon="4.513330">
						<ele>715</ele>
						<time>2026-08-28T08:38:46Z</time>
					</trkpt>
					<trkpt lat="45.656580" lon="4.513210">
						<ele>712</ele>
						<time>2026-08-28T08:38:48Z</time>
					</trkpt>
					<trkpt lat="45.656580" lon="4.513070">
						<ele>712</ele>
						<time>2026-08-28T08:38:49Z</time>
					</trkpt>
					<trkpt lat="45.656660" lon="4.512880">
						<ele>712</ele>
						<time>2026-08-28T08:38:52Z</time>
					</trkpt>
					<trkpt lat="45.656740" lon="4.512820">
						<ele>712</ele>
						<time>2026-08-28T08:38:54Z</time>
					</trkpt>
					<trkpt lat="45.657050" lon="4.512610">
						<ele>711</ele>
						<time>2026-08-28T08:39:00Z</time>
					</trkpt>
					<trkpt lat="45.657440" lon="4.512600">
						<ele>711</ele>
						<time>2026-08-28T08:39:07Z</time>
					</trkpt>
					<trkpt lat="45.658030" lon="4.512750">
						<ele>710</ele>
						<time>2026-08-28T08:39:17Z</time>
					</trkpt>
					<trkpt lat="45.658200" lon="4.512720">
						<ele>708</ele>
						<time>2026-08-28T08:39:20Z</time>
					</trkpt>
					<trkpt lat="45.658550" lon="4.512470">
						<ele>701</ele>
						<time>2026-08-28T08:39:27Z</time>
					</trkpt>
					<trkpt lat="45.658570" lon="4.512440">
						<ele>701</ele>
						<time>2026-08-28T08:39:28Z</time>
					</trkpt>
					<trkpt lat="45.658580" lon="4.512410">
						<ele>700</ele>
						<time>2026-08-28T08:39:28Z</time>
					</trkpt>
					<trkpt lat="45.658720" lon="4.512190">
						<ele>697</ele>
						<time>2026-08-28T08:39:32Z</time>
					</trkpt>
					<trkpt lat="45.658770" lon="4.511970">
						<ele>693</ele>
						<time>2026-08-28T08:39:35Z</time>
					</trkpt>
					<trkpt lat="45.658760" lon="4.511820">
						<ele>691</ele>
						<time>2026-08-28T08:39:37Z</time>
					</trkpt>
					<trkpt lat="45.658130" lon="4.510660">
						<ele>691</ele>
						<time>2026-08-28T08:39:55Z</time>
					</trkpt>
					<trkpt lat="45.658070" lon="4.510560">
						<ele>691</ele>
						<time>2026-08-28T08:39:57Z</time>
					</trkpt>
					<trkpt lat="45.657860" lon="4.510290">
						<ele>692</ele>
						<time>2026-08-28T08:40:02Z</time>
					</trkpt>
					<trkpt lat="45.657670" lon="4.509970">
						<ele>692</ele>
						<time>2026-08-28T08:40:07Z</time>
					</trkpt>
					<trkpt lat="45.657650" lon="4.509870">
						<ele>693</ele>
						<time>2026-08-28T08:40:08Z</time>
					</trkpt>
					<trkpt lat="45.657660" lon="4.509440">
						<ele>696</ele>
						<time>2026-08-28T08:40:14Z</time>
					</trkpt>
					<trkpt lat="45.657630" lon="4.509300">
						<ele>696</ele>
						<time>2026-08-28T08:40:15Z</time>
					</trkpt>
					<trkpt lat="45.657470" lon="4.508930">
						<ele>696</ele>
						<time>2026-08-28T08:40:21Z</time>
					</trkpt>
					<trkpt lat="45.657360" lon="4.508830">
						<ele>694</ele>
						<time>2026-08-28T08:40:23Z</time>
					</trkpt>
					<trkpt lat="45.657150" lon="4.508580">
						<ele>692</ele>
						<time>2026-08-28T08:40:28Z</time>
					</trkpt>
					<trkpt lat="45.656980" lon="4.508290">
						<ele>690</ele>
						<time>2026-08-28T08:40:33Z</time>
					</trkpt>
					<trkpt lat="45.656720" lon="4.507930">
						<ele>686</ele>
						<time>2026-08-28T08:40:39Z</time>
					</trkpt>
					<trkpt lat="45.656480" lon="4.507480">
						<ele>686</ele>
						<time>2026-08-28T08:40:46Z</time>
					</trkpt>
					<trkpt lat="45.656400" lon="4.507390">
						<ele>687</ele>
						<time>2026-08-28T08:40:48Z</time>
					</trkpt>
					<trkpt lat="45.656070" lon="4.507400">
						<ele>688</ele>
						<time>2026-08-28T08:40:54Z</time>
					</trkpt>
					<trkpt lat="45.655850" lon="4.507340">
						<ele>689</ele>
						<time>2026-08-28T08:40:58Z</time>
					</trkpt>
					<trkpt lat="45.655740" lon="4.507280">
						<ele>689</ele>
						<time>2026-08-28T08:41:00Z</time>
					</trkpt>
					<trkpt lat="45.655510" lon="4.507090">
						<ele>691</ele>
						<time>2026-08-28T08:41:05Z</time>
					</trkpt>
					<trkpt lat="45.655280" lon="4.506860">
						<ele>692</ele>
						<time>2026-08-28T08:41:10Z</time>
					</trkpt>
					<trkpt lat="45.655120" lon="4.506610">
						<ele>694</ele>
						<time>2026-08-28T08:41:14Z</time>
					</trkpt>
					<trkpt lat="45.654910" lon="4.506050">
						<ele>699</ele>
						<time>2026-08-28T08:41:22Z</time>
					</trkpt>
					<trkpt lat="45.654920" lon="4.505960">
						<ele>700</ele>
						<time>2026-08-28T08:41:23Z</time>
					</trkpt>
					<trkpt lat="45.654900" lon="4.505880">
						<ele>700</ele>
						<time>2026-08-28T08:41:24Z</time>
					</trkpt>
					<trkpt lat="45.654860" lon="4.505830">
						<ele>701</ele>
						<time>2026-08-28T08:41:25Z</time>
					</trkpt>
					<trkpt lat="45.654800" lon="4.505810">
						<ele>702</ele>
						<time>2026-08-28T08:41:26Z</time>
					</trkpt>
					<trkpt lat="45.654750" lon="4.505810">
						<ele>702</ele>
						<time>2026-08-28T08:41:27Z</time>
					</trkpt>
					<trkpt lat="45.654650" lon="4.505870">
						<ele>703</ele>
						<time>2026-08-28T08:41:29Z</time>
					</trkpt>
					<trkpt lat="45.654380" lon="4.506150">
						<ele>701</ele>
						<time>2026-08-28T08:41:35Z</time>
					</trkpt>
					<trkpt lat="45.654270" lon="4.506240">
						<ele>701</ele>
						<time>2026-08-28T08:41:37Z</time>
					</trkpt>
					<trkpt lat="45.654170" lon="4.506300">
						<ele>701</ele>
						<time>2026-08-28T08:41:39Z</time>
					</trkpt>
					<trkpt lat="45.654060" lon="4.506330">
						<ele>700</ele>
						<time>2026-08-28T08:41:41Z</time>
					</trkpt>
					<trkpt lat="45.653960" lon="4.506340">
						<ele>700</ele>
						<time>2026-08-28T08:41:43Z</time>
					</trkpt>
					<trkpt lat="45.653860" lon="4.506300">
						<ele>701</ele>
						<time>2026-08-28T08:41:45Z</time>
					</trkpt>
					<trkpt lat="45.653790" lon="4.506190">
						<ele>702</ele>
						<time>2026-08-28T08:41:46Z</time>
					</trkpt>
					<trkpt lat="45.653730" lon="4.506070">
						<ele>703</ele>
						<time>2026-08-28T08:41:48Z</time>
					</trkpt>
					<trkpt lat="45.653700" lon="4.505970">
						<ele>704</ele>
						<time>2026-08-28T08:41:50Z</time>
					</trkpt>
					<trkpt lat="45.653680" lon="4.505850">
						<ele>705</ele>
						<time>2026-08-28T08:41:51Z</time>
					</trkpt>
					<trkpt lat="45.653670" lon="4.505740">
						<ele>705</ele>
						<time>2026-08-28T08:41:53Z</time>
					</trkpt>
					<trkpt lat="45.653730" lon="4.504020">
						<ele>719</ele>
						<time>2026-08-28T08:42:14Z</time>
					</trkpt>
					<trkpt lat="45.653750" lon="4.503870">
						<ele>721</ele>
						<time>2026-08-28T08:42:16Z</time>
					</trkpt>
					<trkpt lat="45.653780" lon="4.503730">
						<ele>722</ele>
						<time>2026-08-28T08:42:18Z</time>
					</trkpt>
					<trkpt lat="45.653830" lon="4.503650">
						<ele>724</ele>
						<time>2026-08-28T08:42:19Z</time>
					</trkpt>
					<trkpt lat="45.653890" lon="4.503570">
						<ele>725</ele>
						<time>2026-08-28T08:42:20Z</time>
					</trkpt>
					<trkpt lat="45.653980" lon="4.503540">
						<ele>726</ele>
						<time>2026-08-28T08:42:22Z</time>
					</trkpt>
					<trkpt lat="45.654070" lon="4.503550">
						<ele>727</ele>
						<time>2026-08-28T08:42:24Z</time>
					</trkpt>
					<trkpt lat="45.654320" lon="4.503660">
						<ele>727</ele>
						<time>2026-08-28T08:42:28Z</time>
					</trkpt>
					<trkpt lat="45.654380" lon="4.503670">
						<ele>727</ele>
						<time>2026-08-28T08:42:29Z</time>
					</trkpt>
					<trkpt lat="45.654470" lon="4.503650">
						<ele>727</ele>
						<time>2026-08-28T08:42:31Z</time>
					</trkpt>
					<trkpt lat="45.654520" lon="4.503610">
						<ele>727</ele>
						<time>2026-08-28T08:42:32Z</time>
					</trkpt>
					<trkpt lat="45.654580" lon="4.503520">
						<ele>729</ele>
						<time>2026-08-28T08:42:34Z</time>
					</trkpt>
					<trkpt lat="45.654630" lon="4.503390">
						<ele>731</ele>
						<time>2026-08-28T08:42:35Z</time>
					</trkpt>
					<trkpt lat="45.654660" lon="4.503260">
						<ele>733</ele>
						<time>2026-08-28T08:42:37Z</time>
					</trkpt>
					<trkpt lat="45.654670" lon="4.503160">
						<ele>735</ele>
						<time>2026-08-28T08:42:38Z</time>
					</trkpt>
					<trkpt lat="45.654660" lon="4.503040">
						<ele>737</ele>
						<time>2026-08-28T08:42:40Z</time>
					</trkpt>
					<trkpt lat="45.654640" lon="4.502930">
						<ele>739</ele>
						<time>2026-08-28T08:42:41Z</time>
					</trkpt>
					<trkpt lat="45.654580" lon="4.502810">
						<ele>741</ele>
						<time>2026-08-28T08:42:43Z</time>
					</trkpt>
					<trkpt lat="45.654480" lon="4.502650">
						<ele>743</ele>
						<time>2026-08-28T08:42:46Z</time>
					</trkpt>
					<trkpt lat="45.654220" lon="4.502360">
						<ele>745</ele>
						<time>2026-08-28T08:42:52Z</time>
					</trkpt>
					<trkpt lat="45.653910" lon="4.502140">
						<ele>745</ele>
						<time>2026-08-28T08:42:58Z</time>
					</trkpt>
					<trkpt lat="45.653590" lon="4.501970">
						<ele>745</ele>
						<time>2026-08-28T08:43:04Z</time>
					</trkpt>
					<trkpt lat="45.653460" lon="4.501870">
						<ele>745</ele>
						<time>2026-08-28T08:43:07Z</time>
					</trkpt>
					<trkpt lat="45.653300" lon="4.501680">
						<ele>747</ele>
						<time>2026-08-28T08:43:10Z</time>
					</trkpt>
					<trkpt lat="45.653220" lon="4.501550">
						<ele>749</ele>
						<time>2026-08-28T08:43:12Z</time>
					</trkpt>
					<trkpt lat="45.653140" lon="4.501400">
						<ele>752</ele>
						<time>2026-08-28T08:43:15Z</time>
					</trkpt>
					<trkpt lat="45.653070" lon="4.501220">
						<ele>754</ele>
						<time>2026-08-28T08:43:17Z</time>
					</trkpt>
					<trkpt lat="45.653040" lon="4.501080">
						<ele>756</ele>
						<time>2026-08-28T08:43:19Z</time>
					</trkpt>
					<trkpt lat="45.653010" lon="4.500820">
						<ele>759</ele>
						<time>2026-08-28T08:43:22Z</time>
					</trkpt>
					<trkpt lat="45.653000" lon="4.500620">
						<ele>762</ele>
						<time>2026-08-28T08:43:25Z</time>
					</trkpt>
					<trkpt lat="45.653010" lon="4.500030">
						<ele>768</ele>
						<time>2026-08-28T08:43:32Z</time>
					</trkpt>
					<trkpt lat="45.653140" lon="4.499680">
						<ele>768</ele>
						<time>2026-08-28T08:43:37Z</time>
					</trkpt>
					<trkpt lat="45.653190" lon="4.499550">
						<ele>768</ele>
						<time>2026-08-28T08:43:39Z</time>
					</trkpt>
					<trkpt lat="45.653210" lon="4.499450">
						<ele>768</ele>
						<time>2026-08-28T08:43:40Z</time>
					</trkpt>
					<trkpt lat="45.653300" lon="4.499410">
						<ele>766</ele>
						<time>2026-08-28T08:43:42Z</time>
					</trkpt>
					<trkpt lat="45.653460" lon="4.499390">
						<ele>767</ele>
						<time>2026-08-28T08:43:45Z</time>
					</trkpt>
					<trkpt lat="45.653570" lon="4.499390">
						<ele>768</ele>
						<time>2026-08-28T08:43:47Z</time>
					</trkpt>
					<trkpt lat="45.653760" lon="4.499420">
						<ele>769</ele>
						<time>2026-08-28T08:43:50Z</time>
					</trkpt>
					<trkpt lat="45.653960" lon="4.499500">
						<ele>770</ele>
						<time>2026-08-28T08:43:54Z</time>
					</trkpt>
					<trkpt lat="45.654300" lon="4.499660">
						<ele>771</ele>
						<time>2026-08-28T08:44:00Z</time>
					</trkpt>
					<trkpt lat="45.654490" lon="4.499780">
						<ele>770</ele>
						<time>2026-08-28T08:44:04Z</time>
					</trkpt>
					<trkpt lat="45.654700" lon="4.499900">
						<ele>770</ele>
						<time>2026-08-28T08:44:08Z</time>
					</trkpt>
					<trkpt lat="45.654760" lon="4.499950">
						<ele>770</ele>
						<time>2026-08-28T08:44:09Z</time>
					</trkpt>
					<trkpt lat="45.654990" lon="4.500070">
						<ele>770</ele>
						<time>2026-08-28T08:44:14Z</time>
					</trkpt>
					<trkpt lat="45.655360" lon="4.500270">
						<ele>768</ele>
						<time>2026-08-28T08:44:21Z</time>
					</trkpt>
					<trkpt lat="45.655550" lon="4.500310">
						<ele>767</ele>
						<time>2026-08-28T08:44:24Z</time>
					</trkpt>
					<trkpt lat="45.655760" lon="4.500320">
						<ele>766</ele>
						<time>2026-08-28T08:44:28Z</time>
					</trkpt>
					<trkpt lat="45.655900" lon="4.500310">
						<ele>766</ele>
						<time>2026-08-28T08:44:30Z</time>
					</trkpt>
					<trkpt lat="45.656350" lon="4.500180">
						<ele>764</ele>
						<time>2026-08-28T08:44:38Z</time>
					</trkpt>
					<trkpt lat="45.656610" lon="4.500100">
						<ele>763</ele>
						<time>2026-08-28T08:44:43Z</time>
					</trkpt>
					<trkpt lat="45.657030" lon="4.499980">
						<ele>763</ele>
						<time>2026-08-28T08:44:51Z</time>
					</trkpt>
					<trkpt lat="45.658100" lon="4.499800">
						<ele>761</ele>
						<time>2026-08-28T08:45:10Z</time>
					</trkpt>
					<trkpt lat="45.658650" lon="4.499710">
						<ele>760</ele>
						<time>2026-08-28T08:45:20Z</time>
					</trkpt>
					<trkpt lat="45.658750" lon="4.499690">
						<ele>760</ele>
						<time>2026-08-28T08:45:22Z</time>
					</trkpt>
					<trkpt lat="45.658860" lon="4.499660">
						<ele>760</ele>
						<time>2026-08-28T08:45:24Z</time>
					</trkpt>
					<trkpt lat="45.659910" lon="4.499440">
						<ele>761</ele>
						<time>2026-08-28T08:45:42Z</time>
					</trkpt>
					<trkpt lat="45.661160" lon="4.499090">
						<ele>763</ele>
						<time>2026-08-28T08:46:05Z</time>
					</trkpt>
					<trkpt lat="45.661720" lon="4.498950">
						<ele>764</ele>
						<time>2026-08-28T08:46:15Z</time>
					</trkpt>
					<trkpt lat="45.661920" lon="4.498840">
						<ele>763</ele>
						<time>2026-08-28T08:46:19Z</time>
					</trkpt>
					<trkpt lat="45.662070" lon="4.498690">
						<ele>761</ele>
						<time>2026-08-28T08:46:22Z</time>
					</trkpt>
					<trkpt lat="45.662770" lon="4.497640">
						<ele>751</ele>
						<time>2026-08-28T08:46:40Z</time>
					</trkpt>
					<trkpt lat="45.662840" lon="4.497590">
						<ele>750</ele>
						<time>2026-08-28T08:46:42Z</time>
					</trkpt>
					<trkpt lat="45.662930" lon="4.497560">
						<ele>749</ele>
						<time>2026-08-28T08:46:43Z</time>
					</trkpt>
					<trkpt lat="45.662890" lon="4.497330">
						<ele>747</ele>
						<time>2026-08-28T08:46:46Z</time>
					</trkpt>
					<trkpt lat="45.662830" lon="4.497220">
						<ele>746</ele>
						<time>2026-08-28T08:46:48Z</time>
					</trkpt>
					<trkpt lat="45.662740" lon="4.497170">
						<ele>745</ele>
						<time>2026-08-28T08:46:50Z</time>
					</trkpt>
					<trkpt lat="45.662670" lon="4.497180">
						<ele>745</ele>
						<time>2026-08-28T08:46:51Z</time>
					</trkpt>
					<trkpt lat="45.662580" lon="4.497240">
						<ele>746</ele>
						<time>2026-08-28T08:46:53Z</time>
					</trkpt>
					<trkpt lat="45.662440" lon="4.497450">
						<ele>750</ele>
						<time>2026-08-28T08:46:56Z</time>
					</trkpt>
					<trkpt lat="45.662320" lon="4.497550">
						<ele>752</ele>
						<time>2026-08-28T08:46:59Z</time>
					</trkpt>
					<trkpt lat="45.662210" lon="4.497560">
						<ele>753</ele>
						<time>2026-08-28T08:47:01Z</time>
					</trkpt>
					<trkpt lat="45.662110" lon="4.497510">
						<ele>753</ele>
						<time>2026-08-28T08:47:03Z</time>
					</trkpt>
					<trkpt lat="45.662040" lon="4.497400">
						<ele>752</ele>
						<time>2026-08-28T08:47:05Z</time>
					</trkpt>
					<trkpt lat="45.661990" lon="4.497240">
						<ele>751</ele>
						<time>2026-08-28T08:47:07Z</time>
					</trkpt>
					<trkpt lat="45.661820" lon="4.496120">
						<ele>740</ele>
						<time>2026-08-28T08:47:21Z</time>
					</trkpt>
					<trkpt lat="45.661780" lon="4.495930">
						<ele>737</ele>
						<time>2026-08-28T08:47:24Z</time>
					</trkpt>
					<trkpt lat="45.661750" lon="4.495810">
						<ele>736</ele>
						<time>2026-08-28T08:47:25Z</time>
					</trkpt>
					<trkpt lat="45.661680" lon="4.495680">
						<ele>735</ele>
						<time>2026-08-28T08:47:27Z</time>
					</trkpt>
					<trkpt lat="45.661560" lon="4.495580">
						<ele>734</ele>
						<time>2026-08-28T08:47:30Z</time>
					</trkpt>
					<trkpt lat="45.661440" lon="4.495530">
						<ele>734</ele>
						<time>2026-08-28T08:47:32Z</time>
					</trkpt>
					<trkpt lat="45.661300" lon="4.495520">
						<ele>734</ele>
						<time>2026-08-28T08:47:34Z</time>
					</trkpt>
					<trkpt lat="45.661000" lon="4.495600">
						<ele>736</ele>
						<time>2026-08-28T08:47:40Z</time>
					</trkpt>
					<trkpt lat="45.660780" lon="4.495650">
						<ele>737</ele>
						<time>2026-08-28T08:47:44Z</time>
					</trkpt>
					<trkpt lat="45.660640" lon="4.495660">
						<ele>735</ele>
						<time>2026-08-28T08:47:46Z</time>
					</trkpt>
					<trkpt lat="45.660510" lon="4.495630">
						<ele>734</ele>
						<time>2026-08-28T08:47:49Z</time>
					</trkpt>
					<trkpt lat="45.660370" lon="4.495550">
						<ele>732</ele>
						<time>2026-08-28T08:47:51Z</time>
					</trkpt>
					<trkpt lat="45.660270" lon="4.495410">
						<ele>730</ele>
						<time>2026-08-28T08:47:54Z</time>
					</trkpt>
					<trkpt lat="45.660190" lon="4.495210">
						<ele>728</ele>
						<time>2026-08-28T08:47:57Z</time>
					</trkpt>
					<trkpt lat="45.660150" lon="4.494950">
						<ele>726</ele>
						<time>2026-08-28T08:48:00Z</time>
					</trkpt>
					<trkpt lat="45.660020" lon="4.493400">
						<ele>721</ele>
						<time>2026-08-28T08:48:19Z</time>
					</trkpt>
					<trkpt lat="45.660010" lon="4.493310">
						<ele>721</ele>
						<time>2026-08-28T08:48:20Z</time>
					</trkpt>
					<trkpt lat="45.659960" lon="4.492820">
						<ele>722</ele>
						<time>2026-08-28T08:48:27Z</time>
					</trkpt>
					<trkpt lat="45.659980" lon="4.492630">
						<ele>723</ele>
						<time>2026-08-28T08:48:29Z</time>
					</trkpt>
					<trkpt lat="45.660030" lon="4.492460">
						<ele>723</ele>
						<time>2026-08-28T08:48:31Z</time>
					</trkpt>
					<trkpt lat="45.660240" lon="4.492100">
						<ele>720</ele>
						<time>2026-08-28T08:48:37Z</time>
					</trkpt>
					<trkpt lat="45.660300" lon="4.491980">
						<ele>719</ele>
						<time>2026-08-28T08:48:39Z</time>
					</trkpt>
					<trkpt lat="45.660370" lon="4.491810">
						<ele>718</ele>
						<time>2026-08-28T08:48:41Z</time>
					</trkpt>
					<trkpt lat="45.660420" lon="4.491630">
						<ele>718</ele>
						<time>2026-08-28T08:48:44Z</time>
					</trkpt>
					<trkpt lat="45.660550" lon="4.491050">
						<ele>715</ele>
						<time>2026-08-28T08:48:51Z</time>
					</trkpt>
					<trkpt lat="45.660610" lon="4.490720">
						<ele>714</ele>
						<time>2026-08-28T08:48:56Z</time>
					</trkpt>
					<trkpt lat="45.660620" lon="4.490490">
						<ele>713</ele>
						<time>2026-08-28T08:48:58Z</time>
					</trkpt>
					<trkpt lat="45.660600" lon="4.490280">
						<ele>713</ele>
						<time>2026-08-28T08:49:01Z</time>
					</trkpt>
					<trkpt lat="45.660550" lon="4.490080">
						<ele>712</ele>
						<time>2026-08-28T08:49:04Z</time>
					</trkpt>
					<trkpt lat="45.660490" lon="4.489930">
						<ele>712</ele>
						<time>2026-08-28T08:49:06Z</time>
					</trkpt>
					<trkpt lat="45.660420" lon="4.489780">
						<ele>712</ele>
						<time>2026-08-28T08:49:08Z</time>
					</trkpt>
					<trkpt lat="45.660280" lon="4.489500">
						<ele>710</ele>
						<time>2026-08-28T08:49:12Z</time>
					</trkpt>
					<trkpt lat="45.660170" lon="4.489340">
						<ele>710</ele>
						<time>2026-08-28T08:49:15Z</time>
					</trkpt>
					<trkpt lat="45.660070" lon="4.489230">
						<ele>709</ele>
						<time>2026-08-28T08:49:17Z</time>
					</trkpt>
					<trkpt lat="45.659890" lon="4.489130">
						<ele>710</ele>
						<time>2026-08-28T08:49:21Z</time>
					</trkpt>
					<trkpt lat="45.659460" lon="4.488920">
						<ele>712</ele>
						<time>2026-08-28T08:49:29Z</time>
					</trkpt>
					<trkpt lat="45.659280" lon="4.488800">
						<ele>712</ele>
						<time>2026-08-28T08:49:33Z</time>
					</trkpt>
					<trkpt lat="45.659140" lon="4.488650">
						<ele>712</ele>
						<time>2026-08-28T08:49:36Z</time>
					</trkpt>
					<trkpt lat="45.659010" lon="4.488480">
						<ele>711</ele>
						<time>2026-08-28T08:49:39Z</time>
					</trkpt>
					<trkpt lat="45.658890" lon="4.488240">
						<ele>710</ele>
						<time>2026-08-28T08:49:42Z</time>
					</trkpt>
					<trkpt lat="45.658830" lon="4.487920">
						<ele>709</ele>
						<time>2026-08-28T08:49:47Z</time>
					</trkpt>
					<trkpt lat="45.658780" lon="4.487470">
						<ele>708</ele>
						<time>2026-08-28T08:49:52Z</time>
					</trkpt>
					<trkpt lat="45.658760" lon="4.487030">
						<ele>705</ele>
						<time>2026-08-28T08:49:58Z</time>
					</trkpt>
					<trkpt lat="45.658750" lon="4.485530">
						<ele>704</ele>
						<time>2026-08-28T08:50:16Z</time>
					</trkpt>
					<trkpt lat="45.658700" lon="4.484870">
						<ele>703</ele>
						<time>2026-08-28T08:50:25Z</time>
					</trkpt>
					<trkpt lat="45.658630" lon="4.484410">
						<ele>700</ele>
						<time>2026-08-28T08:50:30Z</time>
					</trkpt>
					<trkpt lat="45.658350" lon="4.482980">
						<ele>692</ele>
						<time>2026-08-28T08:50:49Z</time>
					</trkpt>
					<trkpt lat="45.658140" lon="4.481890">
						<ele>682</ele>
						<time>2026-08-28T08:51:03Z</time>
					</trkpt>
					<trkpt lat="45.658050" lon="4.481600">
						<ele>679</ele>
						<time>2026-08-28T08:51:07Z</time>
					</trkpt>
					<trkpt lat="45.657920" lon="4.481340">
						<ele>677</ele>
						<time>2026-08-28T08:51:11Z</time>
					</trkpt>
					<trkpt lat="45.657770" lon="4.481150">
						<ele>675</ele>
						<time>2026-08-28T08:51:14Z</time>
					</trkpt>
					<trkpt lat="45.656620" lon="4.479840">
						<ele>670</ele>
						<time>2026-08-28T08:51:41Z</time>
					</trkpt>
					<trkpt lat="45.655680" lon="4.478780">
						<ele>667</ele>
						<time>2026-08-28T08:52:02Z</time>
					</trkpt>
					<trkpt lat="45.655320" lon="4.478350">
						<ele>667</ele>
						<time>2026-08-28T08:52:10Z</time>
					</trkpt>
					<trkpt lat="45.655230" lon="4.478260">
						<ele>668</ele>
						<time>2026-08-28T08:52:12Z</time>
					</trkpt>
					<trkpt lat="45.655060" lon="4.478090">
						<ele>669</ele>
						<time>2026-08-28T08:52:16Z</time>
					</trkpt>
					<trkpt lat="45.654170" lon="4.477300">
						<ele>671</ele>
						<time>2026-08-28T08:52:35Z</time>
					</trkpt>
					<trkpt lat="45.654000" lon="4.477110">
						<ele>670</ele>
						<time>2026-08-28T08:52:38Z</time>
					</trkpt>
					<trkpt lat="45.653730" lon="4.476740">
						<ele>670</ele>
						<time>2026-08-28T08:52:45Z</time>
					</trkpt>
					<trkpt lat="45.653490" lon="4.476320">
						<ele>670</ele>
						<time>2026-08-28T08:52:52Z</time>
					</trkpt>
					<trkpt lat="45.653390" lon="4.476050">
						<ele>670</ele>
						<time>2026-08-28T08:52:56Z</time>
					</trkpt>
					<trkpt lat="45.653120" lon="4.474790">
						<ele>669</ele>
						<time>2026-08-28T08:53:12Z</time>
					</trkpt>
					<trkpt lat="45.652930" lon="4.474060">
						<ele>667</ele>
						<time>2026-08-28T08:53:22Z</time>
					</trkpt>
					<trkpt lat="45.652770" lon="4.473590">
						<ele>666</ele>
						<time>2026-08-28T08:53:28Z</time>
					</trkpt>
					<trkpt lat="45.652690" lon="4.473380">
						<ele>666</ele>
						<time>2026-08-28T08:53:31Z</time>
					</trkpt>
					<trkpt lat="45.652520" lon="4.473050">
						<ele>664</ele>
						<time>2026-08-28T08:53:36Z</time>
					</trkpt>
					<trkpt lat="45.651920" lon="4.471790">
						<ele>662</ele>
						<time>2026-08-28T08:53:55Z</time>
					</trkpt>
					<trkpt lat="45.651870" lon="4.471600">
						<ele>662</ele>
						<time>2026-08-28T08:53:58Z</time>
					</trkpt>
					<trkpt lat="45.651830" lon="4.471470">
						<ele>662</ele>
						<time>2026-08-28T08:54:00Z</time>
					</trkpt>
					<trkpt lat="45.651740" lon="4.471240">
						<ele>661</ele>
						<time>2026-08-28T08:54:03Z</time>
					</trkpt>
					<trkpt lat="45.651680" lon="4.471090">
						<ele>661</ele>
						<time>2026-08-28T08:54:05Z</time>
					</trkpt>
					<trkpt lat="45.651550" lon="4.470850">
						<ele>660</ele>
						<time>2026-08-28T08:54:09Z</time>
					</trkpt>
					<trkpt lat="45.651470" lon="4.470790">
						<ele>660</ele>
						<time>2026-08-28T08:54:10Z</time>
					</trkpt>
					<trkpt lat="45.651500" lon="4.470870">
						<ele>660</ele>
						<time>2026-08-28T08:54:11Z</time>
					</trkpt>
					<trkpt lat="45.651550" lon="4.470990">
						<ele>660</ele>
						<time>2026-08-28T08:54:13Z</time>
					</trkpt>
					<trkpt lat="45.651610" lon="4.471100">
						<ele>661</ele>
						<time>2026-08-28T08:54:15Z</time>
					</trkpt>
					<trkpt lat="45.651650" lon="4.471140">
						<ele>661</ele>
						<time>2026-08-28T08:54:16Z</time>
					</trkpt>
					<trkpt lat="45.651710" lon="4.471250">
						<ele>661</ele>
						<time>2026-08-28T08:54:18Z</time>
					</trkpt>
					<trkpt lat="45.651740" lon="4.471240">
						<ele>661</ele>
						<time>2026-08-28T08:54:18Z</time>
					</trkpt>
					<trkpt lat="45.651680" lon="4.471090">
						<ele>661</ele>
						<time>2026-08-28T08:54:20Z</time>
					</trkpt>
					<trkpt lat="45.651550" lon="4.470850">
						<ele>660</ele>
						<time>2026-08-28T08:54:24Z</time>
					</trkpt>
					<trkpt lat="45.651470" lon="4.470790">
						<ele>660</ele>
						<time>2026-08-28T08:54:26Z</time>
					</trkpt>
					<trkpt lat="45.651320" lon="4.470650">
						<ele>659</ele>
						<time>2026-08-28T08:54:29Z</time>
					</trkpt>
					<trkpt lat="45.650670" lon="4.470050">
						<ele>657</ele>
						<time>2026-08-28T08:54:43Z</time>
					</trkpt>
					<trkpt lat="45.650610" lon="4.470000">
						<ele>657</ele>
						<time>2026-08-28T08:54:44Z</time>
					</trkpt>
					<trkpt lat="45.650240" lon="4.469680">
						<ele>655</ele>
						<time>2026-08-28T08:54:51Z</time>
					</trkpt>
					<trkpt lat="45.649460" lon="4.468970">
						<ele>653</ele>
						<time>2026-08-28T08:55:08Z</time>
					</trkpt>
					<trkpt lat="45.649220" lon="4.468710">
						<ele>654</ele>
						<time>2026-08-28T08:55:13Z</time>
					</trkpt>
					<trkpt lat="45.648800" lon="4.468220">
						<ele>654</ele>
						<time>2026-08-28T08:55:23Z</time>
					</trkpt>
					<trkpt lat="45.648770" lon="4.468180">
						<ele>654</ele>
						<time>2026-08-28T08:55:24Z</time>
					</trkpt>
					<trkpt lat="45.647800" lon="4.466980">
						<ele>653</ele>
						<time>2026-08-28T08:55:46Z</time>
					</trkpt>
					<trkpt lat="45.646830" lon="4.465810">
						<ele>649</ele>
						<time>2026-08-28T08:56:09Z</time>
					</trkpt>
					<trkpt lat="45.645300" lon="4.463950">
						<ele>643</ele>
						<time>2026-08-28T08:56:45Z</time>
					</trkpt>
					<trkpt lat="45.645110" lon="4.463790">
						<ele>642</ele>
						<time>2026-08-28T08:56:49Z</time>
					</trkpt>
					<trkpt lat="45.644230" lon="4.463330">
						<ele>640</ele>
						<time>2026-08-28T08:57:05Z</time>
					</trkpt>
					<trkpt lat="45.643940" lon="4.463180">
						<ele>638</ele>
						<time>2026-08-28T08:57:11Z</time>
					</trkpt>
					<trkpt lat="45.643770" lon="4.463120">
						<ele>637</ele>
						<time>2026-08-28T08:57:14Z</time>
					</trkpt>
					<trkpt lat="45.643650" lon="4.463080">
						<ele>636</ele>
						<time>2026-08-28T08:57:16Z</time>
					</trkpt>
					<trkpt lat="45.643290" lon="4.463020">
						<ele>633</ele>
						<time>2026-08-28T08:57:23Z</time>
					</trkpt>
					<trkpt lat="45.642990" lon="4.463010">
						<ele>632</ele>
						<time>2026-08-28T08:57:28Z</time>
					</trkpt>
					<trkpt lat="45.642020" lon="4.463000">
						<ele>627</ele>
						<time>2026-08-28T08:57:45Z</time>
					</trkpt>
					<trkpt lat="45.641260" lon="4.463020">
						<ele>623</ele>
						<time>2026-08-28T08:57:59Z</time>
					</trkpt>
					<trkpt lat="45.640710" lon="4.463000">
						<ele>621</ele>
						<time>2026-08-28T08:58:09Z</time>
					</trkpt>
					<trkpt lat="45.639910" lon="4.463000">
						<ele>618</ele>
						<time>2026-08-28T08:58:23Z</time>
					</trkpt>
					<trkpt lat="45.639560" lon="4.462980">
						<ele>615</ele>
						<time>2026-08-28T08:58:29Z</time>
					</trkpt>
					<trkpt lat="45.638930" lon="4.462990">
						<ele>611</ele>
						<time>2026-08-28T08:58:40Z</time>
					</trkpt>
					<trkpt lat="45.638530" lon="4.463000">
						<ele>607</ele>
						<time>2026-08-28T08:58:47Z</time>
					</trkpt>
					<trkpt lat="45.638450" lon="4.462940">
						<ele>607</ele>
						<time>2026-08-28T08:58:49Z</time>
					</trkpt>
					<trkpt lat="45.638340" lon="4.462830">
						<ele>606</ele>
						<time>2026-08-28T08:58:51Z</time>
					</trkpt>
					<trkpt lat="45.638110" lon="4.462430">
						<ele>605</ele>
						<time>2026-08-28T08:58:58Z</time>
					</trkpt>
					<trkpt lat="45.637890" lon="4.461980">
						<ele>605</ele>
						<time>2026-08-28T08:59:05Z</time>
					</trkpt>
					<trkpt lat="45.637850" lon="4.461890">
						<ele>605</ele>
						<time>2026-08-28T08:59:06Z</time>
					</trkpt>
					<trkpt lat="45.637730" lon="4.461750">
						<ele>604</ele>
						<time>2026-08-28T08:59:09Z</time>
					</trkpt>
					<trkpt lat="45.637020" lon="4.461010">
						<ele>601</ele>
						<time>2026-08-28T08:59:24Z</time>
					</trkpt>
					<trkpt lat="45.637000" lon="4.460990">
						<ele>601</ele>
						<time>2026-08-28T08:59:25Z</time>
					</trkpt>
					<trkpt lat="45.636990" lon="4.460830">
						<ele>602</ele>
						<time>2026-08-28T08:59:27Z</time>
					</trkpt>
					<trkpt lat="45.636950" lon="4.459820">
						<ele>600</ele>
						<time>2026-08-28T08:59:39Z</time>
					</trkpt>
					<trkpt lat="45.636930" lon="4.459270">
						<ele>597</ele>
						<time>2026-08-28T08:59:46Z</time>
					</trkpt>
					<trkpt lat="45.636920" lon="4.459080">
						<ele>596</ele>
						<time>2026-08-28T08:59:49Z</time>
					</trkpt>
					<trkpt lat="45.636780" lon="4.458260">
						<ele>591</ele>
						<time>2026-08-28T08:59:59Z</time>
					</trkpt>
					<trkpt lat="45.636490" lon="4.456950">
						<ele>581</ele>
						<time>2026-08-28T09:00:16Z</time>
					</trkpt>
					<trkpt lat="45.636460" lon="4.456820">
						<ele>581</ele>
						<time>2026-08-28T09:00:18Z</time>
					</trkpt>
					<trkpt lat="45.636400" lon="4.456700">
						<ele>580</ele>
						<time>2026-08-28T09:00:20Z</time>
					</trkpt>
					<trkpt lat="45.636350" lon="4.456580">
						<ele>580</ele>
						<time>2026-08-28T09:00:21Z</time>
					</trkpt>
					<trkpt lat="45.636350" lon="4.456570">
						<ele>580</ele>
						<time>2026-08-28T09:00:22Z</time>
					</trkpt>
					<trkpt lat="45.636150" lon="4.456630">
						<ele>580</ele>
						<time>2026-08-28T09:00:25Z</time>
					</trkpt>
					<trkpt lat="45.635930" lon="4.456660">
						<ele>581</ele>
						<time>2026-08-28T09:00:29Z</time>
					</trkpt>
					<trkpt lat="45.635710" lon="4.456620">
						<ele>582</ele>
						<time>2026-08-28T09:00:33Z</time>
					</trkpt>
					<trkpt lat="45.635520" lon="4.456510">
						<ele>583</ele>
						<time>2026-08-28T09:00:37Z</time>
					</trkpt>
					<trkpt lat="45.635270" lon="4.456190">
						<ele>581</ele>
						<time>2026-08-28T09:00:43Z</time>
					</trkpt>
					<trkpt lat="45.635190" lon="4.456070">
						<ele>580</ele>
						<time>2026-08-28T09:00:45Z</time>
					</trkpt>
					<trkpt lat="45.635090" lon="4.455980">
						<ele>579</ele>
						<time>2026-08-28T09:00:47Z</time>
					</trkpt>
					<trkpt lat="45.635030" lon="4.455960">
						<ele>579</ele>
						<time>2026-08-28T09:00:48Z</time>
					</trkpt>
					<trkpt lat="45.634930" lon="4.455960">
						<ele>579</ele>
						<time>2026-08-28T09:00:50Z</time>
					</trkpt>
					<trkpt lat="45.634860" lon="4.455980">
						<ele>578</ele>
						<time>2026-08-28T09:00:51Z</time>
					</trkpt>
					<trkpt lat="45.634120" lon="4.456410">
						<ele>582</ele>
						<time>2026-08-28T09:01:05Z</time>
					</trkpt>
					<trkpt lat="45.634000" lon="4.456430">
						<ele>583</ele>
						<time>2026-08-28T09:01:07Z</time>
					</trkpt>
					<trkpt lat="45.633560" lon="4.456500">
						<ele>586</ele>
						<time>2026-08-28T09:01:15Z</time>
					</trkpt>
					<trkpt lat="45.633470" lon="4.456520">
						<ele>586</ele>
						<time>2026-08-28T09:01:17Z</time>
					</trkpt>
					<trkpt lat="45.633420" lon="4.456260">
						<ele>585</ele>
						<time>2026-08-28T09:01:20Z</time>
					</trkpt>
					<trkpt lat="45.633410" lon="4.455790">
						<ele>583</ele>
						<time>2026-08-28T09:01:26Z</time>
					</trkpt>
					<trkpt lat="45.633370" lon="4.455260">
						<ele>583</ele>
						<time>2026-08-28T09:01:33Z</time>
					</trkpt>
					<trkpt lat="45.633350" lon="4.455170">
						<ele>583</ele>
						<time>2026-08-28T09:01:34Z</time>
					</trkpt>
					<trkpt lat="45.633320" lon="4.455130">
						<ele>583</ele>
						<time>2026-08-28T09:01:35Z</time>
					</trkpt>
					<trkpt lat="45.633260" lon="4.455120">
						<ele>584</ele>
						<time>2026-08-28T09:01:36Z</time>
					</trkpt>
					<trkpt lat="45.633080" lon="4.455140">
						<ele>586</ele>
						<time>2026-08-28T09:01:39Z</time>
					</trkpt>
					<trkpt lat="45.632920" lon="4.455180">
						<ele>588</ele>
						<time>2026-08-28T09:01:42Z</time>
					</trkpt>
					<trkpt lat="45.632850" lon="4.455240">
						<ele>589</ele>
						<time>2026-08-28T09:01:43Z</time>
					</trkpt>
					<trkpt lat="45.632850" lon="4.454930">
						<ele>589</ele>
						<time>2026-08-28T09:01:47Z</time>
					</trkpt>
					<trkpt lat="45.632850" lon="4.454800">
						<ele>588</ele>
						<time>2026-08-28T09:01:49Z</time>
					</trkpt>
					<trkpt lat="45.632700" lon="4.454740">
						<ele>590</ele>
						<time>2026-08-28T09:01:51Z</time>
					</trkpt>
					<trkpt lat="45.632660" lon="4.454710">
						<ele>591</ele>
						<time>2026-08-28T09:01:52Z</time>
					</trkpt>
					<trkpt lat="45.632410" lon="4.454530">
						<ele>593</ele>
						<time>2026-08-28T09:01:57Z</time>
					</trkpt>
					<trkpt lat="45.632340" lon="4.454380">
						<ele>593</ele>
						<time>2026-08-28T09:02:00Z</time>
					</trkpt>
					<trkpt lat="45.632300" lon="4.454300">
						<ele>593</ele>
						<time>2026-08-28T09:02:01Z</time>
					</trkpt>
					<trkpt lat="45.632270" lon="4.454190">
						<ele>593</ele>
						<time>2026-08-28T09:02:02Z</time>
					</trkpt>
					<trkpt lat="45.632240" lon="4.454050">
						<ele>591</ele>
						<time>2026-08-28T09:02:04Z</time>
					</trkpt>
					<trkpt lat="45.632230" lon="4.453830">
						<ele>588</ele>
						<time>2026-08-28T09:02:07Z</time>
					</trkpt>
					<trkpt lat="45.632280" lon="4.453650">
						<ele>587</ele>
						<time>2026-08-28T09:02:09Z</time>
					</trkpt>
					<trkpt lat="45.632320" lon="4.453580">
						<ele>586</ele>
						<time>2026-08-28T09:02:10Z</time>
					</trkpt>
					<trkpt lat="45.632360" lon="4.453540">
						<ele>586</ele>
						<time>2026-08-28T09:02:11Z</time>
					</trkpt>
					<trkpt lat="45.632380" lon="4.453530">
						<ele>586</ele>
						<time>2026-08-28T09:02:12Z</time>
					</trkpt>
					<trkpt lat="45.632420" lon="4.453520">
						<ele>586</ele>
						<time>2026-08-28T09:02:12Z</time>
					</trkpt>
					<trkpt lat="45.632460" lon="4.453530">
						<ele>587</ele>
						<time>2026-08-28T09:02:13Z</time>
					</trkpt>
					<trkpt lat="45.632580" lon="4.453600">
						<ele>586</ele>
						<time>2026-08-28T09:02:15Z</time>
					</trkpt>
					<trkpt lat="45.632660" lon="4.453680">
						<ele>585</ele>
						<time>2026-08-28T09:02:17Z</time>
					</trkpt>
					<trkpt lat="45.632690" lon="4.453750">
						<ele>586</ele>
						<time>2026-08-28T09:02:18Z</time>
					</trkpt>
					<trkpt lat="45.632710" lon="4.453900">
						<ele>587</ele>
						<time>2026-08-28T09:02:20Z</time>
					</trkpt>
					<trkpt lat="45.632690" lon="4.454130">
						<ele>590</ele>
						<time>2026-08-28T09:02:23Z</time>
					</trkpt>
					<trkpt lat="45.632620" lon="4.454270">
						<ele>592</ele>
						<time>2026-08-28T09:02:25Z</time>
					</trkpt>
					<trkpt lat="45.632600" lon="4.454300">
						<ele>592</ele>
						<time>2026-08-28T09:02:25Z</time>
					</trkpt>
					<trkpt lat="45.632530" lon="4.454350">
						<ele>594</ele>
						<time>2026-08-28T09:02:27Z</time>
					</trkpt>
					<trkpt lat="45.632430" lon="4.454370">
						<ele>594</ele>
						<time>2026-08-28T09:02:29Z</time>
					</trkpt>
					<trkpt lat="45.632390" lon="4.454390">
						<ele>594</ele>
						<time>2026-08-28T09:02:29Z</time>
					</trkpt>
					<trkpt lat="45.632340" lon="4.454380">
						<ele>593</ele>
						<time>2026-08-28T09:02:30Z</time>
					</trkpt>
					<trkpt lat="45.632270" lon="4.454400">
						<ele>592</ele>
						<time>2026-08-28T09:02:32Z</time>
					</trkpt>
					<trkpt lat="45.632190" lon="4.454390">
						<ele>592</ele>
						<time>2026-08-28T09:02:33Z</time>
					</trkpt>
					<trkpt lat="45.631980" lon="4.454290">
						<ele>590</ele>
						<time>2026-08-28T09:02:37Z</time>
					</trkpt>
					<trkpt lat="45.631900" lon="4.454010">
						<ele>587</ele>
						<time>2026-08-28T09:02:41Z</time>
					</trkpt>
					<trkpt lat="45.631900" lon="4.453980">
						<ele>587</ele>
						<time>2026-08-28T09:02:41Z</time>
					</trkpt>
					<trkpt lat="45.631890" lon="4.453830">
						<ele>585</ele>
						<time>2026-08-28T09:02:43Z</time>
					</trkpt>
					<trkpt lat="45.631880" lon="4.453630">
						<ele>583</ele>
						<time>2026-08-28T09:02:45Z</time>
					</trkpt>
					<trkpt lat="45.631900" lon="4.453500">
						<ele>581</ele>
						<time>2026-08-28T09:02:47Z</time>
					</trkpt>
					<trkpt lat="45.631930" lon="4.453400">
						<ele>580</ele>
						<time>2026-08-28T09:02:48Z</time>
					</trkpt>
					<trkpt lat="45.631980" lon="4.453300">
						<ele>579</ele>
						<time>2026-08-28T09:02:50Z</time>
					</trkpt>
					<trkpt lat="45.632040" lon="4.453200">
						<ele>578</ele>
						<time>2026-08-28T09:02:52Z</time>
					</trkpt>
					<trkpt lat="45.632130" lon="4.453090">
						<ele>576</ele>
						<time>2026-08-28T09:02:54Z</time>
					</trkpt>
					<trkpt lat="45.632130" lon="4.453020">
						<ele>574</ele>
						<time>2026-08-28T09:02:55Z</time>
					</trkpt>
					<trkpt lat="45.632110" lon="4.452990">
						<ele>573</ele>
						<time>2026-08-28T09:02:55Z</time>
					</trkpt>
					<trkpt lat="45.632070" lon="4.452980">
						<ele>573</ele>
						<time>2026-08-28T09:02:56Z</time>
					</trkpt>
					<trkpt lat="45.632030" lon="4.453000">
						<ele>573</ele>
						<time>2026-08-28T09:02:57Z</time>
					</trkpt>
					<trkpt lat="45.631980" lon="4.453040">
						<ele>573</ele>
						<time>2026-08-28T09:02:58Z</time>
					</trkpt>
					<trkpt lat="45.631890" lon="4.453140">
						<ele>575</ele>
						<time>2026-08-28T09:03:00Z</time>
					</trkpt>
					<trkpt lat="45.631840" lon="4.453180">
						<ele>575</ele>
						<time>2026-08-28T09:03:01Z</time>
					</trkpt>
					<trkpt lat="45.631740" lon="4.453340">
						<ele>578</ele>
						<time>2026-08-28T09:03:03Z</time>
					</trkpt>
					<trkpt lat="45.631760" lon="4.453230">
						<ele>576</ele>
						<time>2026-08-28T09:03:05Z</time>
					</trkpt>
					<trkpt lat="45.631740" lon="4.453130">
						<ele>573</ele>
						<time>2026-08-28T09:03:06Z</time>
					</trkpt>
					<trkpt lat="45.631680" lon="4.453180">
						<ele>574</ele>
						<time>2026-08-28T09:03:07Z</time>
					</trkpt>
					<trkpt lat="45.631600" lon="4.453230">
						<ele>574</ele>
						<time>2026-08-28T09:03:09Z</time>
					</trkpt>
					<trkpt lat="45.631440" lon="4.453280">
						<ele>573</ele>
						<time>2026-08-28T09:03:12Z</time>
					</trkpt>
					<trkpt lat="45.631110" lon="4.453380">
						<ele>571</ele>
						<time>2026-08-28T09:03:18Z</time>
					</trkpt>
					<trkpt lat="45.630940" lon="4.453440">
						<ele>570</ele>
						<time>2026-08-28T09:03:21Z</time>
					</trkpt>
					<trkpt lat="45.630890" lon="4.453490">
						<ele>570</ele>
						<time>2026-08-28T09:03:22Z</time>
					</trkpt>
					<trkpt lat="45.630840" lon="4.453570">
						<ele>570</ele>
						<time>2026-08-28T09:03:23Z</time>
					</trkpt>
					<trkpt lat="45.630800" lon="4.453670">
						<ele>571</ele>
						<time>2026-08-28T09:03:25Z</time>
					</trkpt>
					<trkpt lat="45.630690" lon="4.454060">
						<ele>573</ele>
						<time>2026-08-28T09:03:30Z</time>
					</trkpt>
					<trkpt lat="45.630680" lon="4.454210">
						<ele>574</ele>
						<time>2026-08-28T09:03:32Z</time>
					</trkpt>
					<trkpt lat="45.630690" lon="4.454380">
						<ele>574</ele>
						<time>2026-08-28T09:03:34Z</time>
					</trkpt>
					<trkpt lat="45.630720" lon="4.454540">
						<ele>575</ele>
						<time>2026-08-28T09:03:36Z</time>
					</trkpt>
					<trkpt lat="45.630800" lon="4.455030">
						<ele>576</ele>
						<time>2026-08-28T09:03:42Z</time>
					</trkpt>
					<trkpt lat="45.630760" lon="4.455120">
						<ele>576</ele>
						<time>2026-08-28T09:03:44Z</time>
					</trkpt>
					<trkpt lat="45.630720" lon="4.455190">
						<ele>576</ele>
						<time>2026-08-28T09:03:45Z</time>
					</trkpt>
					<trkpt lat="45.630670" lon="4.455210">
						<ele>575</ele>
						<time>2026-08-28T09:03:46Z</time>
					</trkpt>
					<trkpt lat="45.630650" lon="4.455240">
						<ele>575</ele>
						<time>2026-08-28T09:03:46Z</time>
					</trkpt>
					<trkpt lat="45.630630" lon="4.455270">
						<ele>575</ele>
						<time>2026-08-28T09:03:47Z</time>
					</trkpt>
					<trkpt lat="45.630620" lon="4.455310">
						<ele>575</ele>
						<time>2026-08-28T09:03:47Z</time>
					</trkpt>
					<trkpt lat="45.630630" lon="4.455400">
						<ele>575</ele>
						<time>2026-08-28T09:03:48Z</time>
					</trkpt>
					<trkpt lat="45.630630" lon="4.455610">
						<ele>576</ele>
						<time>2026-08-28T09:03:51Z</time>
					</trkpt>
					<trkpt lat="45.630640" lon="4.455650">
						<ele>576</ele>
						<time>2026-08-28T09:03:52Z</time>
					</trkpt>
					<trkpt lat="45.630640" lon="4.455680">
						<ele>576</ele>
						<time>2026-08-28T09:03:52Z</time>
					</trkpt>
					<trkpt lat="45.630560" lon="4.456130">
						<ele>576</ele>
						<time>2026-08-28T09:03:58Z</time>
					</trkpt>
					<trkpt lat="45.630480" lon="4.456540">
						<ele>577</ele>
						<time>2026-08-28T09:04:03Z</time>
					</trkpt>
					<trkpt lat="45.630430" lon="4.456750">
						<ele>577</ele>
						<time>2026-08-28T09:04:06Z</time>
					</trkpt>
					<trkpt lat="45.630350" lon="4.457070">
						<ele>576</ele>
						<time>2026-08-28T09:04:10Z</time>
					</trkpt>
					<trkpt lat="45.630320" lon="4.457200">
						<ele>575</ele>
						<time>2026-08-28T09:04:12Z</time>
					</trkpt>
					<trkpt lat="45.630310" lon="4.457240">
						<ele>575</ele>
						<time>2026-08-28T09:04:12Z</time>
					</trkpt>
					<trkpt lat="45.630290" lon="4.457340">
						<ele>575</ele>
						<time>2026-08-28T09:04:13Z</time>
					</trkpt>
					<trkpt lat="45.629850" lon="4.458950">
						<ele>570</ele>
						<time>2026-08-28T09:04:35Z</time>
					</trkpt>
					<trkpt lat="45.629780" lon="4.459200">
						<ele>570</ele>
						<time>2026-08-28T09:04:38Z</time>
					</trkpt>
					<trkpt lat="45.629580" lon="4.460020">
						<ele>571</ele>
						<time>2026-08-28T09:04:49Z</time>
					</trkpt>
					<trkpt lat="45.629520" lon="4.460460">
						<ele>570</ele>
						<time>2026-08-28T09:04:55Z</time>
					</trkpt>
					<trkpt lat="45.629540" lon="4.460710">
						<ele>570</ele>
						<time>2026-08-28T09:04:58Z</time>
					</trkpt>
					<trkpt lat="45.629600" lon="4.460900">
						<ele>571</ele>
						<time>2026-08-28T09:05:00Z</time>
					</trkpt>
					<trkpt lat="45.629640" lon="4.460980">
						<ele>571</ele>
						<time>2026-08-28T09:05:02Z</time>
					</trkpt>
					<trkpt lat="45.629680" lon="4.461050">
						<ele>571</ele>
						<time>2026-08-28T09:05:03Z</time>
					</trkpt>
					<trkpt lat="45.629840" lon="4.461230">
						<ele>573</ele>
						<time>2026-08-28T09:05:06Z</time>
					</trkpt>
					<trkpt lat="45.630070" lon="4.461430">
						<ele>575</ele>
						<time>2026-08-28T09:05:11Z</time>
					</trkpt>
					<trkpt lat="45.630130" lon="4.461570">
						<ele>575</ele>
						<time>2026-08-28T09:05:13Z</time>
					</trkpt>
					<trkpt lat="45.630170" lon="4.461650">
						<ele>575</ele>
						<time>2026-08-28T09:05:14Z</time>
					</trkpt>
					<trkpt lat="45.630200" lon="4.461780">
						<ele>575</ele>
						<time>2026-08-28T09:05:16Z</time>
					</trkpt>
					<trkpt lat="45.630190" lon="4.462290">
						<ele>571</ele>
						<time>2026-08-28T09:05:23Z</time>
					</trkpt>
					<trkpt lat="45.630170" lon="4.462940">
						<ele>569</ele>
						<time>2026-08-28T09:05:31Z</time>
					</trkpt>
					<trkpt lat="45.630140" lon="4.463160">
						<ele>568</ele>
						<time>2026-08-28T09:05:33Z</time>
					</trkpt>
					<trkpt lat="45.630090" lon="4.463370">
						<ele>567</ele>
						<time>2026-08-28T09:05:36Z</time>
					</trkpt>
					<trkpt lat="45.630080" lon="4.463410">
						<ele>567</ele>
						<time>2026-08-28T09:05:37Z</time>
					</trkpt>
					<trkpt lat="45.629810" lon="4.464640">
						<ele>564</ele>
						<time>2026-08-28T09:05:53Z</time>
					</trkpt>
					<trkpt lat="45.629790" lon="4.464800">
						<ele>563</ele>
						<time>2026-08-28T09:05:55Z</time>
					</trkpt>
					<trkpt lat="45.629780" lon="4.465000">
						<ele>562</ele>
						<time>2026-08-28T09:05:57Z</time>
					</trkpt>
					<trkpt lat="45.629780" lon="4.465170">
						<ele>561</ele>
						<time>2026-08-28T09:05:59Z</time>
					</trkpt>
					<trkpt lat="45.629810" lon="4.465390">
						<ele>560</ele>
						<time>2026-08-28T09:06:02Z</time>
					</trkpt>
					<trkpt lat="45.629900" lon="4.465750">
						<ele>559</ele>
						<time>2026-08-28T09:06:07Z</time>
					</trkpt>
					<trkpt lat="45.630110" lon="4.466310">
						<ele>554</ele>
						<time>2026-08-28T09:06:15Z</time>
					</trkpt>
					<trkpt lat="45.630180" lon="4.466550">
						<ele>552</ele>
						<time>2026-08-28T09:06:18Z</time>
					</trkpt>
					<trkpt lat="45.630200" lon="4.466800">
						<ele>549</ele>
						<time>2026-08-28T09:06:21Z</time>
					</trkpt>
					<trkpt lat="45.630210" lon="4.467060">
						<ele>546</ele>
						<time>2026-08-28T09:06:24Z</time>
					</trkpt>
					<trkpt lat="45.630180" lon="4.467310">
						<ele>544</ele>
						<time>2026-08-28T09:06:28Z</time>
					</trkpt>
					<trkpt lat="45.630140" lon="4.467520">
						<ele>542</ele>
						<time>2026-08-28T09:06:30Z</time>
					</trkpt>
					<trkpt lat="45.630080" lon="4.467730">
						<ele>544</ele>
						<time>2026-08-28T09:06:33Z</time>
					</trkpt>
					<trkpt lat="45.629990" lon="4.467930">
						<ele>546</ele>
						<time>2026-08-28T09:06:36Z</time>
					</trkpt>
					<trkpt lat="45.629860" lon="4.468130">
						<ele>546</ele>
						<time>2026-08-28T09:06:39Z</time>
					</trkpt>
					<trkpt lat="45.629700" lon="4.468300">
						<ele>546</ele>
						<time>2026-08-28T09:06:43Z</time>
					</trkpt>
					<trkpt lat="45.628380" lon="4.469310">
						<ele>543</ele>
						<time>2026-08-28T09:07:10Z</time>
					</trkpt>
					<trkpt lat="45.627470" lon="4.470430">
						<ele>537</ele>
						<time>2026-08-28T09:07:31Z</time>
					</trkpt>
					<trkpt lat="45.627150" lon="4.470950">
						<ele>535</ele>
						<time>2026-08-28T09:07:40Z</time>
					</trkpt>
					<trkpt lat="45.626740" lon="4.471780">
						<ele>533</ele>
						<time>2026-08-28T09:07:52Z</time>
					</trkpt>
					<trkpt lat="45.626640" lon="4.471900">
						<ele>533</ele>
						<time>2026-08-28T09:07:55Z</time>
					</trkpt>
					<trkpt lat="45.626550" lon="4.472010">
						<ele>533</ele>
						<time>2026-08-28T09:07:57Z</time>
					</trkpt>
					<trkpt lat="45.626310" lon="4.472260">
						<ele>532</ele>
						<time>2026-08-28T09:08:02Z</time>
					</trkpt>
					<trkpt lat="45.626030" lon="4.472640">
						<ele>532</ele>
						<time>2026-08-28T09:08:09Z</time>
					</trkpt>
					<trkpt lat="45.625840" lon="4.473140">
						<ele>534</ele>
						<time>2026-08-28T09:08:16Z</time>
					</trkpt>
					<trkpt lat="45.625410" lon="4.474600">
						<ele>535</ele>
						<time>2026-08-28T09:08:36Z</time>
					</trkpt>
					<trkpt lat="45.625160" lon="4.475910">
						<ele>531</ele>
						<time>2026-08-28T09:08:53Z</time>
					</trkpt>
					<trkpt lat="45.624970" lon="4.476950">
						<ele>531</ele>
						<time>2026-08-28T09:09:06Z</time>
					</trkpt>
					<trkpt lat="45.624630" lon="4.478730">
						<ele>532</ele>
						<time>2026-08-28T09:09:29Z</time>
					</trkpt>
					<trkpt lat="45.624290" lon="4.480570">
						<ele>532</ele>
						<time>2026-08-28T09:09:53Z</time>
					</trkpt>
					<trkpt lat="45.624290" lon="4.480580">
						<ele>532</ele>
						<time>2026-08-28T09:09:53Z</time>
					</trkpt>
					<trkpt lat="45.623980" lon="4.482220">
						<ele>538</ele>
						<time>2026-08-28T09:10:14Z</time>
					</trkpt>
					<trkpt lat="45.623950" lon="4.482490">
						<ele>539</ele>
						<time>2026-08-28T09:10:17Z</time>
					</trkpt>
					<trkpt lat="45.623950" lon="4.482750">
						<ele>539</ele>
						<time>2026-08-28T09:10:20Z</time>
					</trkpt>
					<trkpt lat="45.623970" lon="4.482940">
						<ele>539</ele>
						<time>2026-08-28T09:10:23Z</time>
					</trkpt>
					<trkpt lat="45.624020" lon="4.483170">
						<ele>539</ele>
						<time>2026-08-28T09:10:26Z</time>
					</trkpt>
					<trkpt lat="45.624120" lon="4.483410">
						<ele>539</ele>
						<time>2026-08-28T09:10:29Z</time>
					</trkpt>
					<trkpt lat="45.624310" lon="4.483750">
						<ele>542</ele>
						<time>2026-08-28T09:10:35Z</time>
					</trkpt>
					<trkpt lat="45.624390" lon="4.483960">
						<ele>544</ele>
						<time>2026-08-28T09:10:38Z</time>
					</trkpt>
					<trkpt lat="45.624450" lon="4.484260">
						<ele>545</ele>
						<time>2026-08-28T09:10:42Z</time>
					</trkpt>
					<trkpt lat="45.624460" lon="4.484480">
						<ele>547</ele>
						<time>2026-08-28T09:10:44Z</time>
					</trkpt>
					<trkpt lat="45.624430" lon="4.484730">
						<ele>547</ele>
						<time>2026-08-28T09:10:47Z</time>
					</trkpt>
					<trkpt lat="45.624380" lon="4.484940">
						<ele>547</ele>
						<time>2026-08-28T09:10:50Z</time>
					</trkpt>
					<trkpt lat="45.624300" lon="4.485110">
						<ele>547</ele>
						<time>2026-08-28T09:10:53Z</time>
					</trkpt>
					<trkpt lat="45.624190" lon="4.485340">
						<ele>548</ele>
						<time>2026-08-28T09:10:56Z</time>
					</trkpt>
					<trkpt lat="45.623710" lon="4.486080">
						<ele>549</ele>
						<time>2026-08-28T09:11:09Z</time>
					</trkpt>
					<trkpt lat="45.623380" lon="4.486640">
						<ele>550</ele>
						<time>2026-08-28T09:11:18Z</time>
					</trkpt>
					<trkpt lat="45.623200" lon="4.486990">
						<ele>550</ele>
						<time>2026-08-28T09:11:23Z</time>
					</trkpt>
					<trkpt lat="45.623090" lon="4.487250">
						<ele>550</ele>
						<time>2026-08-28T09:11:27Z</time>
					</trkpt>
					<trkpt lat="45.622980" lon="4.487560">
						<ele>550</ele>
						<time>2026-08-28T09:11:31Z</time>
					</trkpt>
					<trkpt lat="45.622870" lon="4.488090">
						<ele>551</ele>
						<time>2026-08-28T09:11:38Z</time>
					</trkpt>
					<trkpt lat="45.622830" lon="4.488420">
						<ele>551</ele>
						<time>2026-08-28T09:11:43Z</time>
					</trkpt>
					<trkpt lat="45.622830" lon="4.488640">
						<ele>550</ele>
						<time>2026-08-28T09:11:45Z</time>
					</trkpt>
					<trkpt lat="45.622860" lon="4.488960">
						<ele>551</ele>
						<time>2026-08-28T09:11:49Z</time>
					</trkpt>
					<trkpt lat="45.622980" lon="4.489350">
						<ele>551</ele>
						<time>2026-08-28T09:11:55Z</time>
					</trkpt>
					<trkpt lat="45.623400" lon="4.490070">
						<ele>554</ele>
						<time>2026-08-28T09:12:06Z</time>
					</trkpt>
					<trkpt lat="45.623510" lon="4.490310">
						<ele>554</ele>
						<time>2026-08-28T09:12:10Z</time>
					</trkpt>
					<trkpt lat="45.623590" lon="4.490590">
						<ele>554</ele>
						<time>2026-08-28T09:12:14Z</time>
					</trkpt>
					<trkpt lat="45.623620" lon="4.490850">
						<ele>553</ele>
						<time>2026-08-28T09:12:17Z</time>
					</trkpt>
					<trkpt lat="45.623650" lon="4.492330">
						<ele>549</ele>
						<time>2026-08-28T09:12:35Z</time>
					</trkpt>
					<trkpt lat="45.623650" lon="4.493090">
						<ele>551</ele>
						<time>2026-08-28T09:12:45Z</time>
					</trkpt>
					<trkpt lat="45.623670" lon="4.493670">
						<ele>552</ele>
						<time>2026-08-28T09:12:52Z</time>
					</trkpt>
					<trkpt lat="45.623700" lon="4.494540">
						<ele>550</ele>
						<time>2026-08-28T09:13:03Z</time>
					</trkpt>
					<trkpt lat="45.623750" lon="4.494880">
						<ele>550</ele>
						<time>2026-08-28T09:13:07Z</time>
					</trkpt>
					<trkpt lat="45.623810" lon="4.495150">
						<ele>549</ele>
						<time>2026-08-28T09:13:11Z</time>
					</trkpt>
					<trkpt lat="45.623930" lon="4.495530">
						<ele>549</ele>
						<time>2026-08-28T09:13:16Z</time>
					</trkpt>
					<trkpt lat="45.624100" lon="4.496010">
						<ele>547</ele>
						<time>2026-08-28T09:13:23Z</time>
					</trkpt>
					<trkpt lat="45.624220" lon="4.496390">
						<ele>547</ele>
						<time>2026-08-28T09:13:28Z</time>
					</trkpt>
					<trkpt lat="45.624250" lon="4.496730">
						<ele>547</ele>
						<time>2026-08-28T09:13:32Z</time>
					</trkpt>
					<trkpt lat="45.624230" lon="4.496950">
						<ele>548</ele>
						<time>2026-08-28T09:13:35Z</time>
					</trkpt>
					<trkpt lat="45.624180" lon="4.497220">
						<ele>549</ele>
						<time>2026-08-28T09:13:38Z</time>
					</trkpt>
					<trkpt lat="45.624090" lon="4.497440">
						<ele>549</ele>
						<time>2026-08-28T09:13:41Z</time>
					</trkpt>
					<trkpt lat="45.623950" lon="4.497720">
						<ele>551</ele>
						<time>2026-08-28T09:13:46Z</time>
					</trkpt>
					<trkpt lat="45.623670" lon="4.498210">
						<ele>551</ele>
						<time>2026-08-28T09:13:54Z</time>
					</trkpt>
					<trkpt lat="45.623410" lon="4.498760">
						<ele>549</ele>
						<time>2026-08-28T09:14:02Z</time>
					</trkpt>
					<trkpt lat="45.623310" lon="4.499030">
						<ele>549</ele>
						<time>2026-08-28T09:14:06Z</time>
					</trkpt>
					<trkpt lat="45.623270" lon="4.499210">
						<ele>549</ele>
						<time>2026-08-28T09:14:08Z</time>
					</trkpt>
					<trkpt lat="45.623240" lon="4.499440">
						<ele>550</ele>
						<time>2026-08-28T09:14:11Z</time>
					</trkpt>
					<trkpt lat="45.623250" lon="4.499670">
						<ele>551</ele>
						<time>2026-08-28T09:14:14Z</time>
					</trkpt>
					<trkpt lat="45.623290" lon="4.499910">
						<ele>552</ele>
						<time>2026-08-28T09:14:17Z</time>
					</trkpt>
					<trkpt lat="45.623360" lon="4.500170">
						<ele>552</ele>
						<time>2026-08-28T09:14:20Z</time>
					</trkpt>
					<trkpt lat="45.623490" lon="4.500530">
						<ele>553</ele>
						<time>2026-08-28T09:14:25Z</time>
					</trkpt>
					<trkpt lat="45.623590" lon="4.500730">
						<ele>555</ele>
						<time>2026-08-28T09:14:28Z</time>
					</trkpt>
					<trkpt lat="45.623710" lon="4.500890">
						<ele>556</ele>
						<time>2026-08-28T09:14:31Z</time>
					</trkpt>
					<trkpt lat="45.623860" lon="4.501000">
						<ele>557</ele>
						<time>2026-08-28T09:14:34Z</time>
					</trkpt>
					<trkpt lat="45.624070" lon="4.501080">
						<ele>559</ele>
						<time>2026-08-28T09:14:38Z</time>
					</trkpt>
					<trkpt lat="45.624880" lon="4.501280">
						<ele>563</ele>
						<time>2026-08-28T09:14:53Z</time>
					</trkpt>
					<trkpt lat="45.625440" lon="4.501430">
						<ele>566</ele>
						<time>2026-08-28T09:15:03Z</time>
					</trkpt>
					<trkpt lat="45.626270" lon="4.501770">
						<ele>571</ele>
						<time>2026-08-28T09:15:18Z</time>
					</trkpt>
					<trkpt lat="45.626460" lon="4.501930">
						<ele>571</ele>
						<time>2026-08-28T09:15:22Z</time>
					</trkpt>
					<trkpt lat="45.626620" lon="4.502120">
						<ele>569</ele>
						<time>2026-08-28T09:15:26Z</time>
					</trkpt>
					<trkpt lat="45.626800" lon="4.502400">
						<ele>566</ele>
						<time>2026-08-28T09:15:31Z</time>
					</trkpt>
					<trkpt lat="45.626940" lon="4.502700">
						<ele>566</ele>
						<time>2026-08-28T09:15:35Z</time>
					</trkpt>
					<trkpt lat="45.627010" lon="4.502920">
						<ele>566</ele>
						<time>2026-08-28T09:15:38Z</time>
					</trkpt>
					<trkpt lat="45.627030" lon="4.503140">
						<ele>566</ele>
						<time>2026-08-28T09:15:41Z</time>
					</trkpt>
					<trkpt lat="45.627010" lon="4.503360">
						<ele>565</ele>
						<time>2026-08-28T09:15:44Z</time>
					</trkpt>
					<trkpt lat="45.626810" lon="4.504720">
						<ele>564</ele>
						<time>2026-08-28T09:16:01Z</time>
					</trkpt>
					<trkpt lat="45.626710" lon="4.505320">
						<ele>566</ele>
						<time>2026-08-28T09:16:09Z</time>
					</trkpt>
					<trkpt lat="45.626420" lon="4.506690">
						<ele>569</ele>
						<time>2026-08-28T09:16:26Z</time>
					</trkpt>
					<trkpt lat="45.626340" lon="4.507050">
						<ele>569</ele>
						<time>2026-08-28T09:16:31Z</time>
					</trkpt>
					<trkpt lat="45.626280" lon="4.507240">
						<ele>568</ele>
						<time>2026-08-28T09:16:34Z</time>
					</trkpt>
					<trkpt lat="45.626200" lon="4.507440">
						<ele>567</ele>
						<time>2026-08-28T09:16:37Z</time>
					</trkpt>
					<trkpt lat="45.626020" lon="4.507680">
						<ele>564</ele>
						<time>2026-08-28T09:16:41Z</time>
					</trkpt>
					<trkpt lat="45.625820" lon="4.508050">
						<ele>562</ele>
						<time>2026-08-28T09:16:47Z</time>
					</trkpt>
					<trkpt lat="45.625740" lon="4.508230">
						<ele>562</ele>
						<time>2026-08-28T09:16:49Z</time>
					</trkpt>
					<trkpt lat="45.625690" lon="4.508440">
						<ele>562</ele>
						<time>2026-08-28T09:16:52Z</time>
					</trkpt>
					<trkpt lat="45.625670" lon="4.508680">
						<ele>561</ele>
						<time>2026-08-28T09:16:55Z</time>
					</trkpt>
					<trkpt lat="45.625740" lon="4.509910">
						<ele>563</ele>
						<time>2026-08-28T09:17:11Z</time>
					</trkpt>
					<trkpt lat="45.625830" lon="4.511300">
						<ele>571</ele>
						<time>2026-08-28T09:17:28Z</time>
					</trkpt>
					<trkpt lat="45.625880" lon="4.511990">
						<ele>575</ele>
						<time>2026-08-28T09:17:37Z</time>
					</trkpt>
					<trkpt lat="45.625890" lon="4.512330">
						<ele>576</ele>
						<time>2026-08-28T09:17:41Z</time>
					</trkpt>
					<trkpt lat="45.625880" lon="4.512670">
						<ele>577</ele>
						<time>2026-08-28T09:17:45Z</time>
					</trkpt>
					<trkpt lat="45.625850" lon="4.513000">
						<ele>578</ele>
						<time>2026-08-28T09:17:49Z</time>
					</trkpt>
					<trkpt lat="45.625770" lon="4.513380">
						<ele>577</ele>
						<time>2026-08-28T09:17:54Z</time>
					</trkpt>
					<trkpt lat="45.625760" lon="4.513400">
						<ele>577</ele>
						<time>2026-08-28T09:17:54Z</time>
					</trkpt>
					<trkpt lat="45.625710" lon="4.513550">
						<ele>578</ele>
						<time>2026-08-28T09:17:56Z</time>
					</trkpt>
					<trkpt lat="45.625500" lon="4.513900">
						<ele>579</ele>
						<time>2026-08-28T09:18:02Z</time>
					</trkpt>
					<trkpt lat="45.624760" lon="4.514610">
						<ele>580</ele>
						<time>2026-08-28T09:18:18Z</time>
					</trkpt>
					<trkpt lat="45.624610" lon="4.514830">
						<ele>580</ele>
						<time>2026-08-28T09:18:22Z</time>
					</trkpt>
					<trkpt lat="45.624470" lon="4.515100">
						<ele>581</ele>
						<time>2026-08-28T09:18:26Z</time>
					</trkpt>
					<trkpt lat="45.624270" lon="4.515730">
						<ele>582</ele>
						<time>2026-08-28T09:18:35Z</time>
					</trkpt>
					<trkpt lat="45.624180" lon="4.516130">
						<ele>582</ele>
						<time>2026-08-28T09:18:40Z</time>
					</trkpt>
					<trkpt lat="45.624150" lon="4.516330">
						<ele>583</ele>
						<time>2026-08-28T09:18:42Z</time>
					</trkpt>
					<trkpt lat="45.624150" lon="4.516560">
						<ele>583</ele>
						<time>2026-08-28T09:18:45Z</time>
					</trkpt>
					<trkpt lat="45.624180" lon="4.516720">
						<ele>584</ele>
						<time>2026-08-28T09:18:47Z</time>
					</trkpt>
					<trkpt lat="45.624330" lon="4.517110">
						<ele>585</ele>
						<time>2026-08-28T09:18:53Z</time>
					</trkpt>
					<trkpt lat="45.624620" lon="4.517570">
						<ele>588</ele>
						<time>2026-08-28T09:19:01Z</time>
					</trkpt>
					<trkpt lat="45.624760" lon="4.517900">
						<ele>588</ele>
						<time>2026-08-28T09:19:05Z</time>
					</trkpt>
					<trkpt lat="45.624860" lon="4.518330">
						<ele>587</ele>
						<time>2026-08-28T09:19:11Z</time>
					</trkpt>
					<trkpt lat="45.624910" lon="4.518640">
						<ele>586</ele>
						<time>2026-08-28T09:19:15Z</time>
					</trkpt>
					<trkpt lat="45.624990" lon="4.518970">
						<ele>585</ele>
						<time>2026-08-28T09:19:19Z</time>
					</trkpt>
					<trkpt lat="45.625120" lon="4.519350">
						<ele>585</ele>
						<time>2026-08-28T09:19:25Z</time>
					</trkpt>
					<trkpt lat="45.625280" lon="4.519600">
						<ele>585</ele>
						<time>2026-08-28T09:19:29Z</time>
					</trkpt>
					<trkpt lat="45.625560" lon="4.519810">
						<ele>587</ele>
						<time>2026-08-28T09:19:35Z</time>
					</trkpt>
					<trkpt lat="45.625840" lon="4.519940">
						<ele>590</ele>
						<time>2026-08-28T09:19:40Z</time>
					</trkpt>
					<trkpt lat="45.626060" lon="4.520160">
						<ele>592</ele>
						<time>2026-08-28T09:19:45Z</time>
					</trkpt>
					<trkpt lat="45.626270" lon="4.520460">
						<ele>593</ele>
						<time>2026-08-28T09:19:50Z</time>
					</trkpt>
					<trkpt lat="45.626720" lon="4.521250">
						<ele>594</ele>
						<time>2026-08-28T09:20:02Z</time>
					</trkpt>
					<trkpt lat="45.626870" lon="4.521600">
						<ele>593</ele>
						<time>2026-08-28T09:20:08Z</time>
					</trkpt>
					<trkpt lat="45.627170" lon="4.522660">
						<ele>590</ele>
						<time>2026-08-28T09:20:22Z</time>
					</trkpt>
					<trkpt lat="45.627320" lon="4.523090">
						<ele>588</ele>
						<time>2026-08-28T09:20:28Z</time>
					</trkpt>
					<trkpt lat="45.628060" lon="4.524000">
						<ele>589</ele>
						<time>2026-08-28T09:20:45Z</time>
					</trkpt>
					<trkpt lat="45.628180" lon="4.524360">
						<ele>587</ele>
						<time>2026-08-28T09:20:50Z</time>
					</trkpt>
					<trkpt lat="45.628240" lon="4.524640">
						<ele>585</ele>
						<time>2026-08-28T09:20:54Z</time>
					</trkpt>
					<trkpt lat="45.628270" lon="4.524870">
						<ele>583</ele>
						<time>2026-08-28T09:20:57Z</time>
					</trkpt>
					<trkpt lat="45.628270" lon="4.525090">
						<ele>582</ele>
						<time>2026-08-28T09:20:59Z</time>
					</trkpt>
					<trkpt lat="45.628260" lon="4.525170">
						<ele>583</ele>
						<time>2026-08-28T09:21:00Z</time>
					</trkpt>
					<trkpt lat="45.628250" lon="4.525270">
						<ele>583</ele>
						<time>2026-08-28T09:21:02Z</time>
					</trkpt>
					<trkpt lat="45.628220" lon="4.525430">
						<ele>584</ele>
						<time>2026-08-28T09:21:04Z</time>
					</trkpt>
					<trkpt lat="45.628170" lon="4.525630">
						<ele>584</ele>
						<time>2026-08-28T09:21:06Z</time>
					</trkpt>
					<trkpt lat="45.627850" lon="4.526980">
						<ele>591</ele>
						<time>2026-08-28T09:21:24Z</time>
					</trkpt>
					<trkpt lat="45.627540" lon="4.527920">
						<ele>589</ele>
						<time>2026-08-28T09:21:37Z</time>
					</trkpt>
					<trkpt lat="45.627370" lon="4.528570">
						<ele>589</ele>
						<time>2026-08-28T09:21:46Z</time>
					</trkpt>
					<trkpt lat="45.627230" lon="4.529190">
						<ele>589</ele>
						<time>2026-08-28T09:21:54Z</time>
					</trkpt>
					<trkpt lat="45.627220" lon="4.529350">
						<ele>589</ele>
						<time>2026-08-28T09:21:56Z</time>
					</trkpt>
					<trkpt lat="45.627230" lon="4.529590">
						<ele>589</ele>
						<time>2026-08-28T09:21:59Z</time>
					</trkpt>
					<trkpt lat="45.627280" lon="4.529930">
						<ele>589</ele>
						<time>2026-08-28T09:22:03Z</time>
					</trkpt>
					<trkpt lat="45.627360" lon="4.530230">
						<ele>589</ele>
						<time>2026-08-28T09:22:07Z</time>
					</trkpt>
					<trkpt lat="45.627470" lon="4.530430">
						<ele>589</ele>
						<time>2026-08-28T09:22:10Z</time>
					</trkpt>
					<trkpt lat="45.627700" lon="4.530650">
						<ele>591</ele>
						<time>2026-08-28T09:22:15Z</time>
					</trkpt>
					<trkpt lat="45.628040" lon="4.530860">
						<ele>594</ele>
						<time>2026-08-28T09:22:22Z</time>
					</trkpt>
					<trkpt lat="45.628200" lon="4.531060">
						<ele>595</ele>
						<time>2026-08-28T09:22:26Z</time>
					</trkpt>
					<trkpt lat="45.628300" lon="4.531300">
						<ele>594</ele>
						<time>2026-08-28T09:22:29Z</time>
					</trkpt>
					<trkpt lat="45.628350" lon="4.531560">
						<ele>593</ele>
						<time>2026-08-28T09:22:32Z</time>
					</trkpt>
					<trkpt lat="45.628350" lon="4.531840">
						<ele>593</ele>
						<time>2026-08-28T09:22:36Z</time>
					</trkpt>
					<trkpt lat="45.628290" lon="4.532140">
						<ele>592</ele>
						<time>2026-08-28T09:22:40Z</time>
					</trkpt>
					<trkpt lat="45.627260" lon="4.536100">
						<ele>597</ele>
						<time>2026-08-28T09:23:32Z</time>
					</trkpt>
					<trkpt lat="45.627040" lon="4.536960">
						<ele>599</ele>
						<time>2026-08-28T09:23:44Z</time>
					</trkpt>
					<trkpt lat="45.626950" lon="4.537230">
						<ele>600</ele>
						<time>2026-08-28T09:23:47Z</time>
					</trkpt>
					<trkpt lat="45.626860" lon="4.537470">
						<ele>601</ele>
						<time>2026-08-28T09:23:51Z</time>
					</trkpt>
					<trkpt lat="45.626750" lon="4.537650">
						<ele>602</ele>
						<time>2026-08-28T09:23:54Z</time>
					</trkpt>
					<trkpt lat="45.626260" lon="4.538420">
						<ele>605</ele>
						<time>2026-08-28T09:24:07Z</time>
					</trkpt>
					<trkpt lat="45.626230" lon="4.538470">
						<ele>605</ele>
						<time>2026-08-28T09:24:08Z</time>
					</trkpt>
					<trkpt lat="45.626090" lon="4.538820">
						<ele>606</ele>
						<time>2026-08-28T09:24:13Z</time>
					</trkpt>
					<trkpt lat="45.626050" lon="4.538950">
						<ele>607</ele>
						<time>2026-08-28T09:24:14Z</time>
					</trkpt>
					<trkpt lat="45.626010" lon="4.539200">
						<ele>608</ele>
						<time>2026-08-28T09:24:18Z</time>
					</trkpt>
					<trkpt lat="45.625990" lon="4.539370">
						<ele>608</ele>
						<time>2026-08-28T09:24:20Z</time>
					</trkpt>
					<trkpt lat="45.626000" lon="4.539650">
						<ele>609</ele>
						<time>2026-08-28T09:24:23Z</time>
					</trkpt>
					<trkpt lat="45.626050" lon="4.539980">
						<ele>611</ele>
						<time>2026-08-28T09:24:27Z</time>
					</trkpt>
					<trkpt lat="45.626140" lon="4.540350">
						<ele>612</ele>
						<time>2026-08-28T09:24:32Z</time>
					</trkpt>
					<trkpt lat="45.626450" lon="4.541340">
						<ele>617</ele>
						<time>2026-08-28T09:24:46Z</time>
					</trkpt>
					<trkpt lat="45.626770" lon="4.543510">
						<ele>620</ele>
						<time>2026-08-28T09:25:13Z</time>
					</trkpt>
					<trkpt lat="45.626930" lon="4.543910">
						<ele>620</ele>
						<time>2026-08-28T09:25:19Z</time>
					</trkpt>
					<trkpt lat="45.627300" lon="4.544670">
						<ele>619</ele>
						<time>2026-08-28T09:25:31Z</time>
					</trkpt>
					<trkpt lat="45.627460" lon="4.545170">
						<ele>615</ele>
						<time>2026-08-28T09:25:37Z</time>
					</trkpt>
					<trkpt lat="45.627760" lon="4.546620">
						<ele>616</ele>
						<time>2026-08-28T09:25:56Z</time>
					</trkpt>
					<trkpt lat="45.627750" lon="4.547150">
						<ele>619</ele>
						<time>2026-08-28T09:26:03Z</time>
					</trkpt>
					<trkpt lat="45.627670" lon="4.547400">
						<ele>619</ele>
						<time>2026-08-28T09:26:06Z</time>
					</trkpt>
					<trkpt lat="45.627600" lon="4.547640">
						<ele>620</ele>
						<time>2026-08-28T09:26:10Z</time>
					</trkpt>
					<trkpt lat="45.626840" lon="4.548950">
						<ele>623</ele>
						<time>2026-08-28T09:26:31Z</time>
					</trkpt>
					<trkpt lat="45.626010" lon="4.550840">
						<ele>623</ele>
						<time>2026-08-28T09:26:58Z</time>
					</trkpt>
					<trkpt lat="45.625780" lon="4.551520">
						<ele>625</ele>
						<time>2026-08-28T09:27:08Z</time>
					</trkpt>
					<trkpt lat="45.625360" lon="4.552970">
						<ele>623</ele>
						<time>2026-08-28T09:27:27Z</time>
					</trkpt>
					<trkpt lat="45.625310" lon="4.553110">
						<ele>622</ele>
						<time>2026-08-28T09:27:29Z</time>
					</trkpt>
					<trkpt lat="45.625270" lon="4.553210">
						<ele>622</ele>
						<time>2026-08-28T09:27:31Z</time>
					</trkpt>
					<trkpt lat="45.625160" lon="4.553400">
						<ele>622</ele>
						<time>2026-08-28T09:27:34Z</time>
					</trkpt>
					<trkpt lat="45.625060" lon="4.553510">
						<ele>622</ele>
						<time>2026-08-28T09:27:36Z</time>
					</trkpt>
					<trkpt lat="45.624990" lon="4.553540">
						<ele>623</ele>
						<time>2026-08-28T09:27:37Z</time>
					</trkpt>
					<trkpt lat="45.624910" lon="4.553570">
						<ele>623</ele>
						<time>2026-08-28T09:27:39Z</time>
					</trkpt>
					<trkpt lat="45.624840" lon="4.553580">
						<ele>624</ele>
						<time>2026-08-28T09:27:40Z</time>
					</trkpt>
					<trkpt lat="45.624670" lon="4.553580">
						<ele>625</ele>
						<time>2026-08-28T09:27:43Z</time>
					</trkpt>
					<trkpt lat="45.624480" lon="4.553610">
						<ele>626</ele>
						<time>2026-08-28T09:27:47Z</time>
					</trkpt>
					<trkpt lat="45.624260" lon="4.553680">
						<ele>628</ele>
						<time>2026-08-28T09:27:51Z</time>
					</trkpt>
					<trkpt lat="45.624060" lon="4.553770">
						<ele>629</ele>
						<time>2026-08-28T09:27:54Z</time>
					</trkpt>
					<trkpt lat="45.621260" lon="4.555040">
						<ele>632</ele>
						<time>2026-08-28T09:28:47Z</time>
					</trkpt>
					<trkpt lat="45.621010" lon="4.555110">
						<ele>634</ele>
						<time>2026-08-28T09:28:51Z</time>
					</trkpt>
					<trkpt lat="45.620750" lon="4.555120">
						<ele>637</ele>
						<time>2026-08-28T09:28:56Z</time>
					</trkpt>
					<trkpt lat="45.620700" lon="4.555110">
						<ele>638</ele>
						<time>2026-08-28T09:28:57Z</time>
					</trkpt>
					<trkpt lat="45.620530" lon="4.555080">
						<ele>641</ele>
						<time>2026-08-28T09:29:00Z</time>
					</trkpt>
					<trkpt lat="45.620330" lon="4.554970">
						<ele>644</ele>
						<time>2026-08-28T09:29:03Z</time>
					</trkpt>
					<trkpt lat="45.620010" lon="4.554700">
						<ele>647</ele>
						<time>2026-08-28T09:29:10Z</time>
					</trkpt>
					<trkpt lat="45.619840" lon="4.554480">
						<ele>648</ele>
						<time>2026-08-28T09:29:14Z</time>
					</trkpt>
					<trkpt lat="45.619710" lon="4.554240">
						<ele>648</ele>
						<time>2026-08-28T09:29:18Z</time>
					</trkpt>
					<trkpt lat="45.619380" lon="4.553590">
						<ele>648</ele>
						<time>2026-08-28T09:29:28Z</time>
					</trkpt>
					<trkpt lat="45.619260" lon="4.553360">
						<ele>647</ele>
						<time>2026-08-28T09:29:32Z</time>
					</trkpt>
					<trkpt lat="45.619130" lon="4.553210">
						<ele>647</ele>
						<time>2026-08-28T09:29:34Z</time>
					</trkpt>
					<trkpt lat="45.618950" lon="4.553110">
						<ele>647</ele>
						<time>2026-08-28T09:29:38Z</time>
					</trkpt>
					<trkpt lat="45.618800" lon="4.553070">
						<ele>648</ele>
						<time>2026-08-28T09:29:41Z</time>
					</trkpt>
					<trkpt lat="45.618640" lon="4.553090">
						<ele>649</ele>
						<time>2026-08-28T09:29:44Z</time>
					</trkpt>
					<trkpt lat="45.618490" lon="4.553130">
						<ele>650</ele>
						<time>2026-08-28T09:29:46Z</time>
					</trkpt>
					<trkpt lat="45.618380" lon="4.553200">
						<ele>651</ele>
						<time>2026-08-28T09:29:48Z</time>
					</trkpt>
					<trkpt lat="45.618010" lon="4.553520">
						<ele>654</ele>
						<time>2026-08-28T09:29:56Z</time>
					</trkpt>
					<trkpt lat="45.617760" lon="4.553710">
						<ele>657</ele>
						<time>2026-08-28T09:30:01Z</time>
					</trkpt>
					<trkpt lat="45.617430" lon="4.553810">
						<ele>658</ele>
						<time>2026-08-28T09:30:07Z</time>
					</trkpt>
					<trkpt lat="45.617110" lon="4.553810">
						<ele>656</ele>
						<time>2026-08-28T09:30:13Z</time>
					</trkpt>
					<trkpt lat="45.616540" lon="4.553940">
						<ele>655</ele>
						<time>2026-08-28T09:30:23Z</time>
					</trkpt>
					<trkpt lat="45.616250" lon="4.554020">
						<ele>655</ele>
						<time>2026-08-28T09:30:28Z</time>
					</trkpt>
					<trkpt lat="45.616020" lon="4.554200">
						<ele>655</ele>
						<time>2026-08-28T09:30:33Z</time>
					</trkpt>
					<trkpt lat="45.615810" lon="4.554450">
						<ele>657</ele>
						<time>2026-08-28T09:30:38Z</time>
					</trkpt>
					<trkpt lat="45.615690" lon="4.554690">
						<ele>659</ele>
						<time>2026-08-28T09:30:42Z</time>
					</trkpt>
					<trkpt lat="45.615560" lon="4.555000">
						<ele>660</ele>
						<time>2026-08-28T09:30:46Z</time>
					</trkpt>
					<trkpt lat="45.615400" lon="4.555550">
						<ele>663</ele>
						<time>2026-08-28T09:30:53Z</time>
					</trkpt>
					<trkpt lat="45.615340" lon="4.555730">
						<ele>662</ele>
						<time>2026-08-28T09:30:56Z</time>
					</trkpt>
					<trkpt lat="45.615270" lon="4.555900">
						<ele>662</ele>
						<time>2026-08-28T09:30:58Z</time>
					</trkpt>
					<trkpt lat="45.615100" lon="4.556250">
						<ele>660</ele>
						<time>2026-08-28T09:31:04Z</time>
					</trkpt>
					<trkpt lat="45.614910" lon="4.556580">
						<ele>660</ele>
						<time>2026-08-28T09:31:09Z</time>
					</trkpt>
					<trkpt lat="45.614670" lon="4.556930">
						<ele>661</ele>
						<time>2026-08-28T09:31:15Z</time>
					</trkpt>
					<trkpt lat="45.614530" lon="4.557090">
						<ele>660</ele>
						<time>2026-08-28T09:31:18Z</time>
					</trkpt>
					<trkpt lat="45.614350" lon="4.557240">
						<ele>659</ele>
						<time>2026-08-28T09:31:22Z</time>
					</trkpt>
					<trkpt lat="45.614180" lon="4.557350">
						<ele>658</ele>
						<time>2026-08-28T09:31:25Z</time>
					</trkpt>
					<trkpt lat="45.613940" lon="4.557430">
						<ele>656</ele>
						<time>2026-08-28T09:31:30Z</time>
					</trkpt>
					<trkpt lat="45.613720" lon="4.557540">
						<ele>655</ele>
						<time>2026-08-28T09:31:34Z</time>
					</trkpt>
					<trkpt lat="45.613610" lon="4.557670">
						<ele>655</ele>
						<time>2026-08-28T09:31:36Z</time>
					</trkpt>
					<trkpt lat="45.613100" lon="4.558300">
						<ele>654</ele>
						<time>2026-08-28T09:31:48Z</time>
					</trkpt>
					<trkpt lat="45.612750" lon="4.558530">
						<ele>654</ele>
						<time>2026-08-28T09:31:55Z</time>
					</trkpt>
					<trkpt lat="45.612660" lon="4.558570">
						<ele>654</ele>
						<time>2026-08-28T09:31:57Z</time>
					</trkpt>
					<trkpt lat="45.612520" lon="4.558600">
						<ele>654</ele>
						<time>2026-08-28T09:31:59Z</time>
					</trkpt>
					<trkpt lat="45.612290" lon="4.558600">
						<ele>655</ele>
						<time>2026-08-28T09:32:04Z</time>
					</trkpt>
					<trkpt lat="45.612180" lon="4.558600">
						<ele>656</ele>
						<time>2026-08-28T09:32:05Z</time>
					</trkpt>
					<trkpt lat="45.611860" lon="4.558500">
						<ele>657</ele>
						<time>2026-08-28T09:32:11Z</time>
					</trkpt>
					<trkpt lat="45.610890" lon="4.557820">
						<ele>658</ele>
						<time>2026-08-28T09:32:31Z</time>
					</trkpt>
					<trkpt lat="45.610750" lon="4.557760">
						<ele>658</ele>
						<time>2026-08-28T09:32:33Z</time>
					</trkpt>
					<trkpt lat="45.610560" lon="4.557730">
						<ele>658</ele>
						<time>2026-08-28T09:32:37Z</time>
					</trkpt>
					<trkpt lat="45.610370" lon="4.557720">
						<ele>658</ele>
						<time>2026-08-28T09:32:40Z</time>
					</trkpt>
					<trkpt lat="45.609850" lon="4.557840">
						<ele>659</ele>
						<time>2026-08-28T09:32:49Z</time>
					</trkpt>
					<trkpt lat="45.607170" lon="4.558610">
						<ele>665</ele>
						<time>2026-08-28T09:33:38Z</time>
					</trkpt>
					<trkpt lat="45.606960" lon="4.558650">
						<ele>665</ele>
						<time>2026-08-28T09:33:42Z</time>
					</trkpt>
					<trkpt lat="45.606270" lon="4.558660">
						<ele>665</ele>
						<time>2026-08-28T09:33:54Z</time>
					</trkpt>
					<trkpt lat="45.606120" lon="4.558700">
						<ele>665</ele>
						<time>2026-08-28T09:33:57Z</time>
					</trkpt>
					<trkpt lat="45.605950" lon="4.558780">
						<ele>665</ele>
						<time>2026-08-28T09:34:00Z</time>
					</trkpt>
					<trkpt lat="45.605370" lon="4.559290">
						<ele>669</ele>
						<time>2026-08-28T09:34:12Z</time>
					</trkpt>
					<trkpt lat="45.604840" lon="4.559730">
						<ele>674</ele>
						<time>2026-08-28T09:34:23Z</time>
					</trkpt>
					<trkpt lat="45.604670" lon="4.559900">
						<ele>674</ele>
						<time>2026-08-28T09:34:27Z</time>
					</trkpt>
					<trkpt lat="45.604070" lon="4.560750">
						<ele>673</ele>
						<time>2026-08-28T09:34:42Z</time>
					</trkpt>
					<trkpt lat="45.603710" lon="4.561170">
						<ele>674</ele>
						<time>2026-08-28T09:34:50Z</time>
					</trkpt>
					<trkpt lat="45.602590" lon="4.561990">
						<ele>674</ele>
						<time>2026-08-28T09:35:12Z</time>
					</trkpt>
					<trkpt lat="45.602350" lon="4.562200">
						<ele>674</ele>
						<time>2026-08-28T09:35:17Z</time>
					</trkpt>
					<trkpt lat="45.602240" lon="4.562340">
						<ele>675</ele>
						<time>2026-08-28T09:35:20Z</time>
					</trkpt>
					<trkpt lat="45.602090" lon="4.562540">
						<ele>676</ele>
						<time>2026-08-28T09:35:24Z</time>
					</trkpt>
					<trkpt lat="45.601870" lon="4.562930">
						<ele>677</ele>
						<time>2026-08-28T09:35:30Z</time>
					</trkpt>
					<trkpt lat="45.601270" lon="4.564560">
						<ele>682</ele>
						<time>2026-08-28T09:35:53Z</time>
					</trkpt>
					<trkpt lat="45.601120" lon="4.564850">
						<ele>683</ele>
						<time>2026-08-28T09:35:57Z</time>
					</trkpt>
					<trkpt lat="45.600740" lon="4.565640">
						<ele>684</ele>
						<time>2026-08-28T09:36:09Z</time>
					</trkpt>
					<trkpt lat="45.600530" lon="4.566160">
						<ele>686</ele>
						<time>2026-08-28T09:36:17Z</time>
					</trkpt>
					<trkpt lat="45.600450" lon="4.566450">
						<ele>688</ele>
						<time>2026-08-28T09:36:20Z</time>
					</trkpt>
					<trkpt lat="45.600380" lon="4.566690">
						<ele>689</ele>
						<time>2026-08-28T09:36:24Z</time>
					</trkpt>
					<trkpt lat="45.600270" lon="4.567030">
						<ele>689</ele>
						<time>2026-08-28T09:36:28Z</time>
					</trkpt>
					<trkpt lat="45.600210" lon="4.567250">
						<ele>690</ele>
						<time>2026-08-28T09:36:31Z</time>
					</trkpt>
					<trkpt lat="45.599620" lon="4.569270">
						<ele>699</ele>
						<time>2026-08-28T09:36:59Z</time>
					</trkpt>
					<trkpt lat="45.599490" lon="4.569710">
						<ele>700</ele>
						<time>2026-08-28T09:37:05Z</time>
					</trkpt>
					<trkpt lat="45.599470" lon="4.569990">
						<ele>701</ele>
						<time>2026-08-28T09:37:08Z</time>
					</trkpt>
					<trkpt lat="45.599470" lon="4.570170">
						<ele>701</ele>
						<time>2026-08-28T09:37:10Z</time>
					</trkpt>
					<trkpt lat="45.599540" lon="4.570410">
						<ele>701</ele>
						<time>2026-08-28T09:37:13Z</time>
					</trkpt>
					<trkpt lat="45.599590" lon="4.570490">
						<ele>701</ele>
						<time>2026-08-28T09:37:15Z</time>
					</trkpt>
					<trkpt lat="45.599650" lon="4.570600">
						<ele>702</ele>
						<time>2026-08-28T09:37:17Z</time>
					</trkpt>
					<trkpt lat="45.599690" lon="4.570680">
						<ele>702</ele>
						<time>2026-08-28T09:37:18Z</time>
					</trkpt>
					<trkpt lat="45.599730" lon="4.570970">
						<ele>701</ele>
						<time>2026-08-28T09:37:21Z</time>
					</trkpt>
					<trkpt lat="45.599810" lon="4.571460">
						<ele>700</ele>
						<time>2026-08-28T09:37:28Z</time>
					</trkpt>
					<trkpt lat="45.599880" lon="4.572000">
						<ele>700</ele>
						<time>2026-08-28T09:37:35Z</time>
					</trkpt>
					<trkpt lat="45.599910" lon="4.572180">
						<ele>700</ele>
						<time>2026-08-28T09:37:37Z</time>
					</trkpt>
					<trkpt lat="45.599930" lon="4.572340">
						<ele>700</ele>
						<time>2026-08-28T09:37:39Z</time>
					</trkpt>
					<trkpt lat="45.599950" lon="4.572480">
						<ele>700</ele>
						<time>2026-08-28T09:37:41Z</time>
					</trkpt>
					<trkpt lat="45.600030" lon="4.573270">
						<ele>699</ele>
						<time>2026-08-28T09:37:51Z</time>
					</trkpt>
					<trkpt lat="45.600280" lon="4.575140">
						<ele>697</ele>
						<time>2026-08-28T09:38:14Z</time>
					</trkpt>
					<trkpt lat="45.600350" lon="4.575460">
						<ele>695</ele>
						<time>2026-08-28T09:38:18Z</time>
					</trkpt>
					<trkpt lat="45.600450" lon="4.575800">
						<ele>695</ele>
						<time>2026-08-28T09:38:23Z</time>
					</trkpt>
					<trkpt lat="45.600520" lon="4.575970">
						<ele>695</ele>
						<time>2026-08-28T09:38:26Z</time>
					</trkpt>
					<trkpt lat="45.600610" lon="4.576140">
						<ele>695</ele>
						<time>2026-08-28T09:38:28Z</time>
					</trkpt>
					<trkpt lat="45.600980" lon="4.576580">
						<ele>703</ele>
						<time>2026-08-28T09:38:37Z</time>
					</trkpt>
					<trkpt lat="45.601060" lon="4.576760">
						<ele>703</ele>
						<time>2026-08-28T09:38:39Z</time>
					</trkpt>
					<trkpt lat="45.601240" lon="4.577330">
						<ele>702</ele>
						<time>2026-08-28T09:38:47Z</time>
					</trkpt>
					<trkpt lat="45.601280" lon="4.577600">
						<ele>702</ele>
						<time>2026-08-28T09:38:51Z</time>
					</trkpt>
					<trkpt lat="45.601300" lon="4.577820">
						<ele>704</ele>
						<time>2026-08-28T09:38:53Z</time>
					</trkpt>
					<trkpt lat="45.601290" lon="4.577980">
						<ele>704</ele>
						<time>2026-08-28T09:38:55Z</time>
					</trkpt>
					<trkpt lat="45.601230" lon="4.578160">
						<ele>702</ele>
						<time>2026-08-28T09:38:58Z</time>
					</trkpt>
					<trkpt lat="45.601170" lon="4.578310">
						<ele>700</ele>
						<time>2026-08-28T09:39:00Z</time>
					</trkpt>
					<trkpt lat="45.600880" lon="4.578790">
						<ele>696</ele>
						<time>2026-08-28T09:39:08Z</time>
					</trkpt>
					<trkpt lat="45.600790" lon="4.579020">
						<ele>696</ele>
						<time>2026-08-28T09:39:11Z</time>
					</trkpt>
					<trkpt lat="45.600750" lon="4.579210">
						<ele>697</ele>
						<time>2026-08-28T09:39:14Z</time>
					</trkpt>
					<trkpt lat="45.600750" lon="4.579390">
						<ele>697</ele>
						<time>2026-08-28T09:39:16Z</time>
					</trkpt>
					<trkpt lat="45.600760" lon="4.579650">
						<ele>699</ele>
						<time>2026-08-28T09:39:19Z</time>
					</trkpt>
					<trkpt lat="45.600800" lon="4.580160">
						<ele>703</ele>
						<time>2026-08-28T09:39:26Z</time>
					</trkpt>
					<trkpt lat="45.600810" lon="4.580400">
						<ele>702</ele>
						<time>2026-08-28T09:39:29Z</time>
					</trkpt>
					<trkpt lat="45.600810" lon="4.580580">
						<ele>702</ele>
						<time>2026-08-28T09:39:31Z</time>
					</trkpt>
					<trkpt lat="45.600760" lon="4.582250">
						<ele>700</ele>
						<time>2026-08-28T09:39:52Z</time>
					</trkpt>
					<trkpt lat="45.600830" lon="4.583320">
						<ele>698</ele>
						<time>2026-08-28T09:40:05Z</time>
					</trkpt>
					<trkpt lat="45.601170" lon="4.585130">
						<ele>696</ele>
						<time>2026-08-28T09:40:28Z</time>
					</trkpt>
					<trkpt lat="45.601190" lon="4.585210">
						<ele>696</ele>
						<time>2026-08-28T09:40:29Z</time>
					</trkpt>
					<trkpt lat="45.601240" lon="4.585390">
						<ele>695</ele>
						<time>2026-08-28T09:40:32Z</time>
					</trkpt>
					<trkpt lat="45.601330" lon="4.585600">
						<ele>695</ele>
						<time>2026-08-28T09:40:35Z</time>
					</trkpt>
					<trkpt lat="45.601570" lon="4.586010">
						<ele>698</ele>
						<time>2026-08-28T09:40:41Z</time>
					</trkpt>
					<trkpt lat="45.601630" lon="4.586190">
						<ele>699</ele>
						<time>2026-08-28T09:40:44Z</time>
					</trkpt>
					<trkpt lat="45.601640" lon="4.586240">
						<ele>699</ele>
						<time>2026-08-28T09:40:45Z</time>
					</trkpt>
					<trkpt lat="45.601650" lon="4.586410">
						<ele>699</ele>
						<time>2026-08-28T09:40:47Z</time>
					</trkpt>
					<trkpt lat="45.601710" lon="4.586450">
						<ele>701</ele>
						<time>2026-08-28T09:40:48Z</time>
					</trkpt>
					<trkpt lat="45.601760" lon="4.586530">
						<ele>702</ele>
						<time>2026-08-28T09:40:49Z</time>
					</trkpt>
					<trkpt lat="45.601810" lon="4.586660">
						<ele>703</ele>
						<time>2026-08-28T09:40:51Z</time>
					</trkpt>
					<trkpt lat="45.601820" lon="4.586790">
						<ele>704</ele>
						<time>2026-08-28T09:40:53Z</time>
					</trkpt>
					<trkpt lat="45.601810" lon="4.586930">
						<ele>705</ele>
						<time>2026-08-28T09:40:54Z</time>
					</trkpt>
					<trkpt lat="45.601790" lon="4.587300">
						<ele>707</ele>
						<time>2026-08-28T09:40:59Z</time>
					</trkpt>
					<trkpt lat="45.601760" lon="4.587500">
						<ele>708</ele>
						<time>2026-08-28T09:41:02Z</time>
					</trkpt>
					<trkpt lat="45.601720" lon="4.587650">
						<ele>708</ele>
						<time>2026-08-28T09:41:04Z</time>
					</trkpt>
					<trkpt lat="45.601660" lon="4.587810">
						<ele>708</ele>
						<time>2026-08-28T09:41:06Z</time>
					</trkpt>
					<trkpt lat="45.601580" lon="4.587930">
						<ele>708</ele>
						<time>2026-08-28T09:41:08Z</time>
					</trkpt>
					<trkpt lat="45.601530" lon="4.588070">
						<ele>709</ele>
						<time>2026-08-28T09:41:10Z</time>
					</trkpt>
					<trkpt lat="45.601430" lon="4.588440">
						<ele>711</ele>
						<time>2026-08-28T09:41:15Z</time>
					</trkpt>
					<trkpt lat="45.601390" lon="4.588680">
						<ele>712</ele>
						<time>2026-08-28T09:41:18Z</time>
					</trkpt>
					<trkpt lat="45.601340" lon="4.588940">
						<ele>712</ele>
						<time>2026-08-28T09:41:21Z</time>
					</trkpt>
					<trkpt lat="45.601330" lon="4.589040">
						<ele>712</ele>
						<time>2026-08-28T09:41:23Z</time>
					</trkpt>
					<trkpt lat="45.601310" lon="4.589260">
						<ele>712</ele>
						<time>2026-08-28T09:41:25Z</time>
					</trkpt>
					<trkpt lat="45.601310" lon="4.589330">
						<ele>711</ele>
						<time>2026-08-28T09:41:26Z</time>
					</trkpt>
					<trkpt lat="45.601330" lon="4.589450">
						<ele>710</ele>
						<time>2026-08-28T09:41:28Z</time>
					</trkpt>
					<trkpt lat="45.601380" lon="4.589590">
						<ele>709</ele>
						<time>2026-08-28T09:41:30Z</time>
					</trkpt>
					<trkpt lat="45.601430" lon="4.589700">
						<ele>709</ele>
						<time>2026-08-28T09:41:31Z</time>
					</trkpt>
					<trkpt lat="45.601780" lon="4.590240">
						<ele>706</ele>
						<time>2026-08-28T09:41:40Z</time>
					</trkpt>
					<trkpt lat="45.601850" lon="4.590390">
						<ele>706</ele>
						<time>2026-08-28T09:41:43Z</time>
					</trkpt>
					<trkpt lat="45.602140" lon="4.591130">
						<ele>701</ele>
						<time>2026-08-28T09:41:53Z</time>
					</trkpt>
					<trkpt lat="45.602260" lon="4.591310">
						<ele>700</ele>
						<time>2026-08-28T09:41:56Z</time>
					</trkpt>
					<trkpt lat="45.602380" lon="4.591430">
						<ele>700</ele>
						<time>2026-08-28T09:41:59Z</time>
					</trkpt>
					<trkpt lat="45.602670" lon="4.591650">
						<ele>702</ele>
						<time>2026-08-28T09:42:05Z</time>
					</trkpt>
					<trkpt lat="45.602740" lon="4.591730">
						<ele>702</ele>
						<time>2026-08-28T09:42:06Z</time>
					</trkpt>
					<trkpt lat="45.602800" lon="4.591810">
						<ele>703</ele>
						<time>2026-08-28T09:42:08Z</time>
					</trkpt>
					<trkpt lat="45.602830" lon="4.591900">
						<ele>702</ele>
						<time>2026-08-28T09:42:09Z</time>
					</trkpt>
					<trkpt lat="45.602850" lon="4.592020">
						<ele>701</ele>
						<time>2026-08-28T09:42:11Z</time>
					</trkpt>
					<trkpt lat="45.602890" lon="4.592470">
						<ele>696</ele>
						<time>2026-08-28T09:42:16Z</time>
					</trkpt>
					<trkpt lat="45.602930" lon="4.592730">
						<ele>694</ele>
						<time>2026-08-28T09:42:20Z</time>
					</trkpt>
					<trkpt lat="45.603050" lon="4.593190">
						<ele>691</ele>
						<time>2026-08-28T09:42:26Z</time>
					</trkpt>
					<trkpt lat="45.603120" lon="4.593410">
						<ele>690</ele>
						<time>2026-08-28T09:42:29Z</time>
					</trkpt>
					<trkpt lat="45.603190" lon="4.593590">
						<ele>689</ele>
						<time>2026-08-28T09:42:31Z</time>
					</trkpt>
					<trkpt lat="45.603280" lon="4.593760">
						<ele>689</ele>
						<time>2026-08-28T09:42:34Z</time>
					</trkpt>
					<trkpt lat="45.603530" lon="4.594150">
						<ele>685</ele>
						<time>2026-08-28T09:42:41Z</time>
					</trkpt>
					<trkpt lat="45.603690" lon="4.594330">
						<ele>683</ele>
						<time>2026-08-28T09:42:44Z</time>
					</trkpt>
					<trkpt lat="45.603800" lon="4.594380">
						<ele>683</ele>
						<time>2026-08-28T09:42:46Z</time>
					</trkpt>
					<trkpt lat="45.603910" lon="4.594400">
						<ele>684</ele>
						<time>2026-08-28T09:42:48Z</time>
					</trkpt>
					<trkpt lat="45.604120" lon="4.594400">
						<ele>687</ele>
						<time>2026-08-28T09:42:52Z</time>
					</trkpt>
					<trkpt lat="45.604320" lon="4.594370">
						<ele>688</ele>
						<time>2026-08-28T09:42:55Z</time>
					</trkpt>
					<trkpt lat="45.604760" lon="4.594290">
						<ele>688</ele>
						<time>2026-08-28T09:43:03Z</time>
					</trkpt>
					<trkpt lat="45.604970" lon="4.594200">
						<ele>689</ele>
						<time>2026-08-28T09:43:07Z</time>
					</trkpt>
					<trkpt lat="45.605160" lon="4.594050">
						<ele>693</ele>
						<time>2026-08-28T09:43:11Z</time>
					</trkpt>
					<trkpt lat="45.605320" lon="4.593970">
						<ele>696</ele>
						<time>2026-08-28T09:43:14Z</time>
					</trkpt>
					<trkpt lat="45.605420" lon="4.593960">
						<ele>697</ele>
						<time>2026-08-28T09:43:16Z</time>
					</trkpt>
					<trkpt lat="45.605470" lon="4.593970">
						<ele>697</ele>
						<time>2026-08-28T09:43:17Z</time>
					</trkpt>
					<trkpt lat="45.605520" lon="4.594010">
						<ele>697</ele>
						<time>2026-08-28T09:43:18Z</time>
					</trkpt>
					<trkpt lat="45.605550" lon="4.594080">
						<ele>696</ele>
						<time>2026-08-28T09:43:19Z</time>
					</trkpt>
					<trkpt lat="45.605580" lon="4.594190">
						<ele>694</ele>
						<time>2026-08-28T09:43:20Z</time>
					</trkpt>
					<trkpt lat="45.605570" lon="4.594310">
						<ele>694</ele>
						<time>2026-08-28T09:43:22Z</time>
					</trkpt>
					<trkpt lat="45.605540" lon="4.594430">
						<ele>693</ele>
						<time>2026-08-28T09:43:23Z</time>
					</trkpt>
					<trkpt lat="45.605480" lon="4.594620">
						<ele>691</ele>
						<time>2026-08-28T09:43:26Z</time>
					</trkpt>
					<trkpt lat="45.605130" lon="4.595490">
						<ele>678</ele>
						<time>2026-08-28T09:43:39Z</time>
					</trkpt>
					<trkpt lat="45.604930" lon="4.596010">
						<ele>673</ele>
						<time>2026-08-28T09:43:46Z</time>
					</trkpt>
					<trkpt lat="45.604680" lon="4.596510">
						<ele>667</ele>
						<time>2026-08-28T09:43:54Z</time>
					</trkpt>
					<trkpt lat="45.604610" lon="4.596690">
						<ele>665</ele>
						<time>2026-08-28T09:43:56Z</time>
					</trkpt>
					<trkpt lat="45.604550" lon="4.596860">
						<ele>662</ele>
						<time>2026-08-28T09:43:59Z</time>
					</trkpt>
					<trkpt lat="45.604510" lon="4.597050">
						<ele>660</ele>
						<time>2026-08-28T09:44:01Z</time>
					</trkpt>
					<trkpt lat="45.604480" lon="4.597240">
						<ele>658</ele>
						<time>2026-08-28T09:44:03Z</time>
					</trkpt>
					<trkpt lat="45.604490" lon="4.597450">
						<ele>658</ele>
						<time>2026-08-28T09:44:06Z</time>
					</trkpt>
					<trkpt lat="45.604520" lon="4.597640">
						<ele>657</ele>
						<time>2026-08-28T09:44:08Z</time>
					</trkpt>
					<trkpt lat="45.604560" lon="4.597840">
						<ele>655</ele>
						<time>2026-08-28T09:44:11Z</time>
					</trkpt>
					<trkpt lat="45.604630" lon="4.598000">
						<ele>654</ele>
						<time>2026-08-28T09:44:13Z</time>
					</trkpt>
					<trkpt lat="45.604720" lon="4.598150">
						<ele>654</ele>
						<time>2026-08-28T09:44:16Z</time>
					</trkpt>
					<trkpt lat="45.604830" lon="4.598260">
						<ele>654</ele>
						<time>2026-08-28T09:44:18Z</time>
					</trkpt>
					<trkpt lat="45.604960" lon="4.598340">
						<ele>655</ele>
						<time>2026-08-28T09:44:21Z</time>
					</trkpt>
					<trkpt lat="45.605100" lon="4.598380">
						<ele>657</ele>
						<time>2026-08-28T09:44:23Z</time>
					</trkpt>
					<trkpt lat="45.605410" lon="4.598420">
						<ele>661</ele>
						<time>2026-08-28T09:44:29Z</time>
					</trkpt>
					<trkpt lat="45.605570" lon="4.598480">
						<ele>663</ele>
						<time>2026-08-28T09:44:32Z</time>
					</trkpt>
					<trkpt lat="45.605670" lon="4.598580">
						<ele>662</ele>
						<time>2026-08-28T09:44:34Z</time>
					</trkpt>
					<trkpt lat="45.605770" lon="4.598760">
						<ele>660</ele>
						<time>2026-08-28T09:44:37Z</time>
					</trkpt>
					<trkpt lat="45.605860" lon="4.598950">
						<ele>658</ele>
						<time>2026-08-28T09:44:40Z</time>
					</trkpt>
					<trkpt lat="45.605980" lon="4.599350">
						<ele>652</ele>
						<time>2026-08-28T09:44:45Z</time>
					</trkpt>
					<trkpt lat="45.606100" lon="4.599760">
						<ele>646</ele>
						<time>2026-08-28T09:44:51Z</time>
					</trkpt>
					<trkpt lat="45.606170" lon="4.599920">
						<ele>644</ele>
						<time>2026-08-28T09:44:53Z</time>
					</trkpt>
					<trkpt lat="45.606260" lon="4.600050">
						<ele>644</ele>
						<time>2026-08-28T09:44:55Z</time>
					</trkpt>
					<trkpt lat="45.606350" lon="4.600120">
						<ele>645</ele>
						<time>2026-08-28T09:44:57Z</time>
					</trkpt>
					<trkpt lat="45.606590" lon="4.600240">
						<ele>650</ele>
						<time>2026-08-28T09:45:02Z</time>
					</trkpt>
					<trkpt lat="45.606680" lon="4.600350">
						<ele>652</ele>
						<time>2026-08-28T09:45:04Z</time>
					</trkpt>
					<trkpt lat="45.606720" lon="4.600500">
						<ele>651</ele>
						<time>2026-08-28T09:45:06Z</time>
					</trkpt>
					<trkpt lat="45.606710" lon="4.600650">
						<ele>650</ele>
						<time>2026-08-28T09:45:08Z</time>
					</trkpt>
					<trkpt lat="45.606650" lon="4.600870">
						<ele>646</ele>
						<time>2026-08-28T09:45:11Z</time>
					</trkpt>
					<trkpt lat="45.606410" lon="4.601650">
						<ele>639</ele>
						<time>2026-08-28T09:45:21Z</time>
					</trkpt>
					<trkpt lat="45.606350" lon="4.601940">
						<ele>635</ele>
						<time>2026-08-28T09:45:25Z</time>
					</trkpt>
					<trkpt lat="45.606350" lon="4.602130">
						<ele>634</ele>
						<time>2026-08-28T09:45:27Z</time>
					</trkpt>
					<trkpt lat="45.606380" lon="4.602280">
						<ele>635</ele>
						<time>2026-08-28T09:45:29Z</time>
					</trkpt>
					<trkpt lat="45.606450" lon="4.602480">
						<ele>636</ele>
						<time>2026-08-28T09:45:32Z</time>
					</trkpt>
					<trkpt lat="45.606610" lon="4.602790">
						<ele>635</ele>
						<time>2026-08-28T09:45:37Z</time>
					</trkpt>
					<trkpt lat="45.606800" lon="4.603080">
						<ele>635</ele>
						<time>2026-08-28T09:45:42Z</time>
					</trkpt>
					<trkpt lat="45.607110" lon="4.603450">
						<ele>637</ele>
						<time>2026-08-28T09:45:49Z</time>
					</trkpt>
					<trkpt lat="45.607200" lon="4.603630">
						<ele>637</ele>
						<time>2026-08-28T09:45:52Z</time>
					</trkpt>
					<trkpt lat="45.607260" lon="4.603820">
						<ele>635</ele>
						<time>2026-08-28T09:45:54Z</time>
					</trkpt>
					<trkpt lat="45.607380" lon="4.604380">
						<ele>628</ele>
						<time>2026-08-28T09:46:02Z</time>
					</trkpt>
					<trkpt lat="45.607420" lon="4.604560">
						<ele>626</ele>
						<time>2026-08-28T09:46:04Z</time>
					</trkpt>
					<trkpt lat="45.607480" lon="4.604730">
						<ele>625</ele>
						<time>2026-08-28T09:46:06Z</time>
					</trkpt>
					<trkpt lat="45.607570" lon="4.604880">
						<ele>624</ele>
						<time>2026-08-28T09:46:09Z</time>
					</trkpt>
					<trkpt lat="45.607670" lon="4.604980">
						<ele>622</ele>
						<time>2026-08-28T09:46:11Z</time>
					</trkpt>
					<trkpt lat="45.607800" lon="4.605040">
						<ele>621</ele>
						<time>2026-08-28T09:46:13Z</time>
					</trkpt>
					<trkpt lat="45.608020" lon="4.605060">
						<ele>622</ele>
						<time>2026-08-28T09:46:17Z</time>
					</trkpt>
					<trkpt lat="45.608200" lon="4.605020">
						<ele>624</ele>
						<time>2026-08-28T09:46:20Z</time>
					</trkpt>
					<trkpt lat="45.608470" lon="4.604900">
						<ele>628</ele>
						<time>2026-08-28T09:46:26Z</time>
					</trkpt>
					<trkpt lat="45.608830" lon="4.604680">
						<ele>635</ele>
						<time>2026-08-28T09:46:32Z</time>
					</trkpt>
					<trkpt lat="45.608890" lon="4.604670">
						<ele>635</ele>
						<time>2026-08-28T09:46:34Z</time>
					</trkpt>
					<trkpt lat="45.608940" lon="4.604700">
						<ele>634</ele>
						<time>2026-08-28T09:46:35Z</time>
					</trkpt>
					<trkpt lat="45.609020" lon="4.604770">
						<ele>633</ele>
						<time>2026-08-28T09:46:36Z</time>
					</trkpt>
					<trkpt lat="45.609080" lon="4.604910">
						<ele>629</ele>
						<time>2026-08-28T09:46:38Z</time>
					</trkpt>
					<trkpt lat="45.609100" lon="4.605260">
						<ele>624</ele>
						<time>2026-08-28T09:46:43Z</time>
					</trkpt>
					<trkpt lat="45.609100" lon="4.605530">
						<ele>621</ele>
						<time>2026-08-28T09:46:46Z</time>
					</trkpt>
					<trkpt lat="45.609070" lon="4.605700">
						<ele>619</ele>
						<time>2026-08-28T09:46:48Z</time>
					</trkpt>
					<trkpt lat="45.608870" lon="4.606390">
						<ele>612</ele>
						<time>2026-08-28T09:46:57Z</time>
					</trkpt>
					<trkpt lat="45.608790" lon="4.606770">
						<ele>609</ele>
						<time>2026-08-28T09:47:02Z</time>
					</trkpt>
					<trkpt lat="45.608460" lon="4.608460">
						<ele>598</ele>
						<time>2026-08-28T09:47:24Z</time>
					</trkpt>
					<trkpt lat="45.608410" lon="4.608750">
						<ele>597</ele>
						<time>2026-08-28T09:47:28Z</time>
					</trkpt>
					<trkpt lat="45.608400" lon="4.608970">
						<ele>597</ele>
						<time>2026-08-28T09:47:31Z</time>
					</trkpt>
					<trkpt lat="45.608390" lon="4.609040">
						<ele>597</ele>
						<time>2026-08-28T09:47:32Z</time>
					</trkpt>
					<trkpt lat="45.608350" lon="4.610140">
						<ele>596</ele>
						<time>2026-08-28T09:47:45Z</time>
					</trkpt>
					<trkpt lat="45.608340" lon="4.610720">
						<ele>593</ele>
						<time>2026-08-28T09:47:52Z</time>
					</trkpt>
					<trkpt lat="45.608340" lon="4.610920">
						<ele>592</ele>
						<time>2026-08-28T09:47:55Z</time>
					</trkpt>
					<trkpt lat="45.608360" lon="4.611100">
						<ele>591</ele>
						<time>2026-08-28T09:47:57Z</time>
					</trkpt>
					<trkpt lat="45.608390" lon="4.611290">
						<ele>590</ele>
						<time>2026-08-28T09:48:00Z</time>
					</trkpt>
					<trkpt lat="45.608500" lon="4.611840">
						<ele>588</ele>
						<time>2026-08-28T09:48:07Z</time>
					</trkpt>
					<trkpt lat="45.608560" lon="4.612030">
						<ele>586</ele>
						<time>2026-08-28T09:48:09Z</time>
					</trkpt>
					<trkpt lat="45.608640" lon="4.612210">
						<ele>586</ele>
						<time>2026-08-28T09:48:12Z</time>
					</trkpt>
					<trkpt lat="45.609270" lon="4.613220">
						<ele>580</ele>
						<time>2026-08-28T09:48:29Z</time>
					</trkpt>
					<trkpt lat="45.609380" lon="4.613350">
						<ele>578</ele>
						<time>2026-08-28T09:48:31Z</time>
					</trkpt>
					<trkpt lat="45.609510" lon="4.613440">
						<ele>577</ele>
						<time>2026-08-28T09:48:34Z</time>
					</trkpt>
					<trkpt lat="45.609640" lon="4.613490">
						<ele>577</ele>
						<time>2026-08-28T09:48:36Z</time>
					</trkpt>
					<trkpt lat="45.609780" lon="4.613520">
						<ele>577</ele>
						<time>2026-08-28T09:48:39Z</time>
					</trkpt>
					<trkpt lat="45.609930" lon="4.613520">
						<ele>578</ele>
						<time>2026-08-28T09:48:42Z</time>
					</trkpt>
					<trkpt lat="45.609970" lon="4.613520">
						<ele>578</ele>
						<time>2026-08-28T09:48:42Z</time>
					</trkpt>
					<trkpt lat="45.610060" lon="4.613500">
						<ele>578</ele>
						<time>2026-08-28T09:48:44Z</time>
					</trkpt>
					<trkpt lat="45.610480" lon="4.613320">
						<ele>576</ele>
						<time>2026-08-28T09:48:52Z</time>
					</trkpt>
					<trkpt lat="45.610620" lon="4.613270">
						<ele>575</ele>
						<time>2026-08-28T09:48:54Z</time>
					</trkpt>
					<trkpt lat="45.610700" lon="4.613260">
						<ele>575</ele>
						<time>2026-08-28T09:48:56Z</time>
					</trkpt>
					<trkpt lat="45.610760" lon="4.613250">
						<ele>574</ele>
						<time>2026-08-28T09:48:57Z</time>
					</trkpt>
					<trkpt lat="45.610900" lon="4.613270">
						<ele>573</ele>
						<time>2026-08-28T09:48:59Z</time>
					</trkpt>
					<trkpt lat="45.611040" lon="4.613340">
						<ele>573</ele>
						<time>2026-08-28T09:49:02Z</time>
					</trkpt>
					<trkpt lat="45.611160" lon="4.613460">
						<ele>573</ele>
						<time>2026-08-28T09:49:05Z</time>
					</trkpt>
					<trkpt lat="45.611260" lon="4.613620">
						<ele>573</ele>
						<time>2026-08-28T09:49:07Z</time>
					</trkpt>
					<trkpt lat="45.611340" lon="4.613790">
						<ele>572</ele>
						<time>2026-08-28T09:49:10Z</time>
					</trkpt>
					<trkpt lat="45.611390" lon="4.614000">
						<ele>571</ele>
						<time>2026-08-28T09:49:13Z</time>
					</trkpt>
					<trkpt lat="45.611420" lon="4.614210">
						<ele>570</ele>
						<time>2026-08-28T09:49:15Z</time>
					</trkpt>
					<trkpt lat="45.611430" lon="4.614410">
						<ele>569</ele>
						<time>2026-08-28T09:49:18Z</time>
					</trkpt>
					<trkpt lat="45.611400" lon="4.615770">
						<ele>563</ele>
						<time>2026-08-28T09:49:35Z</time>
					</trkpt>
					<trkpt lat="45.611390" lon="4.616550">
						<ele>559</ele>
						<time>2026-08-28T09:49:44Z</time>
					</trkpt>
					<trkpt lat="45.611390" lon="4.616710">
						<ele>558</ele>
						<time>2026-08-28T09:49:46Z</time>
					</trkpt>
					<trkpt lat="45.611440" lon="4.616990">
						<ele>557</ele>
						<time>2026-08-28T09:49:50Z</time>
					</trkpt>
					<trkpt lat="45.611710" lon="4.617800">
						<ele>555</ele>
						<time>2026-08-28T09:50:01Z</time>
					</trkpt>
					<trkpt lat="45.611730" lon="4.617880">
						<ele>554</ele>
						<time>2026-08-28T09:50:02Z</time>
					</trkpt>
					<trkpt lat="45.611760" lon="4.617950">
						<ele>554</ele>
						<time>2026-08-28T09:50:03Z</time>
					</trkpt>
					<trkpt lat="45.611820" lon="4.618120">
						<ele>552</ele>
						<time>2026-08-28T09:50:06Z</time>
					</trkpt>
					<trkpt lat="45.611900" lon="4.618270">
						<ele>551</ele>
						<time>2026-08-28T09:50:08Z</time>
					</trkpt>
					<trkpt lat="45.611990" lon="4.618400">
						<ele>550</ele>
						<time>2026-08-28T09:50:10Z</time>
					</trkpt>
					<trkpt lat="45.612170" lon="4.618600">
						<ele>550</ele>
						<time>2026-08-28T09:50:14Z</time>
					</trkpt>
					<trkpt lat="45.612360" lon="4.618800">
						<ele>549</ele>
						<time>2026-08-28T09:50:18Z</time>
					</trkpt>
					<trkpt lat="45.612970" lon="4.619380">
						<ele>542</ele>
						<time>2026-08-28T09:50:31Z</time>
					</trkpt>
					<trkpt lat="45.613080" lon="4.619460">
						<ele>540</ele>
						<time>2026-08-28T09:50:34Z</time>
					</trkpt>
					<trkpt lat="45.613190" lon="4.619510">
						<ele>540</ele>
						<time>2026-08-28T09:50:36Z</time>
					</trkpt>
					<trkpt lat="45.613350" lon="4.619530">
						<ele>540</ele>
						<time>2026-08-28T09:50:39Z</time>
					</trkpt>
					<trkpt lat="45.613500" lon="4.619490">
						<ele>540</ele>
						<time>2026-08-28T09:50:41Z</time>
					</trkpt>
					<trkpt lat="45.613780" lon="4.619370">
						<ele>542</ele>
						<time>2026-08-28T09:50:46Z</time>
					</trkpt>
					<trkpt lat="45.613920" lon="4.619350">
						<ele>542</ele>
						<time>2026-08-28T09:50:49Z</time>
					</trkpt>
					<trkpt lat="45.614060" lon="4.619370">
						<ele>541</ele>
						<time>2026-08-28T09:50:51Z</time>
					</trkpt>
					<trkpt lat="45.614190" lon="4.619420">
						<ele>540</ele>
						<time>2026-08-28T09:50:54Z</time>
					</trkpt>
					<trkpt lat="45.614440" lon="4.619550">
						<ele>537</ele>
						<time>2026-08-28T09:50:59Z</time>
					</trkpt>
					<trkpt lat="45.614650" lon="4.619620">
						<ele>536</ele>
						<time>2026-08-28T09:51:02Z</time>
					</trkpt>
					<trkpt lat="45.614840" lon="4.619630">
						<ele>536</ele>
						<time>2026-08-28T09:51:06Z</time>
					</trkpt>
					<trkpt lat="45.615020" lon="4.619610">
						<ele>536</ele>
						<time>2026-08-28T09:51:09Z</time>
					</trkpt>
					<trkpt lat="45.615270" lon="4.619540">
						<ele>536</ele>
						<time>2026-08-28T09:51:14Z</time>
					</trkpt>
					<trkpt lat="45.615480" lon="4.619380">
						<ele>537</ele>
						<time>2026-08-28T09:51:18Z</time>
					</trkpt>
					<trkpt lat="45.615610" lon="4.619320">
						<ele>537</ele>
						<time>2026-08-28T09:51:20Z</time>
					</trkpt>
					<trkpt lat="45.615750" lon="4.619360">
						<ele>535</ele>
						<time>2026-08-28T09:51:23Z</time>
					</trkpt>
					<trkpt lat="45.615850" lon="4.619500">
						<ele>535</ele>
						<time>2026-08-28T09:51:25Z</time>
					</trkpt>
					<trkpt lat="45.615890" lon="4.619700">
						<ele>536</ele>
						<time>2026-08-28T09:51:28Z</time>
					</trkpt>
					<trkpt lat="45.615870" lon="4.619900">
						<ele>536</ele>
						<time>2026-08-28T09:51:30Z</time>
					</trkpt>
					<trkpt lat="45.615780" lon="4.620260">
						<ele>536</ele>
						<time>2026-08-28T09:51:35Z</time>
					</trkpt>
					<trkpt lat="45.615510" lon="4.621270">
						<ele>535</ele>
						<time>2026-08-28T09:51:49Z</time>
					</trkpt>
					<trkpt lat="45.615160" lon="4.622620">
						<ele>530</ele>
						<time>2026-08-28T09:52:07Z</time>
					</trkpt>
					<trkpt lat="45.615120" lon="4.622810">
						<ele>528</ele>
						<time>2026-08-28T09:52:09Z</time>
					</trkpt>
					<trkpt lat="45.615110" lon="4.623010">
						<ele>528</ele>
						<time>2026-08-28T09:52:11Z</time>
					</trkpt>
					<trkpt lat="45.615110" lon="4.623200">
						<ele>528</ele>
						<time>2026-08-28T09:52:14Z</time>
					</trkpt>
					<trkpt lat="45.615130" lon="4.623390">
						<ele>528</ele>
						<time>2026-08-28T09:52:16Z</time>
					</trkpt>
					<trkpt lat="45.615200" lon="4.623760">
						<ele>528</ele>
						<time>2026-08-28T09:52:21Z</time>
					</trkpt>
					<trkpt lat="45.615390" lon="4.624470">
						<ele>527</ele>
						<time>2026-08-28T09:52:30Z</time>
					</trkpt>
					<trkpt lat="45.615440" lon="4.624640">
						<ele>526</ele>
						<time>2026-08-28T09:52:33Z</time>
					</trkpt>
					<trkpt lat="45.615470" lon="4.624720">
						<ele>525</ele>
						<time>2026-08-28T09:52:34Z</time>
					</trkpt>
					<trkpt lat="45.615510" lon="4.624800">
						<ele>525</ele>
						<time>2026-08-28T09:52:35Z</time>
					</trkpt>
					<trkpt lat="45.615600" lon="4.624940">
						<ele>524</ele>
						<time>2026-08-28T09:52:37Z</time>
					</trkpt>
					<trkpt lat="45.615700" lon="4.625070">
						<ele>524</ele>
						<time>2026-08-28T09:52:40Z</time>
					</trkpt>
					<trkpt lat="45.615800" lon="4.625180">
						<ele>523</ele>
						<time>2026-08-28T09:52:42Z</time>
					</trkpt>
					<trkpt lat="45.615930" lon="4.625250">
						<ele>524</ele>
						<time>2026-08-28T09:52:45Z</time>
					</trkpt>
					<trkpt lat="45.616120" lon="4.625310">
						<ele>525</ele>
						<time>2026-08-28T09:52:48Z</time>
					</trkpt>
					<trkpt lat="45.616330" lon="4.625380">
						<ele>527</ele>
						<time>2026-08-28T09:52:52Z</time>
					</trkpt>
					<trkpt lat="45.616410" lon="4.625470">
						<ele>527</ele>
						<time>2026-08-28T09:52:54Z</time>
					</trkpt>
					<trkpt lat="45.616470" lon="4.625610">
						<ele>526</ele>
						<time>2026-08-28T09:52:56Z</time>
					</trkpt>
					<trkpt lat="45.616530" lon="4.626270">
						<ele>521</ele>
						<time>2026-08-28T09:53:04Z</time>
					</trkpt>
					<trkpt lat="45.616590" lon="4.626640">
						<ele>520</ele>
						<time>2026-08-28T09:53:09Z</time>
					</trkpt>
					<trkpt lat="45.616700" lon="4.627120">
						<ele>521</ele>
						<time>2026-08-28T09:53:15Z</time>
					</trkpt>
					<trkpt lat="45.616750" lon="4.627320">
						<ele>522</ele>
						<time>2026-08-28T09:53:18Z</time>
					</trkpt>
					<trkpt lat="45.617010" lon="4.628480">
						<ele>520</ele>
						<time>2026-08-28T09:53:33Z</time>
					</trkpt>
					<trkpt lat="45.617070" lon="4.628860">
						<ele>519</ele>
						<time>2026-08-28T09:53:38Z</time>
					</trkpt>
					<trkpt lat="45.617100" lon="4.629250">
						<ele>518</ele>
						<time>2026-08-28T09:53:43Z</time>
					</trkpt>
					<trkpt lat="45.617140" lon="4.630200">
						<ele>517</ele>
						<time>2026-08-28T09:53:54Z</time>
					</trkpt>
					<trkpt lat="45.617150" lon="4.630630">
						<ele>514</ele>
						<time>2026-08-28T09:54:00Z</time>
					</trkpt>
					<trkpt lat="45.617170" lon="4.630820">
						<ele>513</ele>
						<time>2026-08-28T09:54:02Z</time>
					</trkpt>
					<trkpt lat="45.617210" lon="4.631000">
						<ele>512</ele>
						<time>2026-08-28T09:54:05Z</time>
					</trkpt>
					<trkpt lat="45.617280" lon="4.631160">
						<ele>511</ele>
						<time>2026-08-28T09:54:07Z</time>
					</trkpt>
					<trkpt lat="45.617420" lon="4.631480">
						<ele>510</ele>
						<time>2026-08-28T09:54:12Z</time>
					</trkpt>
					<trkpt lat="45.617610" lon="4.631980">
						<ele>508</ele>
						<time>2026-08-28T09:54:19Z</time>
					</trkpt>
					<trkpt lat="45.617660" lon="4.632170">
						<ele>506</ele>
						<time>2026-08-28T09:54:21Z</time>
					</trkpt>
					<trkpt lat="45.617690" lon="4.632380">
						<ele>505</ele>
						<time>2026-08-28T09:54:24Z</time>
					</trkpt>
					<trkpt lat="45.617690" lon="4.632560">
						<ele>503</ele>
						<time>2026-08-28T09:54:26Z</time>
					</trkpt>
					<trkpt lat="45.617700" lon="4.634080">
						<ele>504</ele>
						<time>2026-08-28T09:54:45Z</time>
					</trkpt>
					<trkpt lat="45.617710" lon="4.634260">
						<ele>504</ele>
						<time>2026-08-28T09:54:47Z</time>
					</trkpt>
					<trkpt lat="45.617740" lon="4.634450">
						<ele>504</ele>
						<time>2026-08-28T09:54:50Z</time>
					</trkpt>
					<trkpt lat="45.617810" lon="4.634720">
						<ele>505</ele>
						<time>2026-08-28T09:54:53Z</time>
					</trkpt>
					<trkpt lat="45.617900" lon="4.634970">
						<ele>507</ele>
						<time>2026-08-28T09:54:57Z</time>
					</trkpt>
					<trkpt lat="45.617990" lon="4.635220">
						<ele>507</ele>
						<time>2026-08-28T09:55:00Z</time>
					</trkpt>
					<trkpt lat="45.618100" lon="4.635480">
						<ele>507</ele>
						<time>2026-08-28T09:55:04Z</time>
					</trkpt>
					<trkpt lat="45.618500" lon="4.636330">
						<ele>508</ele>
						<time>2026-08-28T09:55:17Z</time>
					</trkpt>
					<trkpt lat="45.618620" lon="4.636550">
						<ele>508</ele>
						<time>2026-08-28T09:55:20Z</time>
					</trkpt>
					<trkpt lat="45.618900" lon="4.636970">
						<ele>507</ele>
						<time>2026-08-28T09:55:27Z</time>
					</trkpt>
					<trkpt lat="45.619070" lon="4.637170">
						<ele>507</ele>
						<time>2026-08-28T09:55:31Z</time>
					</trkpt>
					<trkpt lat="45.620370" lon="4.638450">
						<ele>507</ele>
						<time>2026-08-28T09:55:59Z</time>
					</trkpt>
					<trkpt lat="45.620660" lon="4.638860">
						<ele>506</ele>
						<time>2026-08-28T09:56:07Z</time>
					</trkpt>
					<trkpt lat="45.620780" lon="4.639050">
						<ele>505</ele>
						<time>2026-08-28T09:56:10Z</time>
					</trkpt>
					<trkpt lat="45.620840" lon="4.639200">
						<ele>504</ele>
						<time>2026-08-28T09:56:12Z</time>
					</trkpt>
					<trkpt lat="45.620890" lon="4.639550">
						<ele>500</ele>
						<time>2026-08-28T09:56:17Z</time>
					</trkpt>
					<trkpt lat="45.620920" lon="4.639640">
						<ele>499</ele>
						<time>2026-08-28T09:56:18Z</time>
					</trkpt>
					<trkpt lat="45.621000" lon="4.639700">
						<ele>499</ele>
						<time>2026-08-28T09:56:19Z</time>
					</trkpt>
					<trkpt lat="45.621360" lon="4.639800">
						<ele>498</ele>
						<time>2026-08-28T09:56:26Z</time>
					</trkpt>
					<trkpt lat="45.621460" lon="4.639840">
						<ele>498</ele>
						<time>2026-08-28T09:56:28Z</time>
					</trkpt>
					<trkpt lat="45.621970" lon="4.640050">
						<ele>496</ele>
						<time>2026-08-28T09:56:37Z</time>
					</trkpt>
					<trkpt lat="45.622210" lon="4.640170">
						<ele>495</ele>
						<time>2026-08-28T09:56:42Z</time>
					</trkpt>
					<trkpt lat="45.622280" lon="4.640240">
						<ele>494</ele>
						<time>2026-08-28T09:56:43Z</time>
					</trkpt>
					<trkpt lat="45.622370" lon="4.640420">
						<ele>492</ele>
						<time>2026-08-28T09:56:46Z</time>
					</trkpt>
					<trkpt lat="45.622540" lon="4.641130">
						<ele>486</ele>
						<time>2026-08-28T09:56:55Z</time>
					</trkpt>
					<trkpt lat="45.622800" lon="4.642060">
						<ele>479</ele>
						<time>2026-08-28T09:57:08Z</time>
					</trkpt>
					<trkpt lat="45.622840" lon="4.642160">
						<ele>478</ele>
						<time>2026-08-28T09:57:09Z</time>
					</trkpt>
					<trkpt lat="45.622890" lon="4.642340">
						<ele>476</ele>
						<time>2026-08-28T09:57:12Z</time>
					</trkpt>
					<trkpt lat="45.622980" lon="4.642560">
						<ele>474</ele>
						<time>2026-08-28T09:57:15Z</time>
					</trkpt>
					<trkpt lat="45.623000" lon="4.642590">
						<ele>474</ele>
						<time>2026-08-28T09:57:15Z</time>
					</trkpt>
					<trkpt lat="45.623130" lon="4.642800">
						<ele>473</ele>
						<time>2026-08-28T09:57:19Z</time>
					</trkpt>
					<trkpt lat="45.623310" lon="4.642990">
						<ele>472</ele>
						<time>2026-08-28T09:57:23Z</time>
					</trkpt>
					<trkpt lat="45.623470" lon="4.643130">
						<ele>471</ele>
						<time>2026-08-28T09:57:26Z</time>
					</trkpt>
					<trkpt lat="45.623630" lon="4.643250">
						<ele>469</ele>
						<time>2026-08-28T09:57:29Z</time>
					</trkpt>
					<trkpt lat="45.623750" lon="4.643310">
						<ele>468</ele>
						<time>2026-08-28T09:57:32Z</time>
					</trkpt>
					<trkpt lat="45.623890" lon="4.643360">
						<ele>468</ele>
						<time>2026-08-28T09:57:34Z</time>
					</trkpt>
					<trkpt lat="45.623990" lon="4.643350">
						<ele>468</ele>
						<time>2026-08-28T09:57:36Z</time>
					</trkpt>
					<trkpt lat="45.624320" lon="4.643270">
						<ele>467</ele>
						<time>2026-08-28T09:57:42Z</time>
					</trkpt>
					<trkpt lat="45.624440" lon="4.643300">
						<ele>465</ele>
						<time>2026-08-28T09:57:44Z</time>
					</trkpt>
					<trkpt lat="45.624530" lon="4.643380">
						<ele>463</ele>
						<time>2026-08-28T09:57:46Z</time>
					</trkpt>
					<trkpt lat="45.624550" lon="4.643440">
						<ele>462</ele>
						<time>2026-08-28T09:57:47Z</time>
					</trkpt>
					<trkpt lat="45.624580" lon="4.643520">
						<ele>461</ele>
						<time>2026-08-28T09:57:48Z</time>
					</trkpt>
					<trkpt lat="45.624590" lon="4.643680">
						<ele>460</ele>
						<time>2026-08-28T09:57:50Z</time>
					</trkpt>
					<trkpt lat="45.624550" lon="4.643900">
						<ele>459</ele>
						<time>2026-08-28T09:57:53Z</time>
					</trkpt>
					<trkpt lat="45.624490" lon="4.644070">
						<ele>458</ele>
						<time>2026-08-28T09:57:55Z</time>
					</trkpt>
					<trkpt lat="45.624410" lon="4.644340">
						<ele>457</ele>
						<time>2026-08-28T09:57:59Z</time>
					</trkpt>
					<trkpt lat="45.624400" lon="4.644540">
						<ele>456</ele>
						<time>2026-08-28T09:58:01Z</time>
					</trkpt>
					<trkpt lat="45.624390" lon="4.644760">
						<ele>455</ele>
						<time>2026-08-28T09:58:04Z</time>
					</trkpt>
					<trkpt lat="45.624370" lon="4.644960">
						<ele>454</ele>
						<time>2026-08-28T09:58:07Z</time>
					</trkpt>
					<trkpt lat="45.624310" lon="4.645240">
						<ele>453</ele>
						<time>2026-08-28T09:58:10Z</time>
					</trkpt>
					<trkpt lat="45.624250" lon="4.645460">
						<ele>453</ele>
						<time>2026-08-28T09:58:13Z</time>
					</trkpt>
					<trkpt lat="45.624160" lon="4.645660">
						<ele>452</ele>
						<time>2026-08-28T09:58:16Z</time>
					</trkpt>
					<trkpt lat="45.624030" lon="4.645910">
						<ele>450</ele>
						<time>2026-08-28T09:58:20Z</time>
					</trkpt>
					<trkpt lat="45.623900" lon="4.646130">
						<ele>449</ele>
						<time>2026-08-28T09:58:24Z</time>
					</trkpt>
					<trkpt lat="45.623760" lon="4.646320">
						<ele>448</ele>
						<time>2026-08-28T09:58:27Z</time>
					</trkpt>
					<trkpt lat="45.623640" lon="4.646430">
						<ele>447</ele>
						<time>2026-08-28T09:58:29Z</time>
					</trkpt>
					<trkpt lat="45.623530" lon="4.646470">
						<ele>447</ele>
						<time>2026-08-28T09:58:31Z</time>
					</trkpt>
					<trkpt lat="45.623490" lon="4.646480">
						<ele>447</ele>
						<time>2026-08-28T09:58:32Z</time>
					</trkpt>
					<trkpt lat="45.623020" lon="4.646560">
						<ele>444</ele>
						<time>2026-08-28T09:58:41Z</time>
					</trkpt>
					<trkpt lat="45.621670" lon="4.646750">
						<ele>437</ele>
						<time>2026-08-28T09:59:05Z</time>
					</trkpt>
					<trkpt lat="45.621520" lon="4.646780">
						<ele>436</ele>
						<time>2026-08-28T09:59:07Z</time>
					</trkpt>
					<trkpt lat="45.621420" lon="4.646830">
						<ele>435</ele>
						<time>2026-08-28T09:59:09Z</time>
					</trkpt>
					<trkpt lat="45.621350" lon="4.646910">
						<ele>434</ele>
						<time>2026-08-28T09:59:11Z</time>
					</trkpt>
					<trkpt lat="45.621320" lon="4.647000">
						<ele>433</ele>
						<time>2026-08-28T09:59:12Z</time>
					</trkpt>
					<trkpt lat="45.621300" lon="4.647140">
						<ele>433</ele>
						<time>2026-08-28T09:59:14Z</time>
					</trkpt>
					<trkpt lat="45.621290" lon="4.647310">
						<ele>432</ele>
						<time>2026-08-28T09:59:16Z</time>
					</trkpt>
					<trkpt lat="45.621350" lon="4.648250">
						<ele>428</ele>
						<time>2026-08-28T09:59:28Z</time>
					</trkpt>
					<trkpt lat="45.621390" lon="4.648470">
						<ele>428</ele>
						<time>2026-08-28T09:59:31Z</time>
					</trkpt>
					<trkpt lat="45.621640" lon="4.649560">
						<ele>423</ele>
						<time>2026-08-28T09:59:45Z</time>
					</trkpt>
					<trkpt lat="45.621690" lon="4.649750">
						<ele>422</ele>
						<time>2026-08-28T09:59:47Z</time>
					</trkpt>
					<trkpt lat="45.621750" lon="4.649890">
						<ele>421</ele>
						<time>2026-08-28T09:59:50Z</time>
					</trkpt>
					<trkpt lat="45.621820" lon="4.650030">
						<ele>421</ele>
						<time>2026-08-28T09:59:52Z</time>
					</trkpt>
					<trkpt lat="45.621920" lon="4.650170">
						<ele>420</ele>
						<time>2026-08-28T09:59:54Z</time>
					</trkpt>
					<trkpt lat="45.622160" lon="4.650450">
						<ele>418</ele>
						<time>2026-08-28T10:00:00Z</time>
					</trkpt>
					<trkpt lat="45.622190" lon="4.650520">
						<ele>418</ele>
						<time>2026-08-28T10:00:01Z</time>
					</trkpt>
					<trkpt lat="45.622230" lon="4.650610">
						<ele>418</ele>
						<time>2026-08-28T10:00:02Z</time>
					</trkpt>
					<trkpt lat="45.622260" lon="4.650770">
						<ele>417</ele>
						<time>2026-08-28T10:00:04Z</time>
					</trkpt>
					<trkpt lat="45.622260" lon="4.650950">
						<ele>416</ele>
						<time>2026-08-28T10:00:06Z</time>
					</trkpt>
					<trkpt lat="45.622230" lon="4.651320">
						<ele>414</ele>
						<time>2026-08-28T10:00:11Z</time>
					</trkpt>
					<trkpt lat="45.622150" lon="4.651910">
						<ele>412</ele>
						<time>2026-08-28T10:00:18Z</time>
					</trkpt>
					<trkpt lat="45.622150" lon="4.652130">
						<ele>411</ele>
						<time>2026-08-28T10:00:21Z</time>
					</trkpt>
					<trkpt lat="45.622590" lon="4.651830">
						<ele>411</ele>
						<time>2026-08-28T10:00:30Z</time>
					</trkpt>
					<trkpt lat="45.622900" lon="4.651680">
						<ele>410</ele>
						<time>2026-08-28T10:00:36Z</time>
					</trkpt>
					<trkpt lat="45.623720" lon="4.651590">
						<ele>410</ele>
						<time>2026-08-28T10:00:50Z</time>
					</trkpt>
					<trkpt lat="45.623920" lon="4.651550">
						<ele>410</ele>
						<time>2026-08-28T10:00:54Z</time>
					</trkpt>
					<trkpt lat="45.624170" lon="4.651530">
						<ele>410</ele>
						<time>2026-08-28T10:00:58Z</time>
					</trkpt>
					<trkpt lat="45.624430" lon="4.651480">
						<ele>410</ele>
						<time>2026-08-28T10:01:03Z</time>
					</trkpt>
					<trkpt lat="45.624740" lon="4.651410">
						<ele>410</ele>
						<time>2026-08-28T10:01:09Z</time>
					</trkpt>
					<trkpt lat="45.624920" lon="4.651340">
						<ele>410</ele>
						<time>2026-08-28T10:01:12Z</time>
					</trkpt>
					<trkpt lat="45.625380" lon="4.651130">
						<ele>411</ele>
						<time>2026-08-28T10:01:20Z</time>
					</trkpt>
					<trkpt lat="45.625790" lon="4.650970">
						<ele>412</ele>
						<time>2026-08-28T10:01:28Z</time>
					</trkpt>
					<trkpt lat="45.626020" lon="4.650870">
						<ele>412</ele>
						<time>2026-08-28T10:01:32Z</time>
					</trkpt>
					<trkpt lat="45.626060" lon="4.650910">
						<ele>412</ele>
						<time>2026-08-28T10:01:33Z</time>
					</trkpt>
					<trkpt lat="45.626090" lon="4.650940">
						<ele>412</ele>
						<time>2026-08-28T10:01:34Z</time>
					</trkpt>
					<trkpt lat="45.626280" lon="4.651320">
						<ele>411</ele>
						<time>2026-08-28T10:01:40Z</time>
					</trkpt>
					<trkpt lat="45.626690" lon="4.652040">
						<ele>407</ele>
						<time>2026-08-28T10:01:51Z</time>
					</trkpt>
					<trkpt lat="45.626960" lon="4.652470">
						<ele>404</ele>
						<time>2026-08-28T10:01:58Z</time>
					</trkpt>
					<trkpt lat="45.627320" lon="4.653000">
						<ele>400</ele>
						<time>2026-08-28T10:02:08Z</time>
					</trkpt>
					<trkpt lat="45.627630" lon="4.653330">
						<ele>397</ele>
						<time>2026-08-28T10:02:14Z</time>
					</trkpt>
					<trkpt lat="45.628630" lon="4.654350">
						<ele>384</ele>
						<time>2026-08-28T10:02:36Z</time>
					</trkpt>
					<trkpt lat="45.628840" lon="4.654230">
						<ele>384</ele>
						<time>2026-08-28T10:02:40Z</time>
					</trkpt>
					<trkpt lat="45.628920" lon="4.654180">
						<ele>384</ele>
						<time>2026-08-28T10:02:42Z</time>
					</trkpt>
					<trkpt lat="45.629020" lon="4.654160">
						<ele>384</ele>
						<time>2026-08-28T10:02:44Z</time>
					</trkpt>
					<trkpt lat="45.629250" lon="4.654130">
						<ele>384</ele>
						<time>2026-08-28T10:02:48Z</time>
					</trkpt>
					<trkpt lat="45.629300" lon="4.654130">
						<ele>384</ele>
						<time>2026-08-28T10:02:49Z</time>
					</trkpt>
					<trkpt lat="45.629350" lon="4.654100">
						<ele>385</ele>
						<time>2026-08-28T10:02:50Z</time>
					</trkpt>
					<trkpt lat="45.629540" lon="4.653900">
						<ele>387</ele>
						<time>2026-08-28T10:02:54Z</time>
					</trkpt>
					<trkpt lat="45.629660" lon="4.653850">
						<ele>387</ele>
						<time>2026-08-28T10:02:56Z</time>
					</trkpt>
					<trkpt lat="45.629810" lon="4.653850">
						<ele>388</ele>
						<time>2026-08-28T10:02:59Z</time>
					</trkpt>
					<trkpt lat="45.630010" lon="4.653930">
						<ele>390</ele>
						<time>2026-08-28T10:03:02Z</time>
					</trkpt>
					<trkpt lat="45.630190" lon="4.653950">
						<ele>392</ele>
						<time>2026-08-28T10:03:06Z</time>
					</trkpt>
					<trkpt lat="45.630660" lon="4.654060">
						<ele>397</ele>
						<time>2026-08-28T10:03:14Z</time>
					</trkpt>
					<trkpt lat="45.631240" lon="4.654180">
						<ele>403</ele>
						<time>2026-08-28T10:03:25Z</time>
					</trkpt>
					<trkpt lat="45.631350" lon="4.654220">
						<ele>405</ele>
						<time>2026-08-28T10:03:27Z</time>
					</trkpt>
					<trkpt lat="45.631450" lon="4.654280">
						<ele>407</ele>
						<time>2026-08-28T10:03:29Z</time>
					</trkpt>
					<trkpt lat="45.631560" lon="4.654380">
						<ele>409</ele>
						<time>2026-08-28T10:03:31Z</time>
					</trkpt>
					<trkpt lat="45.631620" lon="4.654450">
						<ele>410</ele>
						<time>2026-08-28T10:03:32Z</time>
					</trkpt>
					<trkpt lat="45.631820" lon="4.654340">
						<ele>411</ele>
						<time>2026-08-28T10:03:36Z</time>
					</trkpt>
					<trkpt lat="45.632010" lon="4.654410">
						<ele>414</ele>
						<time>2026-08-28T10:03:40Z</time>
					</trkpt>
					<trkpt lat="45.632570" lon="4.654520">
						<ele>420</ele>
						<time>2026-08-28T10:03:50Z</time>
					</trkpt>
					<trkpt lat="45.633190" lon="4.654570">
						<ele>425</ele>
						<time>2026-08-28T10:04:01Z</time>
					</trkpt>
					<trkpt lat="45.633590" lon="4.654720">
						<ele>428</ele>
						<time>2026-08-28T10:04:08Z</time>
					</trkpt>
					<trkpt lat="45.634140" lon="4.654900">
						<ele>430</ele>
						<time>2026-08-28T10:04:18Z</time>
					</trkpt>
					<trkpt lat="45.634570" lon="4.655140">
						<ele>432</ele>
						<time>2026-08-28T10:04:26Z</time>
					</trkpt>
					<trkpt lat="45.634950" lon="4.655400">
						<ele>433</ele>
						<time>2026-08-28T10:04:34Z</time>
					</trkpt>
					<trkpt lat="45.635610" lon="4.655750">
						<ele>437</ele>
						<time>2026-08-28T10:04:46Z</time>
					</trkpt>
					<trkpt lat="45.635860" lon="4.655870">
						<ele>439</ele>
						<time>2026-08-28T10:04:51Z</time>
					</trkpt>
					<trkpt lat="45.636170" lon="4.656010">
						<ele>441</ele>
						<time>2026-08-28T10:04:57Z</time>
					</trkpt>
					<trkpt lat="45.636520" lon="4.656150">
						<ele>445</ele>
						<time>2026-08-28T10:05:03Z</time>
					</trkpt>
					<trkpt lat="45.637320" lon="4.656280">
						<ele>451</ele>
						<time>2026-08-28T10:05:18Z</time>
					</trkpt>
					<trkpt lat="45.637740" lon="4.656410">
						<ele>454</ele>
						<time>2026-08-28T10:05:25Z</time>
					</trkpt>
					<trkpt lat="45.638420" lon="4.656770">
						<ele>456</ele>
						<time>2026-08-28T10:05:38Z</time>
					</trkpt>
					<trkpt lat="45.638650" lon="4.657030">
						<ele>458</ele>
						<time>2026-08-28T10:05:43Z</time>
					</trkpt>
					<trkpt lat="45.639200" lon="4.657750">
						<ele>461</ele>
						<time>2026-08-28T10:05:57Z</time>
					</trkpt>
					<trkpt lat="45.639470" lon="4.658050">
						<ele>462</ele>
						<time>2026-08-28T10:06:03Z</time>
					</trkpt>
					<trkpt lat="45.639900" lon="4.658520">
						<ele>463</ele>
						<time>2026-08-28T10:06:12Z</time>
					</trkpt>
					<trkpt lat="45.640250" lon="4.658850">
						<ele>464</ele>
						<time>2026-08-28T10:06:20Z</time>
					</trkpt>
					<trkpt lat="45.640420" lon="4.659020">
						<ele>465</ele>
						<time>2026-08-28T10:06:23Z</time>
					</trkpt>
					<trkpt lat="45.641690" lon="4.660300">
						<ele>466</ele>
						<time>2026-08-28T10:06:51Z</time>
					</trkpt>
					<trkpt lat="45.642450" lon="4.661120">
						<ele>467</ele>
						<time>2026-08-28T10:07:08Z</time>
					</trkpt>
					<trkpt lat="45.643500" lon="4.662270">
						<ele>469</ele>
						<time>2026-08-28T10:07:32Z</time>
					</trkpt>
					<trkpt lat="45.643640" lon="4.662420">
						<ele>469</ele>
						<time>2026-08-28T10:07:35Z</time>
					</trkpt>
					<trkpt lat="45.644270" lon="4.663220">
						<ele>471</ele>
						<time>2026-08-28T10:07:50Z</time>
					</trkpt>
					<trkpt lat="45.644400" lon="4.663450">
						<ele>471</ele>
						<time>2026-08-28T10:07:53Z</time>
					</trkpt>
					<trkpt lat="45.644440" lon="4.663540">
						<ele>470</ele>
						<time>2026-08-28T10:07:55Z</time>
					</trkpt>
					<trkpt lat="45.644680" lon="4.664170">
						<ele>470</ele>
						<time>2026-08-28T10:08:04Z</time>
					</trkpt>
					<trkpt lat="45.644910" lon="4.664560">
						<ele>470</ele>
						<time>2026-08-28T10:08:10Z</time>
					</trkpt>
					<trkpt lat="45.645040" lon="4.664750">
						<ele>470</ele>
						<time>2026-08-28T10:08:13Z</time>
					</trkpt>
					<trkpt lat="45.645100" lon="4.664850">
						<ele>470</ele>
						<time>2026-08-28T10:08:15Z</time>
					</trkpt>
					<trkpt lat="45.645220" lon="4.665080">
						<ele>470</ele>
						<time>2026-08-28T10:08:18Z</time>
					</trkpt>
					<trkpt lat="45.645260" lon="4.665240">
						<ele>470</ele>
						<time>2026-08-28T10:08:21Z</time>
					</trkpt>
					<trkpt lat="45.645270" lon="4.665470">
						<ele>470</ele>
						<time>2026-08-28T10:08:23Z</time>
					</trkpt>
					<trkpt lat="45.645320" lon="4.665980">
						<ele>469</ele>
						<time>2026-08-28T10:08:30Z</time>
					</trkpt>
					<trkpt lat="45.645350" lon="4.666100">
						<ele>469</ele>
						<time>2026-08-28T10:08:31Z</time>
					</trkpt>
					<trkpt lat="45.645380" lon="4.666320">
						<ele>470</ele>
						<time>2026-08-28T10:08:34Z</time>
					</trkpt>
					<trkpt lat="45.645470" lon="4.666840">
						<ele>472</ele>
						<time>2026-08-28T10:08:41Z</time>
					</trkpt>
					<trkpt lat="45.645470" lon="4.667010">
						<ele>472</ele>
						<time>2026-08-28T10:08:43Z</time>
					</trkpt>
					<trkpt lat="45.645550" lon="4.667170">
						<ele>473</ele>
						<time>2026-08-28T10:08:45Z</time>
					</trkpt>
					<trkpt lat="45.645740" lon="4.667660">
						<ele>477</ele>
						<time>2026-08-28T10:08:52Z</time>
					</trkpt>
					<trkpt lat="45.645930" lon="4.667980">
						<ele>480</ele>
						<time>2026-08-28T10:08:58Z</time>
					</trkpt>
					<trkpt lat="45.646030" lon="4.668340">
						<ele>481</ele>
						<time>2026-08-28T10:09:02Z</time>
					</trkpt>
					<trkpt lat="45.646200" lon="4.668900">
						<ele>484</ele>
						<time>2026-08-28T10:09:10Z</time>
					</trkpt>
					<trkpt lat="45.646390" lon="4.669330">
						<ele>487</ele>
						<time>2026-08-28T10:09:16Z</time>
					</trkpt>
					<trkpt lat="45.646640" lon="4.669790">
						<ele>488</ele>
						<time>2026-08-28T10:09:24Z</time>
					</trkpt>
					<trkpt lat="45.647020" lon="4.670300">
						<ele>490</ele>
						<time>2026-08-28T10:09:33Z</time>
					</trkpt>
					<trkpt lat="45.647020" lon="4.670420">
						<ele>490</ele>
						<time>2026-08-28T10:09:34Z</time>
					</trkpt>
					<trkpt lat="45.646830" lon="4.671190">
						<ele>490</ele>
						<time>2026-08-28T10:09:45Z</time>
					</trkpt>
					<trkpt lat="45.646710" lon="4.671510">
						<ele>491</ele>
						<time>2026-08-28T10:09:49Z</time>
					</trkpt>
					<trkpt lat="45.646670" lon="4.671590">
						<ele>492</ele>
						<time>2026-08-28T10:09:50Z</time>
					</trkpt>
					<trkpt lat="45.646460" lon="4.672060">
						<ele>490</ele>
						<time>2026-08-28T10:09:57Z</time>
					</trkpt>
					<trkpt lat="45.646490" lon="4.672210">
						<ele>490</ele>
						<time>2026-08-28T10:09:59Z</time>
					</trkpt>
					<trkpt lat="45.646510" lon="4.672870">
						<ele>488</ele>
						<time>2026-08-28T10:10:07Z</time>
					</trkpt>
					<trkpt lat="45.646540" lon="4.672880">
						<ele>488</ele>
						<time>2026-08-28T10:10:08Z</time>
					</trkpt>
					<trkpt lat="45.646510" lon="4.672870">
						<ele>488</ele>
						<time>2026-08-28T10:10:08Z</time>
					</trkpt>
					<trkpt lat="45.646490" lon="4.672210">
						<ele>490</ele>
						<time>2026-08-28T10:10:17Z</time>
					</trkpt>
					<trkpt lat="45.646460" lon="4.672060">
						<ele>490</ele>
						<time>2026-08-28T10:10:19Z</time>
					</trkpt>
					<trkpt lat="45.646670" lon="4.671590">
						<ele>492</ele>
						<time>2026-08-28T10:10:26Z</time>
					</trkpt>
					<trkpt lat="45.646710" lon="4.671510">
						<ele>491</ele>
						<time>2026-08-28T10:10:27Z</time>
					</trkpt>
					<trkpt lat="45.646830" lon="4.671190">
						<ele>490</ele>
						<time>2026-08-28T10:10:31Z</time>
					</trkpt>
					<trkpt lat="45.647020" lon="4.670420">
						<ele>490</ele>
						<time>2026-08-28T10:10:41Z</time>
					</trkpt>
					<trkpt lat="45.647020" lon="4.670300">
						<ele>490</ele>
						<time>2026-08-28T10:10:43Z</time>
					</trkpt>
					<trkpt lat="45.647200" lon="4.669810">
						<ele>493</ele>
						<time>2026-08-28T10:10:50Z</time>
					</trkpt>
					<trkpt lat="45.647240" lon="4.669650">
						<ele>495</ele>
						<time>2026-08-28T10:10:52Z</time>
					</trkpt>
					<trkpt lat="45.647310" lon="4.668880">
						<ele>502</ele>
						<time>2026-08-28T10:11:02Z</time>
					</trkpt>
					<trkpt lat="45.647340" lon="4.668400">
						<ele>505</ele>
						<time>2026-08-28T10:11:08Z</time>
					</trkpt>
					<trkpt lat="45.647420" lon="4.667580">
						<ele>507</ele>
						<time>2026-08-28T10:11:18Z</time>
					</trkpt>
					<trkpt lat="45.647450" lon="4.667130">
						<ele>509</ele>
						<time>2026-08-28T10:11:24Z</time>
					</trkpt>
					<trkpt lat="45.647480" lon="4.666930">
						<ele>509</ele>
						<time>2026-08-28T10:11:26Z</time>
					</trkpt>
					<trkpt lat="45.647520" lon="4.666750">
						<ele>510</ele>
						<time>2026-08-28T10:11:28Z</time>
					</trkpt>
					<trkpt lat="45.647650" lon="4.666300">
						<ele>510</ele>
						<time>2026-08-28T10:11:34Z</time>
					</trkpt>
					<trkpt lat="45.647720" lon="4.666040">
						<ele>510</ele>
						<time>2026-08-28T10:11:38Z</time>
					</trkpt>
					<trkpt lat="45.647750" lon="4.665770">
						<ele>510</ele>
						<time>2026-08-28T10:11:41Z</time>
					</trkpt>
					<trkpt lat="45.647800" lon="4.665500">
						<ele>511</ele>
						<time>2026-08-28T10:11:45Z</time>
					</trkpt>
					<trkpt lat="45.647980" lon="4.664820">
						<ele>513</ele>
						<time>2026-08-28T10:11:54Z</time>
					</trkpt>
					<trkpt lat="45.648090" lon="4.664420">
						<ele>515</ele>
						<time>2026-08-28T10:11:59Z</time>
					</trkpt>
					<trkpt lat="45.648320" lon="4.663790">
						<ele>520</ele>
						<time>2026-08-28T10:12:08Z</time>
					</trkpt>
					<trkpt lat="45.648560" lon="4.663250">
						<ele>524</ele>
						<time>2026-08-28T10:12:16Z</time>
					</trkpt>
					<trkpt lat="45.648980" lon="4.661900">
						<ele>533</ele>
						<time>2026-08-28T10:12:34Z</time>
					</trkpt>
					<trkpt lat="45.649070" lon="4.661640">
						<ele>535</ele>
						<time>2026-08-28T10:12:38Z</time>
					</trkpt>
					<trkpt lat="45.649150" lon="4.661520">
						<ele>535</ele>
						<time>2026-08-28T10:12:40Z</time>
					</trkpt>
					<trkpt lat="45.649920" lon="4.660450">
						<ele>534</ele>
						<time>2026-08-28T10:12:59Z</time>
					</trkpt>
					<trkpt lat="45.649990" lon="4.660330">
						<ele>535</ele>
						<time>2026-08-28T10:13:01Z</time>
					</trkpt>
					<trkpt lat="45.650030" lon="4.660210">
						<ele>535</ele>
						<time>2026-08-28T10:13:03Z</time>
					</trkpt>
					<trkpt lat="45.650080" lon="4.660060">
						<ele>534</ele>
						<time>2026-08-28T10:13:05Z</time>
					</trkpt>
					<trkpt lat="45.650080" lon="4.659880">
						<ele>534</ele>
						<time>2026-08-28T10:13:07Z</time>
					</trkpt>
					<trkpt lat="45.650070" lon="4.659730">
						<ele>534</ele>
						<time>2026-08-28T10:13:09Z</time>
					</trkpt>
					<trkpt lat="45.650000" lon="4.659170">
						<ele>534</ele>
						<time>2026-08-28T10:13:16Z</time>
					</trkpt>
					<trkpt lat="45.649990" lon="4.658710">
						<ele>534</ele>
						<time>2026-08-28T10:13:22Z</time>
					</trkpt>
					<trkpt lat="45.650030" lon="4.658350">
						<ele>534</ele>
						<time>2026-08-28T10:13:26Z</time>
					</trkpt>
					<trkpt lat="45.650190" lon="4.657070">
						<ele>542</ele>
						<time>2026-08-28T10:13:42Z</time>
					</trkpt>
					<trkpt lat="45.650250" lon="4.656710">
						<ele>543</ele>
						<time>2026-08-28T10:13:47Z</time>
					</trkpt>
					<trkpt lat="45.650260" lon="4.656510">
						<ele>544</ele>
						<time>2026-08-28T10:13:50Z</time>
					</trkpt>
					<trkpt lat="45.650260" lon="4.656270">
						<ele>546</ele>
						<time>2026-08-28T10:13:53Z</time>
					</trkpt>
					<trkpt lat="45.650190" lon="4.655520">
						<ele>552</ele>
						<time>2026-08-28T10:14:02Z</time>
					</trkpt>
					<trkpt lat="45.650250" lon="4.654550">
						<ele>564</ele>
						<time>2026-08-28T10:14:14Z</time>
					</trkpt>
					<trkpt lat="45.650280" lon="4.654460">
						<ele>565</ele>
						<time>2026-08-28T10:14:15Z</time>
					</trkpt>
					<trkpt lat="45.650410" lon="4.654170">
						<ele>570</ele>
						<time>2026-08-28T10:14:20Z</time>
					</trkpt>
					<trkpt lat="45.650620" lon="4.653880">
						<ele>573</ele>
						<time>2026-08-28T10:14:25Z</time>
					</trkpt>
					<trkpt lat="45.650800" lon="4.653590">
						<ele>576</ele>
						<time>2026-08-28T10:14:30Z</time>
					</trkpt>
					<trkpt lat="45.650960" lon="4.653310">
						<ele>579</ele>
						<time>2026-08-28T10:14:34Z</time>
					</trkpt>
					<trkpt lat="45.651060" lon="4.652960">
						<ele>580</ele>
						<time>2026-08-28T10:14:39Z</time>
					</trkpt>
					<trkpt lat="45.651150" lon="4.652560">
						<ele>582</ele>
						<time>2026-08-28T10:14:44Z</time>
					</trkpt>
					<trkpt lat="45.651180" lon="4.652260">
						<ele>581</ele>
						<time>2026-08-28T10:14:48Z</time>
					</trkpt>
					<trkpt lat="45.651200" lon="4.651630">
						<ele>580</ele>
						<time>2026-08-28T10:14:56Z</time>
					</trkpt>
					<trkpt lat="45.651220" lon="4.650620">
						<ele>571</ele>
						<time>2026-08-28T10:15:08Z</time>
					</trkpt>
					<trkpt lat="45.651370" lon="4.649860">
						<ele>563</ele>
						<time>2026-08-28T10:15:18Z</time>
					</trkpt>
					<trkpt lat="45.651580" lon="4.648580">
						<ele>552</ele>
						<time>2026-08-28T10:15:34Z</time>
					</trkpt>
					<trkpt lat="45.651700" lon="4.648070">
						<ele>548</ele>
						<time>2026-08-28T10:15:41Z</time>
					</trkpt>
					<trkpt lat="45.651790" lon="4.647610">
						<ele>545</ele>
						<time>2026-08-28T10:15:47Z</time>
					</trkpt>
					<trkpt lat="45.651750" lon="4.647280">
						<ele>543</ele>
						<time>2026-08-28T10:15:51Z</time>
					</trkpt>
					<trkpt lat="45.651700" lon="4.647060">
						<ele>542</ele>
						<time>2026-08-28T10:15:54Z</time>
					</trkpt>
					<trkpt lat="45.651620" lon="4.646840">
						<ele>542</ele>
						<time>2026-08-28T10:15:57Z</time>
					</trkpt>
					<trkpt lat="45.651090" lon="4.645670">
						<ele>544</ele>
						<time>2026-08-28T10:16:14Z</time>
					</trkpt>
					<trkpt lat="45.650850" lon="4.645160">
						<ele>544</ele>
						<time>2026-08-28T10:16:22Z</time>
					</trkpt>
					<trkpt lat="45.651170" lon="4.644660">
						<ele>542</ele>
						<time>2026-08-28T10:16:31Z</time>
					</trkpt>
					<trkpt lat="45.651220" lon="4.644550">
						<ele>542</ele>
						<time>2026-08-28T10:16:32Z</time>
					</trkpt>
					<trkpt lat="45.651230" lon="4.644430">
						<ele>542</ele>
						<time>2026-08-28T10:16:34Z</time>
					</trkpt>
					<trkpt lat="45.651330" lon="4.644390">
						<ele>542</ele>
						<time>2026-08-28T10:16:36Z</time>
					</trkpt>
					<trkpt lat="45.651490" lon="4.644280">
						<ele>541</ele>
						<time>2026-08-28T10:16:39Z</time>
					</trkpt>
					<trkpt lat="45.652370" lon="4.643350">
						<ele>535</ele>
						<time>2026-08-28T10:16:58Z</time>
					</trkpt>
					<trkpt lat="45.652610" lon="4.643080">
						<ele>532</ele>
						<time>2026-08-28T10:17:04Z</time>
					</trkpt>
					<trkpt lat="45.652690" lon="4.642920">
						<ele>531</ele>
						<time>2026-08-28T10:17:06Z</time>
					</trkpt>
					<trkpt lat="45.652720" lon="4.642770">
						<ele>530</ele>
						<time>2026-08-28T10:17:08Z</time>
					</trkpt>
					<trkpt lat="45.652730" lon="4.642630">
						<ele>530</ele>
						<time>2026-08-28T10:17:10Z</time>
					</trkpt>
					<trkpt lat="45.652710" lon="4.642480">
						<ele>530</ele>
						<time>2026-08-28T10:17:12Z</time>
					</trkpt>
					<trkpt lat="45.651830" lon="4.639390">
						<ele>536</ele>
						<time>2026-08-28T10:17:53Z</time>
					</trkpt>
					<trkpt lat="45.651830" lon="4.639030">
						<ele>538</ele>
						<time>2026-08-28T10:17:58Z</time>
					</trkpt>
					<trkpt lat="45.651990" lon="4.638810">
						<ele>538</ele>
						<time>2026-08-28T10:18:02Z</time>
					</trkpt>
					<trkpt lat="45.652340" lon="4.638650">
						<ele>532</ele>
						<time>2026-08-28T10:18:08Z</time>
					</trkpt>
					<trkpt lat="45.652660" lon="4.638420">
						<ele>529</ele>
						<time>2026-08-28T10:18:14Z</time>
					</trkpt>
					<trkpt lat="45.653170" lon="4.638180">
						<ele>524</ele>
						<time>2026-08-28T10:18:24Z</time>
					</trkpt>
					<trkpt lat="45.653530" lon="4.638140">
						<ele>518</ele>
						<time>2026-08-28T10:18:30Z</time>
					</trkpt>
					<trkpt lat="45.653840" lon="4.637850">
						<ele>517</ele>
						<time>2026-08-28T10:18:37Z</time>
					</trkpt>
					<trkpt lat="45.654070" lon="4.637370">
						<ele>518</ele>
						<time>2026-08-28T10:18:44Z</time>
					</trkpt>
					<trkpt lat="45.654220" lon="4.637200">
						<ele>515</ele>
						<time>2026-08-28T10:18:48Z</time>
					</trkpt>
					<trkpt lat="45.654600" lon="4.637040">
						<ele>504</ele>
						<time>2026-08-28T10:18:55Z</time>
					</trkpt>
					<trkpt lat="45.654770" lon="4.636770">
						<ele>502</ele>
						<time>2026-08-28T10:18:59Z</time>
					</trkpt>
					<trkpt lat="45.654840" lon="4.636540">
						<ele>501</ele>
						<time>2026-08-28T10:19:02Z</time>
					</trkpt>
					<trkpt lat="45.654870" lon="4.636320">
						<ele>499</ele>
						<time>2026-08-28T10:19:05Z</time>
					</trkpt>
					<trkpt lat="45.654880" lon="4.636150">
						<ele>498</ele>
						<time>2026-08-28T10:19:07Z</time>
					</trkpt>
					<trkpt lat="45.654860" lon="4.636000">
						<ele>498</ele>
						<time>2026-08-28T10:19:09Z</time>
					</trkpt>
					<trkpt lat="45.654830" lon="4.635860">
						<ele>499</ele>
						<time>2026-08-28T10:19:11Z</time>
					</trkpt>
					<trkpt lat="45.654710" lon="4.635570">
						<ele>497</ele>
						<time>2026-08-28T10:19:15Z</time>
					</trkpt>
					<trkpt lat="45.654580" lon="4.635340">
						<ele>496</ele>
						<time>2026-08-28T10:19:19Z</time>
					</trkpt>
					<trkpt lat="45.654350" lon="4.635050">
						<ele>496</ele>
						<time>2026-08-28T10:19:24Z</time>
					</trkpt>
					<trkpt lat="45.653790" lon="4.634520">
						<ele>498</ele>
						<time>2026-08-28T10:19:36Z</time>
					</trkpt>
					<trkpt lat="45.653710" lon="4.634400">
						<ele>499</ele>
						<time>2026-08-28T10:19:38Z</time>
					</trkpt>
					<trkpt lat="45.653680" lon="4.634210">
						<ele>497</ele>
						<time>2026-08-28T10:19:41Z</time>
					</trkpt>
					<trkpt lat="45.653730" lon="4.633980">
						<ele>497</ele>
						<time>2026-08-28T10:19:44Z</time>
					</trkpt>
					<trkpt lat="45.654070" lon="4.633400">
						<ele>491</ele>
						<time>2026-08-28T10:19:53Z</time>
					</trkpt>
					<trkpt lat="45.654150" lon="4.633290">
						<ele>489</ele>
						<time>2026-08-28T10:19:55Z</time>
					</trkpt>
					<trkpt lat="45.654280" lon="4.633220">
						<ele>488</ele>
						<time>2026-08-28T10:19:58Z</time>
					</trkpt>
					<trkpt lat="45.654530" lon="4.633220">
						<ele>484</ele>
						<time>2026-08-28T10:20:02Z</time>
					</trkpt>
					<trkpt lat="45.654710" lon="4.633160">
						<ele>482</ele>
						<time>2026-08-28T10:20:05Z</time>
					</trkpt>
					<trkpt lat="45.655160" lon="4.632830">
						<ele>477</ele>
						<time>2026-08-28T10:20:14Z</time>
					</trkpt>
					<trkpt lat="45.655280" lon="4.632580">
						<ele>475</ele>
						<time>2026-08-28T10:20:18Z</time>
					</trkpt>
					<trkpt lat="45.655310" lon="4.632260">
						<ele>473</ele>
						<time>2026-08-28T10:20:22Z</time>
					</trkpt>
					<trkpt lat="45.655160" lon="4.631490">
						<ele>472</ele>
						<time>2026-08-28T10:20:32Z</time>
					</trkpt>
					<trkpt lat="45.654860" lon="4.630750">
						<ele>469</ele>
						<time>2026-08-28T10:20:43Z</time>
					</trkpt>
					<trkpt lat="45.654710" lon="4.630470">
						<ele>467</ele>
						<time>2026-08-28T10:20:47Z</time>
					</trkpt>
					<trkpt lat="45.654360" lon="4.630170">
						<ele>469</ele>
						<time>2026-08-28T10:20:54Z</time>
					</trkpt>
					<trkpt lat="45.654270" lon="4.630040">
						<ele>469</ele>
						<time>2026-08-28T10:20:57Z</time>
					</trkpt>
					<trkpt lat="45.654230" lon="4.629850">
						<ele>467</ele>
						<time>2026-08-28T10:20:59Z</time>
					</trkpt>
					<trkpt lat="45.654190" lon="4.629380">
						<ele>459</ele>
						<time>2026-08-28T10:21:05Z</time>
					</trkpt>
					<trkpt lat="45.654140" lon="4.629200">
						<ele>456</ele>
						<time>2026-08-28T10:21:07Z</time>
					</trkpt>
					<trkpt lat="45.654030" lon="4.628980">
						<ele>455</ele>
						<time>2026-08-28T10:21:11Z</time>
					</trkpt>
					<trkpt lat="45.653850" lon="4.628750">
						<ele>454</ele>
						<time>2026-08-28T10:21:15Z</time>
					</trkpt>
					<trkpt lat="45.653490" lon="4.628500">
						<ele>456</ele>
						<time>2026-08-28T10:21:22Z</time>
					</trkpt>
					<trkpt lat="45.653350" lon="4.628220">
						<ele>455</ele>
						<time>2026-08-28T10:21:26Z</time>
					</trkpt>
					<trkpt lat="45.653300" lon="4.627870">
						<ele>456</ele>
						<time>2026-08-28T10:21:31Z</time>
					</trkpt>
					<trkpt lat="45.653330" lon="4.627690">
						<ele>455</ele>
						<time>2026-08-28T10:21:33Z</time>
					</trkpt>
					<trkpt lat="45.653430" lon="4.627010">
						<ele>457</ele>
						<time>2026-08-28T10:21:42Z</time>
					</trkpt>
					<trkpt lat="45.653470" lon="4.626780">
						<ele>458</ele>
						<time>2026-08-28T10:21:45Z</time>
					</trkpt>
					<trkpt lat="45.653540" lon="4.626630">
						<ele>458</ele>
						<time>2026-08-28T10:21:47Z</time>
					</trkpt>
					<trkpt lat="45.653590" lon="4.626570">
						<ele>457</ele>
						<time>2026-08-28T10:21:48Z</time>
					</trkpt>
					<trkpt lat="45.653720" lon="4.626510">
						<ele>456</ele>
						<time>2026-08-28T10:21:51Z</time>
					</trkpt>
					<trkpt lat="45.653820" lon="4.626520">
						<ele>455</ele>
						<time>2026-08-28T10:21:52Z</time>
					</trkpt>
					<trkpt lat="45.653910" lon="4.626560">
						<ele>454</ele>
						<time>2026-08-28T10:21:54Z</time>
					</trkpt>
					<trkpt lat="45.654850" lon="4.627220">
						<ele>457</ele>
						<time>2026-08-28T10:22:13Z</time>
					</trkpt>
					<trkpt lat="45.655650" lon="4.627840">
						<ele>464</ele>
						<time>2026-08-28T10:22:29Z</time>
					</trkpt>
					<trkpt lat="45.656130" lon="4.628240">
						<ele>467</ele>
						<time>2026-08-28T10:22:39Z</time>
					</trkpt>
					<trkpt lat="45.657220" lon="4.629170">
						<ele>467</ele>
						<time>2026-08-28T10:23:01Z</time>
					</trkpt>
					<trkpt lat="45.657300" lon="4.629230">
						<ele>467</ele>
						<time>2026-08-28T10:23:03Z</time>
					</trkpt>
					<trkpt lat="45.657420" lon="4.629300">
						<ele>468</ele>
						<time>2026-08-28T10:23:05Z</time>
					</trkpt>
					<trkpt lat="45.657520" lon="4.629330">
						<ele>469</ele>
						<time>2026-08-28T10:23:07Z</time>
					</trkpt>
					<trkpt lat="45.657660" lon="4.629310">
						<ele>470</ele>
						<time>2026-08-28T10:23:10Z</time>
					</trkpt>
					<trkpt lat="45.657730" lon="4.629270">
						<ele>471</ele>
						<time>2026-08-28T10:23:11Z</time>
					</trkpt>
					<trkpt lat="45.657800" lon="4.629210">
						<ele>472</ele>
						<time>2026-08-28T10:23:12Z</time>
					</trkpt>
					<trkpt lat="45.658030" lon="4.628990">
						<ele>477</ele>
						<time>2026-08-28T10:23:17Z</time>
					</trkpt>
					<trkpt lat="45.658130" lon="4.628900">
						<ele>479</ele>
						<time>2026-08-28T10:23:19Z</time>
					</trkpt>
					<trkpt lat="45.658190" lon="4.628870">
						<ele>479</ele>
						<time>2026-08-28T10:23:21Z</time>
					</trkpt>
					<trkpt lat="45.658250" lon="4.628850">
						<ele>480</ele>
						<time>2026-08-28T10:23:22Z</time>
					</trkpt>
					<trkpt lat="45.658300" lon="4.628850">
						<ele>480</ele>
						<time>2026-08-28T10:23:23Z</time>
					</trkpt>
					<trkpt lat="45.658360" lon="4.628860">
						<ele>481</ele>
						<time>2026-08-28T10:23:24Z</time>
					</trkpt>
					<trkpt lat="45.658420" lon="4.628880">
						<ele>481</ele>
						<time>2026-08-28T10:23:25Z</time>
					</trkpt>
					<trkpt lat="45.658470" lon="4.628930">
						<ele>482</ele>
						<time>2026-08-28T10:23:26Z</time>
					</trkpt>
					<trkpt lat="45.658520" lon="4.628990">
						<ele>482</ele>
						<time>2026-08-28T10:23:27Z</time>
					</trkpt>
					<trkpt lat="45.658550" lon="4.629080">
						<ele>482</ele>
						<time>2026-08-28T10:23:28Z</time>
					</trkpt>
					<trkpt lat="45.658570" lon="4.629200">
						<ele>481</ele>
						<time>2026-08-28T10:23:30Z</time>
					</trkpt>
					<trkpt lat="45.658620" lon="4.629850">
						<ele>479</ele>
						<time>2026-08-28T10:23:38Z</time>
					</trkpt>
					<trkpt lat="45.658660" lon="4.630070">
						<ele>479</ele>
						<time>2026-08-28T10:23:41Z</time>
					</trkpt>
					<trkpt lat="45.658730" lon="4.630330">
						<ele>479</ele>
						<time>2026-08-28T10:23:44Z</time>
					</trkpt>
					<trkpt lat="45.658760" lon="4.630390">
						<ele>480</ele>
						<time>2026-08-28T10:23:45Z</time>
					</trkpt>
					<trkpt lat="45.658800" lon="4.630490">
						<ele>480</ele>
						<time>2026-08-28T10:23:46Z</time>
					</trkpt>
					<trkpt lat="45.659310" lon="4.631150">
						<ele>487</ele>
						<time>2026-08-28T10:23:59Z</time>
					</trkpt>
					<trkpt lat="45.659420" lon="4.631320">
						<ele>487</ele>
						<time>2026-08-28T10:24:02Z</time>
					</trkpt>
					<trkpt lat="45.659470" lon="4.631450">
						<ele>487</ele>
						<time>2026-08-28T10:24:03Z</time>
					</trkpt>
					<trkpt lat="45.659700" lon="4.632210">
						<ele>488</ele>
						<time>2026-08-28T10:24:14Z</time>
					</trkpt>
					<trkpt lat="45.659740" lon="4.632260">
						<ele>489</ele>
						<time>2026-08-28T10:24:15Z</time>
					</trkpt>
					<trkpt lat="45.659780" lon="4.632320">
						<ele>489</ele>
						<time>2026-08-28T10:24:16Z</time>
					</trkpt>
					<trkpt lat="45.659840" lon="4.632380">
						<ele>490</ele>
						<time>2026-08-28T10:24:17Z</time>
					</trkpt>
					<trkpt lat="45.660060" lon="4.632480">
						<ele>492</ele>
						<time>2026-08-28T10:24:21Z</time>
					</trkpt>
					<trkpt lat="45.660170" lon="4.632480">
						<ele>493</ele>
						<time>2026-08-28T10:24:23Z</time>
					</trkpt>
					<trkpt lat="45.660370" lon="4.632380">
						<ele>494</ele>
						<time>2026-08-28T10:24:27Z</time>
					</trkpt>
					<trkpt lat="45.660480" lon="4.632330">
						<ele>494</ele>
						<time>2026-08-28T10:24:29Z</time>
					</trkpt>
					<trkpt lat="45.660610" lon="4.632260">
						<ele>494</ele>
						<time>2026-08-28T10:24:31Z</time>
					</trkpt>
					<trkpt lat="45.660710" lon="4.632090">
						<ele>495</ele>
						<time>2026-08-28T10:24:34Z</time>
					</trkpt>
					<trkpt lat="45.660710" lon="4.632080">
						<ele>495</ele>
						<time>2026-08-28T10:24:34Z</time>
					</trkpt>
					<trkpt lat="45.660600" lon="4.631950">
						<ele>495</ele>
						<time>2026-08-28T10:24:37Z</time>
					</trkpt>
					<trkpt lat="45.660560" lon="4.631910">
						<ele>495</ele>
						<time>2026-08-28T10:24:38Z</time>
					</trkpt>
					<trkpt lat="45.660530" lon="4.631800">
						<ele>495</ele>
						<time>2026-08-28T10:24:39Z</time>
					</trkpt>
					<trkpt lat="45.660530" lon="4.631510">
						<ele>496</ele>
						<time>2026-08-28T10:24:43Z</time>
					</trkpt>
					<trkpt lat="45.660550" lon="4.631290">
						<ele>497</ele>
						<time>2026-08-28T10:24:46Z</time>
					</trkpt>
					<trkpt lat="45.660550" lon="4.630990">
						<ele>498</ele>
						<time>2026-08-28T10:24:49Z</time>
					</trkpt>
					<trkpt lat="45.660550" lon="4.630930">
						<ele>498</ele>
						<time>2026-08-28T10:24:50Z</time>
					</trkpt>
					<trkpt lat="45.660540" lon="4.630830">
						<ele>499</ele>
						<time>2026-08-28T10:24:51Z</time>
					</trkpt>
					<trkpt lat="45.660510" lon="4.630740">
						<ele>500</ele>
						<time>2026-08-28T10:24:52Z</time>
					</trkpt>
					<trkpt lat="45.660440" lon="4.630670">
						<ele>500</ele>
						<time>2026-08-28T10:24:54Z</time>
					</trkpt>
					<trkpt lat="45.659920" lon="4.630140">
						<ele>504</ele>
						<time>2026-08-28T10:25:05Z</time>
					</trkpt>
					<trkpt lat="45.659760" lon="4.629940">
						<ele>503</ele>
						<time>2026-08-28T10:25:09Z</time>
					</trkpt>
					<trkpt lat="45.659700" lon="4.629820">
						<ele>502</ele>
						<time>2026-08-28T10:25:11Z</time>
					</trkpt>
					<trkpt lat="45.659660" lon="4.629640">
						<ele>502</ele>
						<time>2026-08-28T10:25:13Z</time>
					</trkpt>
					<trkpt lat="45.659650" lon="4.629480">
						<ele>502</ele>
						<time>2026-08-28T10:25:15Z</time>
					</trkpt>
					<trkpt lat="45.659700" lon="4.629210">
						<ele>504</ele>
						<time>2026-08-28T10:25:19Z</time>
					</trkpt>
					<trkpt lat="45.659860" lon="4.628680">
						<ele>508</ele>
						<time>2026-08-28T10:25:26Z</time>
					</trkpt>
					<trkpt lat="45.659980" lon="4.628250">
						<ele>511</ele>
						<time>2026-08-28T10:25:32Z</time>
					</trkpt>
					<trkpt lat="45.659990" lon="4.628120">
						<ele>513</ele>
						<time>2026-08-28T10:25:33Z</time>
					</trkpt>
					<trkpt lat="45.659990" lon="4.628010">
						<ele>514</ele>
						<time>2026-08-28T10:25:35Z</time>
					</trkpt>
					<trkpt lat="45.659970" lon="4.627910">
						<ele>515</ele>
						<time>2026-08-28T10:25:36Z</time>
					</trkpt>
					<trkpt lat="45.659930" lon="4.627800">
						<ele>515</ele>
						<time>2026-08-28T10:25:38Z</time>
					</trkpt>
					<trkpt lat="45.659860" lon="4.627670">
						<ele>515</ele>
						<time>2026-08-28T10:25:40Z</time>
					</trkpt>
					<trkpt lat="45.659750" lon="4.627530">
						<ele>515</ele>
						<time>2026-08-28T10:25:42Z</time>
					</trkpt>
					<trkpt lat="45.659530" lon="4.627270">
						<ele>516</ele>
						<time>2026-08-28T10:25:47Z</time>
					</trkpt>
					<trkpt lat="45.659310" lon="4.627030">
						<ele>519</ele>
						<time>2026-08-28T10:25:52Z</time>
					</trkpt>
					<trkpt lat="45.659260" lon="4.626990">
						<ele>520</ele>
						<time>2026-08-28T10:25:53Z</time>
					</trkpt>
					<trkpt lat="45.659130" lon="4.626930">
						<ele>521</ele>
						<time>2026-08-28T10:25:56Z</time>
					</trkpt>
					<trkpt lat="45.659050" lon="4.626910">
						<ele>521</ele>
						<time>2026-08-28T10:25:57Z</time>
					</trkpt>
					<trkpt lat="45.658940" lon="4.626900">
						<ele>522</ele>
						<time>2026-08-28T10:25:59Z</time>
					</trkpt>
					<trkpt lat="45.658810" lon="4.626920">
						<ele>522</ele>
						<time>2026-08-28T10:26:01Z</time>
					</trkpt>
					<trkpt lat="45.658560" lon="4.627000">
						<ele>521</ele>
						<time>2026-08-28T10:26:06Z</time>
					</trkpt>
					<trkpt lat="45.658070" lon="4.627110">
						<ele>519</ele>
						<time>2026-08-28T10:26:15Z</time>
					</trkpt>
					<trkpt lat="45.657950" lon="4.627110">
						<ele>519</ele>
						<time>2026-08-28T10:26:17Z</time>
					</trkpt>
					<trkpt lat="45.657870" lon="4.627100">
						<ele>519</ele>
						<time>2026-08-28T10:26:18Z</time>
					</trkpt>
					<trkpt lat="45.656940" lon="4.626760">
						<ele>521</ele>
						<time>2026-08-28T10:26:35Z</time>
					</trkpt>
					<trkpt lat="45.656840" lon="4.626710">
						<ele>521</ele>
						<time>2026-08-28T10:26:37Z</time>
					</trkpt>
					<trkpt lat="45.656750" lon="4.626650">
						<ele>521</ele>
						<time>2026-08-28T10:26:39Z</time>
					</trkpt>
					<trkpt lat="45.656700" lon="4.626570">
						<ele>520</ele>
						<time>2026-08-28T10:26:40Z</time>
					</trkpt>
					<trkpt lat="45.656640" lon="4.626440">
						<ele>520</ele>
						<time>2026-08-28T10:26:42Z</time>
					</trkpt>
					<trkpt lat="45.656600" lon="4.626280">
						<ele>520</ele>
						<time>2026-08-28T10:26:44Z</time>
					</trkpt>
					<trkpt lat="45.656610" lon="4.626140">
						<ele>521</ele>
						<time>2026-08-28T10:26:46Z</time>
					</trkpt>
					<trkpt lat="45.656640" lon="4.625970">
						<ele>523</ele>
						<time>2026-08-28T10:26:48Z</time>
					</trkpt>
					<trkpt lat="45.656670" lon="4.625870">
						<ele>525</ele>
						<time>2026-08-28T10:26:50Z</time>
					</trkpt>
					<trkpt lat="45.656840" lon="4.625480">
						<ele>525</ele>
						<time>2026-08-28T10:26:55Z</time>
					</trkpt>
					<trkpt lat="45.656980" lon="4.625170">
						<ele>526</ele>
						<time>2026-08-28T10:27:00Z</time>
					</trkpt>
					<trkpt lat="45.657040" lon="4.625060">
						<ele>526</ele>
						<time>2026-08-28T10:27:02Z</time>
					</trkpt>
					<trkpt lat="45.657400" lon="4.624620">
						<ele>531</ele>
						<time>2026-08-28T10:27:10Z</time>
					</trkpt>
					<trkpt lat="45.657560" lon="4.624390">
						<ele>533</ele>
						<time>2026-08-28T10:27:14Z</time>
					</trkpt>
					<trkpt lat="45.657650" lon="4.624220">
						<ele>533</ele>
						<time>2026-08-28T10:27:17Z</time>
					</trkpt>
					<trkpt lat="45.657790" lon="4.623920">
						<ele>536</ele>
						<time>2026-08-28T10:27:21Z</time>
					</trkpt>
					<trkpt lat="45.657860" lon="4.623740">
						<ele>538</ele>
						<time>2026-08-28T10:27:24Z</time>
					</trkpt>
					<trkpt lat="45.657890" lon="4.623620">
						<ele>539</ele>
						<time>2026-08-28T10:27:26Z</time>
					</trkpt>
					<trkpt lat="45.657920" lon="4.623410">
						<ele>539</ele>
						<time>2026-08-28T10:27:28Z</time>
					</trkpt>
					<trkpt lat="45.657910" lon="4.623260">
						<ele>540</ele>
						<time>2026-08-28T10:27:30Z</time>
					</trkpt>
					<trkpt lat="45.657880" lon="4.623040">
						<ele>541</ele>
						<time>2026-08-28T10:27:33Z</time>
					</trkpt>
					<trkpt lat="45.657840" lon="4.622910">
						<ele>541</ele>
						<time>2026-08-28T10:27:35Z</time>
					</trkpt>
					<trkpt lat="45.657740" lon="4.622680">
						<ele>541</ele>
						<time>2026-08-28T10:27:38Z</time>
					</trkpt>
					<trkpt lat="45.657620" lon="4.622340">
						<ele>540</ele>
						<time>2026-08-28T10:27:43Z</time>
					</trkpt>
					<trkpt lat="45.657570" lon="4.622150">
						<ele>540</ele>
						<time>2026-08-28T10:27:45Z</time>
					</trkpt>
					<trkpt lat="45.657560" lon="4.621990">
						<ele>541</ele>
						<time>2026-08-28T10:27:47Z</time>
					</trkpt>
					<trkpt lat="45.657560" lon="4.621830">
						<ele>541</ele>
						<time>2026-08-28T10:27:49Z</time>
					</trkpt>
					<trkpt lat="45.657590" lon="4.621670">
						<ele>543</ele>
						<time>2026-08-28T10:27:51Z</time>
					</trkpt>
					<trkpt lat="45.657660" lon="4.621380">
						<ele>544</ele>
						<time>2026-08-28T10:27:55Z</time>
					</trkpt>
					<trkpt lat="45.657690" lon="4.621230">
						<ele>544</ele>
						<time>2026-08-28T10:27:57Z</time>
					</trkpt>
					<trkpt lat="45.657710" lon="4.621010">
						<ele>544</ele>
						<time>2026-08-28T10:28:00Z</time>
					</trkpt>
					<trkpt lat="45.657740" lon="4.620770">
						<ele>544</ele>
						<time>2026-08-28T10:28:03Z</time>
					</trkpt>
					<trkpt lat="45.657780" lon="4.620620">
						<ele>544</ele>
						<time>2026-08-28T10:28:05Z</time>
					</trkpt>
					<trkpt lat="45.657980" lon="4.620340">
						<ele>547</ele>
						<time>2026-08-28T10:28:10Z</time>
					</trkpt>
					<trkpt lat="45.658110" lon="4.620060">
						<ele>548</ele>
						<time>2026-08-28T10:28:14Z</time>
					</trkpt>
					<trkpt lat="45.658340" lon="4.619490">
						<ele>552</ele>
						<time>2026-08-28T10:28:22Z</time>
					</trkpt>
					<trkpt lat="45.658490" lon="4.619160">
						<ele>554</ele>
						<time>2026-08-28T10:28:27Z</time>
					</trkpt>
					<trkpt lat="45.658680" lon="4.618860">
						<ele>555</ele>
						<time>2026-08-28T10:28:32Z</time>
					</trkpt>
					<trkpt lat="45.658970" lon="4.618400">
						<ele>558</ele>
						<time>2026-08-28T10:28:40Z</time>
					</trkpt>
					<trkpt lat="45.659040" lon="4.618210">
						<ele>558</ele>
						<time>2026-08-28T10:28:43Z</time>
					</trkpt>
					<trkpt lat="45.659110" lon="4.617990">
						<ele>559</ele>
						<time>2026-08-28T10:28:46Z</time>
					</trkpt>
					<trkpt lat="45.659170" lon="4.617820">
						<ele>560</ele>
						<time>2026-08-28T10:28:48Z</time>
					</trkpt>
					<trkpt lat="45.659240" lon="4.617730">
						<ele>560</ele>
						<time>2026-08-28T10:28:50Z</time>
					</trkpt>
					<trkpt lat="45.659350" lon="4.617650">
						<ele>561</ele>
						<time>2026-08-28T10:28:52Z</time>
					</trkpt>
					<trkpt lat="45.659810" lon="4.617360">
						<ele>566</ele>
						<time>2026-08-28T10:29:01Z</time>
					</trkpt>
					<trkpt lat="45.659890" lon="4.617290">
						<ele>568</ele>
						<time>2026-08-28T10:29:02Z</time>
					</trkpt>
					<trkpt lat="45.659960" lon="4.617200">
						<ele>568</ele>
						<time>2026-08-28T10:29:04Z</time>
					</trkpt>
					<trkpt lat="45.660020" lon="4.617080">
						<ele>569</ele>
						<time>2026-08-28T10:29:06Z</time>
					</trkpt>
					<trkpt lat="45.660100" lon="4.616880">
						<ele>570</ele>
						<time>2026-08-28T10:29:09Z</time>
					</trkpt>
					<trkpt lat="45.660190" lon="4.616190">
						<ele>575</ele>
						<time>2026-08-28T10:29:17Z</time>
					</trkpt>
					<trkpt lat="45.660190" lon="4.615880">
						<ele>576</ele>
						<time>2026-08-28T10:29:21Z</time>
					</trkpt>
					<trkpt lat="45.660160" lon="4.615550">
						<ele>579</ele>
						<time>2026-08-28T10:29:25Z</time>
					</trkpt>
					<trkpt lat="45.660100" lon="4.615280">
						<ele>582</ele>
						<time>2026-08-28T10:29:29Z</time>
					</trkpt>
					<trkpt lat="45.660050" lon="4.615160">
						<ele>583</ele>
						<time>2026-08-28T10:29:31Z</time>
					</trkpt>
					<trkpt lat="45.659990" lon="4.615090">
						<ele>583</ele>
						<time>2026-08-28T10:29:32Z</time>
					</trkpt>
					<trkpt lat="45.659930" lon="4.615060">
						<ele>583</ele>
						<time>2026-08-28T10:29:33Z</time>
					</trkpt>
					<trkpt lat="45.659860" lon="4.615050">
						<ele>583</ele>
						<time>2026-08-28T10:29:34Z</time>
					</trkpt>
					<trkpt lat="45.659760" lon="4.615050">
						<ele>582</ele>
						<time>2026-08-28T10:29:36Z</time>
					</trkpt>
					<trkpt lat="45.659340" lon="4.615120">
						<ele>579</ele>
						<time>2026-08-28T10:29:44Z</time>
					</trkpt>
					<trkpt lat="45.659290" lon="4.615110">
						<ele>579</ele>
						<time>2026-08-28T10:29:45Z</time>
					</trkpt>
					<trkpt lat="45.659190" lon="4.615060">
						<ele>580</ele>
						<time>2026-08-28T10:29:47Z</time>
					</trkpt>
					<trkpt lat="45.659120" lon="4.614970">
						<ele>581</ele>
						<time>2026-08-28T10:29:48Z</time>
					</trkpt>
					<trkpt lat="45.658960" lon="4.614680">
						<ele>582</ele>
						<time>2026-08-28T10:29:53Z</time>
					</trkpt>
					<trkpt lat="45.658820" lon="4.614480">
						<ele>584</ele>
						<time>2026-08-28T10:29:56Z</time>
					</trkpt>
					<trkpt lat="45.658620" lon="4.614240">
						<ele>585</ele>
						<time>2026-08-28T10:30:01Z</time>
					</trkpt>
					<trkpt lat="45.657940" lon="4.613460">
						<ele>589</ele>
						<time>2026-08-28T10:30:17Z</time>
					</trkpt>
					<trkpt lat="45.657720" lon="4.613170">
						<ele>589</ele>
						<time>2026-08-28T10:30:22Z</time>
					</trkpt>
					<trkpt lat="45.657540" lon="4.612830">
						<ele>590</ele>
						<time>2026-08-28T10:30:27Z</time>
					</trkpt>
					<trkpt lat="45.657460" lon="4.612610">
						<ele>592</ele>
						<time>2026-08-28T10:30:30Z</time>
					</trkpt>
					<trkpt lat="45.657440" lon="4.612430">
						<ele>593</ele>
						<time>2026-08-28T10:30:32Z</time>
					</trkpt>
					<trkpt lat="45.657420" lon="4.612250">
						<ele>594</ele>
						<time>2026-08-28T10:30:35Z</time>
					</trkpt>
					<trkpt lat="45.657440" lon="4.612010">
						<ele>596</ele>
						<time>2026-08-28T10:30:38Z</time>
					</trkpt>
					<trkpt lat="45.657500" lon="4.611680">
						<ele>599</ele>
						<time>2026-08-28T10:30:42Z</time>
					</trkpt>
					<trkpt lat="45.657510" lon="4.611540">
						<ele>600</ele>
						<time>2026-08-28T10:30:44Z</time>
					</trkpt>
					<trkpt lat="45.657500" lon="4.611160">
						<ele>601</ele>
						<time>2026-08-28T10:30:48Z</time>
					</trkpt>
					<trkpt lat="45.657460" lon="4.610770">
						<ele>603</ele>
						<time>2026-08-28T10:30:53Z</time>
					</trkpt>
					<trkpt lat="45.657410" lon="4.610480">
						<ele>606</ele>
						<time>2026-08-28T10:30:57Z</time>
					</trkpt>
					<trkpt lat="45.657340" lon="4.610260">
						<ele>607</ele>
						<time>2026-08-28T10:31:00Z</time>
					</trkpt>
					<trkpt lat="45.657220" lon="4.610070">
						<ele>606</ele>
						<time>2026-08-28T10:31:03Z</time>
					</trkpt>
					<trkpt lat="45.657010" lon="4.609890">
						<ele>604</ele>
						<time>2026-08-28T10:31:08Z</time>
					</trkpt>
					<trkpt lat="45.656520" lon="4.609380">
						<ele>605</ele>
						<time>2026-08-28T10:31:18Z</time>
					</trkpt>
					<trkpt lat="45.656390" lon="4.609120">
						<ele>607</ele>
						<time>2026-08-28T10:31:22Z</time>
					</trkpt>
					<trkpt lat="45.656300" lon="4.608810">
						<ele>608</ele>
						<time>2026-08-28T10:31:27Z</time>
					</trkpt>
					<trkpt lat="45.656250" lon="4.608430">
						<ele>611</ele>
						<time>2026-08-28T10:31:31Z</time>
					</trkpt>
					<trkpt lat="45.656230" lon="4.607950">
						<ele>609</ele>
						<time>2026-08-28T10:31:37Z</time>
					</trkpt>
					<trkpt lat="45.656260" lon="4.607730">
						<ele>609</ele>
						<time>2026-08-28T10:31:40Z</time>
					</trkpt>
					<trkpt lat="45.656320" lon="4.607510">
						<ele>609</ele>
						<time>2026-08-28T10:31:43Z</time>
					</trkpt>
					<trkpt lat="45.656410" lon="4.607320">
						<ele>610</ele>
						<time>2026-08-28T10:31:46Z</time>
					</trkpt>
					<trkpt lat="45.656520" lon="4.607150">
						<ele>612</ele>
						<time>2026-08-28T10:31:49Z</time>
					</trkpt>
					<trkpt lat="45.656680" lon="4.606990">
						<ele>615</ele>
						<time>2026-08-28T10:31:52Z</time>
					</trkpt>
					<trkpt lat="45.656790" lon="4.606790">
						<ele>617</ele>
						<time>2026-08-28T10:31:55Z</time>
					</trkpt>
					<trkpt lat="45.656850" lon="4.606570">
						<ele>618</ele>
						<time>2026-08-28T10:31:58Z</time>
					</trkpt>
					<trkpt lat="45.657060" lon="4.604940">
						<ele>621</ele>
						<time>2026-08-28T10:32:19Z</time>
					</trkpt>
					<trkpt lat="45.657260" lon="4.603900">
						<ele>623</ele>
						<time>2026-08-28T10:32:32Z</time>
					</trkpt>
					<trkpt lat="45.657550" lon="4.603050">
						<ele>625</ele>
						<time>2026-08-28T10:32:44Z</time>
					</trkpt>
					<trkpt lat="45.657820" lon="4.602760">
						<ele>625</ele>
						<time>2026-08-28T10:32:50Z</time>
					</trkpt>
					<trkpt lat="45.657960" lon="4.602650">
						<ele>626</ele>
						<time>2026-08-28T10:32:53Z</time>
					</trkpt>
					<trkpt lat="45.658300" lon="4.602380">
						<ele>630</ele>
						<time>2026-08-28T10:33:00Z</time>
					</trkpt>
					<trkpt lat="45.658360" lon="4.602310">
						<ele>631</ele>
						<time>2026-08-28T10:33:01Z</time>
					</trkpt>
					<trkpt lat="45.658400" lon="4.602200">
						<ele>631</ele>
						<time>2026-08-28T10:33:03Z</time>
					</trkpt>
					<trkpt lat="45.658440" lon="4.602050">
						<ele>632</ele>
						<time>2026-08-28T10:33:05Z</time>
					</trkpt>
					<trkpt lat="45.658440" lon="4.601890">
						<ele>632</ele>
						<time>2026-08-28T10:33:07Z</time>
					</trkpt>
					<trkpt lat="45.658340" lon="4.601310">
						<ele>635</ele>
						<time>2026-08-28T10:33:14Z</time>
					</trkpt>
					<trkpt lat="45.658320" lon="4.600760">
						<ele>639</ele>
						<time>2026-08-28T10:33:21Z</time>
					</trkpt>
					<trkpt lat="45.658290" lon="4.600500">
						<ele>641</ele>
						<time>2026-08-28T10:33:24Z</time>
					</trkpt>
					<trkpt lat="45.658230" lon="4.600240">
						<ele>642</ele>
						<time>2026-08-28T10:33:28Z</time>
					</trkpt>
					<trkpt lat="45.658140" lon="4.600020">
						<ele>643</ele>
						<time>2026-08-28T10:33:31Z</time>
					</trkpt>
					<trkpt lat="45.658040" lon="4.599840">
						<ele>643</ele>
						<time>2026-08-28T10:33:34Z</time>
					</trkpt>
					<trkpt lat="45.657850" lon="4.599550">
						<ele>642</ele>
						<time>2026-08-28T10:33:39Z</time>
					</trkpt>
					<trkpt lat="45.657790" lon="4.599380">
						<ele>643</ele>
						<time>2026-08-28T10:33:41Z</time>
					</trkpt>
					<trkpt lat="45.657670" lon="4.598690">
						<ele>649</ele>
						<time>2026-08-28T10:33:50Z</time>
					</trkpt>
					<trkpt lat="45.657210" lon="4.596980">
						<ele>659</ele>
						<time>2026-08-28T10:34:13Z</time>
					</trkpt>
					<trkpt lat="45.657020" lon="4.596380">
						<ele>661</ele>
						<time>2026-08-28T10:34:21Z</time>
					</trkpt>
					<trkpt lat="45.656990" lon="4.596080">
						<ele>660</ele>
						<time>2026-08-28T10:34:25Z</time>
					</trkpt>
					<trkpt lat="45.656970" lon="4.596030">
						<ele>660</ele>
						<time>2026-08-28T10:34:25Z</time>
					</trkpt>
					<trkpt lat="45.656890" lon="4.595830">
						<ele>660</ele>
						<time>2026-08-28T10:34:28Z</time>
					</trkpt>
					<trkpt lat="45.656640" lon="4.595500">
						<ele>658</ele>
						<time>2026-08-28T10:34:34Z</time>
					</trkpt>
					<trkpt lat="45.655920" lon="4.594960">
						<ele>666</ele>
						<time>2026-08-28T10:34:49Z</time>
					</trkpt>
					<trkpt lat="45.655670" lon="4.594620">
						<ele>670</ele>
						<time>2026-08-28T10:34:55Z</time>
					</trkpt>
					<trkpt lat="45.654960" lon="4.592680">
						<ele>673</ele>
						<time>2026-08-28T10:35:22Z</time>
					</trkpt>
					<trkpt lat="45.654850" lon="4.592480">
						<ele>674</ele>
						<time>2026-08-28T10:35:25Z</time>
					</trkpt>
					<trkpt lat="45.654430" lon="4.591860">
						<ele>683</ele>
						<time>2026-08-28T10:35:36Z</time>
					</trkpt>
					<trkpt lat="45.654370" lon="4.591700">
						<ele>684</ele>
						<time>2026-08-28T10:35:38Z</time>
					</trkpt>
					<trkpt lat="45.654360" lon="4.591600">
						<ele>685</ele>
						<time>2026-08-28T10:35:40Z</time>
					</trkpt>
					<trkpt lat="45.654370" lon="4.591430">
						<ele>686</ele>
						<time>2026-08-28T10:35:42Z</time>
					</trkpt>
					<trkpt lat="45.654470" lon="4.591190">
						<ele>685</ele>
						<time>2026-08-28T10:35:45Z</time>
					</trkpt>
					<trkpt lat="45.654660" lon="4.590950">
						<ele>681</ele>
						<time>2026-08-28T10:35:50Z</time>
					</trkpt>
					<trkpt lat="45.654720" lon="4.590830">
						<ele>681</ele>
						<time>2026-08-28T10:35:52Z</time>
					</trkpt>
					<trkpt lat="45.654790" lon="4.590440">
						<ele>681</ele>
						<time>2026-08-28T10:35:57Z</time>
					</trkpt>
					<trkpt lat="45.654800" lon="4.590040">
						<ele>683</ele>
						<time>2026-08-28T10:36:02Z</time>
					</trkpt>
					<trkpt lat="45.654720" lon="4.589610">
						<ele>685</ele>
						<time>2026-08-28T10:36:07Z</time>
					</trkpt>
					<trkpt lat="45.654290" lon="4.588590">
						<ele>694</ele>
						<time>2026-08-28T10:36:22Z</time>
					</trkpt>
					<trkpt lat="45.653980" lon="4.588010">
						<ele>696</ele>
						<time>2026-08-28T10:36:31Z</time>
					</trkpt>
					<trkpt lat="45.653660" lon="4.587660">
						<ele>700</ele>
						<time>2026-08-28T10:36:38Z</time>
					</trkpt>
					<trkpt lat="45.653230" lon="4.587500">
						<ele>709</ele>
						<time>2026-08-28T10:36:46Z</time>
					</trkpt>
					<trkpt lat="45.653120" lon="4.587370">
						<ele>712</ele>
						<time>2026-08-28T10:36:49Z</time>
					</trkpt>
					<trkpt lat="45.653060" lon="4.587230">
						<ele>714</ele>
						<time>2026-08-28T10:36:51Z</time>
					</trkpt>
					<trkpt lat="45.653040" lon="4.587040">
						<ele>716</ele>
						<time>2026-08-28T10:36:53Z</time>
					</trkpt>
					<trkpt lat="45.653060" lon="4.586810">
						<ele>716</ele>
						<time>2026-08-28T10:36:56Z</time>
					</trkpt>
					<trkpt lat="45.653120" lon="4.586620">
						<ele>717</ele>
						<time>2026-08-28T10:36:59Z</time>
					</trkpt>
					<trkpt lat="45.653180" lon="4.586460">
						<ele>720</ele>
						<time>2026-08-28T10:37:01Z</time>
					</trkpt>
					<trkpt lat="45.653240" lon="4.586360">
						<ele>721</ele>
						<time>2026-08-28T10:37:02Z</time>
					</trkpt>
					<trkpt lat="45.653330" lon="4.586260">
						<ele>722</ele>
						<time>2026-08-28T10:37:04Z</time>
					</trkpt>
					<trkpt lat="45.653590" lon="4.586100">
						<ele>719</ele>
						<time>2026-08-28T10:37:09Z</time>
					</trkpt>
					<trkpt lat="45.654010" lon="4.585830">
						<ele>714</ele>
						<time>2026-08-28T10:37:18Z</time>
					</trkpt>
					<trkpt lat="45.654140" lon="4.585680">
						<ele>714</ele>
						<time>2026-08-28T10:37:21Z</time>
					</trkpt>
					<trkpt lat="45.654280" lon="4.585480">
						<ele>713</ele>
						<time>2026-08-28T10:37:24Z</time>
					</trkpt>
					<trkpt lat="45.654380" lon="4.585300">
						<ele>713</ele>
						<time>2026-08-28T10:37:27Z</time>
					</trkpt>
					<trkpt lat="45.654480" lon="4.585070">
						<ele>714</ele>
						<time>2026-08-28T10:37:30Z</time>
					</trkpt>
					<trkpt lat="45.654590" lon="4.584720">
						<ele>712</ele>
						<time>2026-08-28T10:37:35Z</time>
					</trkpt>
					<trkpt lat="45.654640" lon="4.584460">
						<ele>711</ele>
						<time>2026-08-28T10:37:39Z</time>
					</trkpt>
					<trkpt lat="45.654650" lon="4.584310">
						<ele>711</ele>
						<time>2026-08-28T10:37:40Z</time>
					</trkpt>
					<trkpt lat="45.654660" lon="4.584140">
						<ele>711</ele>
						<time>2026-08-28T10:37:43Z</time>
					</trkpt>
					<trkpt lat="45.654640" lon="4.583780">
						<ele>709</ele>
						<time>2026-08-28T10:37:47Z</time>
					</trkpt>
					<trkpt lat="45.654580" lon="4.583470">
						<ele>710</ele>
						<time>2026-08-28T10:37:51Z</time>
					</trkpt>
					<trkpt lat="45.654540" lon="4.583240">
						<ele>711</ele>
						<time>2026-08-28T10:37:54Z</time>
					</trkpt>
					<trkpt lat="45.654430" lon="4.582800">
						<ele>713</ele>
						<time>2026-08-28T10:38:00Z</time>
					</trkpt>
					<trkpt lat="45.654420" lon="4.582690">
						<ele>713</ele>
						<time>2026-08-28T10:38:01Z</time>
					</trkpt>
					<trkpt lat="45.654410" lon="4.582480">
						<ele>712</ele>
						<time>2026-08-28T10:38:04Z</time>
					</trkpt>
					<trkpt lat="45.654410" lon="4.582270">
						<ele>711</ele>
						<time>2026-08-28T10:38:06Z</time>
					</trkpt>
					<trkpt lat="45.654470" lon="4.581720">
						<ele>705</ele>
						<time>2026-08-28T10:38:13Z</time>
					</trkpt>
					<trkpt lat="45.654470" lon="4.581580">
						<ele>705</ele>
						<time>2026-08-28T10:38:15Z</time>
					</trkpt>
					<trkpt lat="45.654460" lon="4.581400">
						<ele>705</ele>
						<time>2026-08-28T10:38:17Z</time>
					</trkpt>
					<trkpt lat="45.654440" lon="4.581310">
						<ele>706</ele>
						<time>2026-08-28T10:38:18Z</time>
					</trkpt>
					<trkpt lat="45.654390" lon="4.581180">
						<ele>707</ele>
						<time>2026-08-28T10:38:20Z</time>
					</trkpt>
					<trkpt lat="45.654120" lon="4.580840">
						<ele>715</ele>
						<time>2026-08-28T10:38:27Z</time>
					</trkpt>
					<trkpt lat="45.654080" lon="4.580690">
						<ele>718</ele>
						<time>2026-08-28T10:38:29Z</time>
					</trkpt>
					<trkpt lat="45.654080" lon="4.580560">
						<ele>720</ele>
						<time>2026-08-28T10:38:30Z</time>
					</trkpt>
					<trkpt lat="45.654110" lon="4.580460">
						<ele>720</ele>
						<time>2026-08-28T10:38:32Z</time>
					</trkpt>
					<trkpt lat="45.654170" lon="4.580320">
						<ele>721</ele>
						<time>2026-08-28T10:38:34Z</time>
					</trkpt>
					<trkpt lat="45.654260" lon="4.580200">
						<ele>721</ele>
						<time>2026-08-28T10:38:36Z</time>
					</trkpt>
					<trkpt lat="45.654370" lon="4.580130">
						<ele>719</ele>
						<time>2026-08-28T10:38:38Z</time>
					</trkpt>
					<trkpt lat="45.654540" lon="4.580080">
						<ele>716</ele>
						<time>2026-08-28T10:38:41Z</time>
					</trkpt>
					<trkpt lat="45.654840" lon="4.580040">
						<ele>710</ele>
						<time>2026-08-28T10:38:46Z</time>
					</trkpt>
					<trkpt lat="45.654890" lon="4.580010">
						<ele>709</ele>
						<time>2026-08-28T10:38:47Z</time>
					</trkpt>
					<trkpt lat="45.654960" lon="4.579960">
						<ele>708</ele>
						<time>2026-08-28T10:38:49Z</time>
					</trkpt>
					<trkpt lat="45.654990" lon="4.579900">
						<ele>708</ele>
						<time>2026-08-28T10:38:50Z</time>
					</trkpt>
					<trkpt lat="45.655050" lon="4.579750">
						<ele>707</ele>
						<time>2026-08-28T10:38:52Z</time>
					</trkpt>
					<trkpt lat="45.655060" lon="4.579550">
						<ele>707</ele>
						<time>2026-08-28T10:38:54Z</time>
					</trkpt>
					<trkpt lat="45.654790" lon="4.578090">
						<ele>717</ele>
						<time>2026-08-28T10:39:13Z</time>
					</trkpt>
					<trkpt lat="45.654560" lon="4.576530">
						<ele>729</ele>
						<time>2026-08-28T10:39:33Z</time>
					</trkpt>
					<trkpt lat="45.654540" lon="4.576160">
						<ele>731</ele>
						<time>2026-08-28T10:39:38Z</time>
					</trkpt>
					<trkpt lat="45.654570" lon="4.576060">
						<ele>731</ele>
						<time>2026-08-28T10:39:39Z</time>
					</trkpt>
					<trkpt lat="45.654630" lon="4.575960">
						<ele>730</ele>
						<time>2026-08-28T10:39:41Z</time>
					</trkpt>
					<trkpt lat="45.654880" lon="4.575740">
						<ele>726</ele>
						<time>2026-08-28T10:39:46Z</time>
					</trkpt>
					<trkpt lat="45.654980" lon="4.575580">
						<ele>726</ele>
						<time>2026-08-28T10:39:49Z</time>
					</trkpt>
					<trkpt lat="45.655100" lon="4.575100">
						<ele>727</ele>
						<time>2026-08-28T10:39:55Z</time>
					</trkpt>
					<trkpt lat="45.655200" lon="4.574820">
						<ele>725</ele>
						<time>2026-08-28T10:39:59Z</time>
					</trkpt>
					<trkpt lat="45.655190" lon="4.574470">
						<ele>727</ele>
						<time>2026-08-28T10:40:03Z</time>
					</trkpt>
					<trkpt lat="45.655150" lon="4.574300">
						<ele>728</ele>
						<time>2026-08-28T10:40:05Z</time>
					</trkpt>
					<trkpt lat="45.655080" lon="4.574150">
						<ele>730</ele>
						<time>2026-08-28T10:40:08Z</time>
					</trkpt>
					<trkpt lat="45.654600" lon="4.573380">
						<ele>734</ele>
						<time>2026-08-28T10:40:20Z</time>
					</trkpt>
					<trkpt lat="45.654540" lon="4.573190">
						<ele>735</ele>
						<time>2026-08-28T10:40:23Z</time>
					</trkpt>
					<trkpt lat="45.654550" lon="4.573000">
						<ele>736</ele>
						<time>2026-08-28T10:40:25Z</time>
					</trkpt>
					<trkpt lat="45.654580" lon="4.572870">
						<ele>735</ele>
						<time>2026-08-28T10:40:27Z</time>
					</trkpt>
					<trkpt lat="45.654910" lon="4.572230">
						<ele>733</ele>
						<time>2026-08-28T10:40:37Z</time>
					</trkpt>
					<trkpt lat="45.654960" lon="4.572100">
						<ele>733</ele>
						<time>2026-08-28T10:40:39Z</time>
					</trkpt>
					<trkpt lat="45.654990" lon="4.571840">
						<ele>733</ele>
						<time>2026-08-28T10:40:42Z</time>
					</trkpt>
					<trkpt lat="45.654980" lon="4.571620">
						<ele>734</ele>
						<time>2026-08-28T10:40:45Z</time>
					</trkpt>
					<trkpt lat="45.654910" lon="4.571250">
						<ele>734</ele>
						<time>2026-08-28T10:40:50Z</time>
					</trkpt>
					<trkpt lat="45.654700" lon="4.570600">
						<ele>736</ele>
						<time>2026-08-28T10:40:59Z</time>
					</trkpt>
					<trkpt lat="45.654520" lon="4.570250">
						<ele>738</ele>
						<time>2026-08-28T10:41:04Z</time>
					</trkpt>
					<trkpt lat="45.654450" lon="4.570130">
						<ele>739</ele>
						<time>2026-08-28T10:41:06Z</time>
					</trkpt>
					<trkpt lat="45.654400" lon="4.569950">
						<ele>740</ele>
						<time>2026-08-28T10:41:08Z</time>
					</trkpt>
					<trkpt lat="45.654400" lon="4.569800">
						<ele>742</ele>
						<time>2026-08-28T10:41:10Z</time>
					</trkpt>
					<trkpt lat="45.654450" lon="4.569660">
						<ele>744</ele>
						<time>2026-08-28T10:41:12Z</time>
					</trkpt>
					<trkpt lat="45.654550" lon="4.569570">
						<ele>744</ele>
						<time>2026-08-28T10:41:14Z</time>
					</trkpt>
					<trkpt lat="45.654680" lon="4.569530">
						<ele>744</ele>
						<time>2026-08-28T10:41:17Z</time>
					</trkpt>
					<trkpt lat="45.654900" lon="4.569510">
						<ele>742</ele>
						<time>2026-08-28T10:41:20Z</time>
					</trkpt>
					<trkpt lat="45.655240" lon="4.569460">
						<ele>741</ele>
						<time>2026-08-28T10:41:27Z</time>
					</trkpt>
					<trkpt lat="45.655750" lon="4.569300">
						<ele>741</ele>
						<time>2026-08-28T10:41:36Z</time>
					</trkpt>
					<trkpt lat="45.655870" lon="4.569250">
						<ele>741</ele>
						<time>2026-08-28T10:41:38Z</time>
					</trkpt>
					<trkpt lat="45.656010" lon="4.569160">
						<ele>741</ele>
						<time>2026-08-28T10:41:41Z</time>
					</trkpt>
					<trkpt lat="45.656070" lon="4.569110">
						<ele>740</ele>
						<time>2026-08-28T10:41:42Z</time>
					</trkpt>
					<trkpt lat="45.656100" lon="4.569080">
						<ele>740</ele>
						<time>2026-08-28T10:41:43Z</time>
					</trkpt>
					<trkpt lat="45.656180" lon="4.568940">
						<ele>739</ele>
						<time>2026-08-28T10:41:45Z</time>
					</trkpt>
					<trkpt lat="45.656220" lon="4.568790">
						<ele>738</ele>
						<time>2026-08-28T10:41:47Z</time>
					</trkpt>
					<trkpt lat="45.656220" lon="4.568660">
						<ele>737</ele>
						<time>2026-08-28T10:41:49Z</time>
					</trkpt>
					<trkpt lat="45.656040" lon="4.567940">
						<ele>740</ele>
						<time>2026-08-28T10:41:58Z</time>
					</trkpt>
					<trkpt lat="45.656030" lon="4.567770">
						<ele>740</ele>
						<time>2026-08-28T10:42:00Z</time>
					</trkpt>
					<trkpt lat="45.656050" lon="4.567650">
						<ele>740</ele>
						<time>2026-08-28T10:42:02Z</time>
					</trkpt>
					<trkpt lat="45.656060" lon="4.567620">
						<ele>740</ele>
						<time>2026-08-28T10:42:02Z</time>
					</trkpt>
					<trkpt lat="45.656460" lon="4.566520">
						<ele>739</ele>
						<time>2026-08-28T10:42:18Z</time>
					</trkpt>
					<trkpt lat="45.656590" lon="4.566330">
						<ele>737</ele>
						<time>2026-08-28T10:42:21Z</time>
					</trkpt>
					<trkpt lat="45.656690" lon="4.566260">
						<ele>736</ele>
						<time>2026-08-28T10:42:23Z</time>
					</trkpt>
					<trkpt lat="45.656780" lon="4.566220">
						<ele>735</ele>
						<time>2026-08-28T10:42:25Z</time>
					</trkpt>
					<trkpt lat="45.656860" lon="4.566210">
						<ele>735</ele>
						<time>2026-08-28T10:42:26Z</time>
					</trkpt>
					<trkpt lat="45.656920" lon="4.566230">
						<ele>734</ele>
						<time>2026-08-28T10:42:27Z</time>
					</trkpt>
					<trkpt lat="45.657280" lon="4.566450">
						<ele>729</ele>
						<time>2026-08-28T10:42:34Z</time>
					</trkpt>
					<trkpt lat="45.657400" lon="4.566470">
						<ele>728</ele>
						<time>2026-08-28T10:42:36Z</time>
					</trkpt>
					<trkpt lat="45.657500" lon="4.566470">
						<ele>727</ele>
						<time>2026-08-28T10:42:38Z</time>
					</trkpt>
					<trkpt lat="45.657540" lon="4.566460">
						<ele>727</ele>
						<time>2026-08-28T10:42:39Z</time>
					</trkpt>
					<trkpt lat="45.657640" lon="4.566410">
						<ele>727</ele>
						<time>2026-08-28T10:42:41Z</time>
					</trkpt>
					<trkpt lat="45.657720" lon="4.566350">
						<ele>727</ele>
						<time>2026-08-28T10:42:42Z</time>
					</trkpt>
					<trkpt lat="45.657850" lon="4.566210">
						<ele>727</ele>
						<time>2026-08-28T10:42:45Z</time>
					</trkpt>
					<trkpt lat="45.657950" lon="4.566100">
						<ele>728</ele>
						<time>2026-08-28T10:42:47Z</time>
					</trkpt>
					<trkpt lat="45.658010" lon="4.566030">
						<ele>728</ele>
						<time>2026-08-28T10:42:49Z</time>
					</trkpt>
					<trkpt lat="45.658170" lon="4.565790">
						<ele>728</ele>
						<time>2026-08-28T10:42:53Z</time>
					</trkpt>
					<trkpt lat="45.658620" lon="4.564850">
						<ele>727</ele>
						<time>2026-08-28T10:43:07Z</time>
					</trkpt>
					<trkpt lat="45.658680" lon="4.564690">
						<ele>727</ele>
						<time>2026-08-28T10:43:09Z</time>
					</trkpt>
					<trkpt lat="45.658690" lon="4.564640">
						<ele>727</ele>
						<time>2026-08-28T10:43:10Z</time>
					</trkpt>
					<trkpt lat="45.658850" lon="4.564150">
						<ele>727</ele>
						<time>2026-08-28T10:43:17Z</time>
					</trkpt>
					<trkpt lat="45.658890" lon="4.564170">
						<ele>727</ele>
						<time>2026-08-28T10:43:17Z</time>
					</trkpt>
					<trkpt lat="45.658920" lon="4.564160">
						<ele>727</ele>
						<time>2026-08-28T10:43:18Z</time>
					</trkpt>
					<trkpt lat="45.658980" lon="4.564210">
						<ele>727</ele>
						<time>2026-08-28T10:43:19Z</time>
					</trkpt>
					<trkpt lat="45.659060" lon="4.564310">
						<ele>728</ele>
						<time>2026-08-28T10:43:21Z</time>
					</trkpt>
					<trkpt lat="45.659100" lon="4.564390">
						<ele>728</ele>
						<time>2026-08-28T10:43:22Z</time>
					</trkpt>
					<trkpt lat="45.659180" lon="4.564360">
						<ele>728</ele>
						<time>2026-08-28T10:43:24Z</time>
					</trkpt>
					<trkpt lat="45.659480" lon="4.564200">
						<ele>730</ele>
						<time>2026-08-28T10:43:29Z</time>
					</trkpt>
					<trkpt lat="45.659750" lon="4.564000">
						<ele>731</ele>
						<time>2026-08-28T10:43:35Z</time>
					</trkpt>
					<trkpt lat="45.660060" lon="4.563870">
						<ele>733</ele>
						<time>2026-08-28T10:43:41Z</time>
					</trkpt>
					<trkpt lat="45.660250" lon="4.563770">
						<ele>733</ele>
						<time>2026-08-28T10:43:44Z</time>
					</trkpt>
					<trkpt lat="45.660470" lon="4.563660">
						<ele>733</ele>
						<time>2026-08-28T10:43:48Z</time>
					</trkpt>
					<trkpt lat="45.660750" lon="4.563490">
						<ele>734</ele>
						<time>2026-08-28T10:43:54Z</time>
					</trkpt>
					<trkpt lat="45.660910" lon="4.563420">
						<ele>734</ele>
						<time>2026-08-28T10:43:57Z</time>
					</trkpt>
					<trkpt lat="45.661350" lon="4.563250">
						<ele>733</ele>
						<time>2026-08-28T10:44:05Z</time>
					</trkpt>
					<trkpt lat="45.661670" lon="4.563140">
						<ele>733</ele>
						<time>2026-08-28T10:44:11Z</time>
					</trkpt>
					<trkpt lat="45.661730" lon="4.563130">
						<ele>733</ele>
						<time>2026-08-28T10:44:12Z</time>
					</trkpt>
					<trkpt lat="45.662590" lon="4.563000">
						<ele>736</ele>
						<time>2026-08-28T10:44:27Z</time>
					</trkpt>
					<trkpt lat="45.662950" lon="4.562900">
						<ele>736</ele>
						<time>2026-08-28T10:44:34Z</time>
					</trkpt>
					<trkpt lat="45.662970" lon="4.562970">
						<ele>736</ele>
						<time>2026-08-28T10:44:35Z</time>
					</trkpt>
					<trkpt lat="45.663000" lon="4.562990">
						<ele>736</ele>
						<time>2026-08-28T10:44:35Z</time>
					</trkpt>
					<trkpt lat="45.662960" lon="4.563130">
						<ele>736</ele>
						<time>2026-08-28T10:44:37Z</time>
					</trkpt>
					<trkpt lat="45.662980" lon="4.563350">
						<ele>736</ele>
						<time>2026-08-28T10:44:40Z</time>
					</trkpt>
					<trkpt lat="45.663210" lon="4.563970">
						<ele>735</ele>
						<time>2026-08-28T10:44:49Z</time>
					</trkpt>
					<trkpt lat="45.663270" lon="4.564150">
						<ele>735</ele>
						<time>2026-08-28T10:44:51Z</time>
					</trkpt>
					<trkpt lat="45.663530" lon="4.565160">
						<ele>733</ele>
						<time>2026-08-28T10:45:04Z</time>
					</trkpt>
					<trkpt lat="45.663790" lon="4.565690">
						<ele>732</ele>
						<time>2026-08-28T10:45:12Z</time>
					</trkpt>
					<trkpt lat="45.663940" lon="4.566170">
						<ele>731</ele>
						<time>2026-08-28T10:45:19Z</time>
					</trkpt>
					<trkpt lat="45.664080" lon="4.566630">
						<ele>732</ele>
						<time>2026-08-28T10:45:25Z</time>
					</trkpt>
					<trkpt lat="45.664080" lon="4.567420">
						<ele>732</ele>
						<time>2026-08-28T10:45:35Z</time>
					</trkpt>
					<trkpt lat="45.664210" lon="4.568520">
						<ele>736</ele>
						<time>2026-08-28T10:45:49Z</time>
					</trkpt>
					<trkpt lat="45.664310" lon="4.569140">
						<ele>737</ele>
						<time>2026-08-28T10:45:57Z</time>
					</trkpt>
					<trkpt lat="45.664350" lon="4.569260">
						<ele>737</ele>
						<time>2026-08-28T10:45:59Z</time>
					</trkpt>
					<trkpt lat="45.664470" lon="4.569560">
						<ele>736</ele>
						<time>2026-08-28T10:46:03Z</time>
					</trkpt>
					<trkpt lat="45.664540" lon="4.569670">
						<ele>736</ele>
						<time>2026-08-28T10:46:05Z</time>
					</trkpt>
					<trkpt lat="45.664590" lon="4.569740">
						<ele>736</ele>
						<time>2026-08-28T10:46:06Z</time>
					</trkpt>
					<trkpt lat="45.664780" lon="4.569930">
						<ele>736</ele>
						<time>2026-08-28T10:46:10Z</time>
					</trkpt>
					<trkpt lat="45.664820" lon="4.569990">
						<ele>736</ele>
						<time>2026-08-28T10:46:11Z</time>
					</trkpt>
					<trkpt lat="45.664840" lon="4.570030">
						<ele>736</ele>
						<time>2026-08-28T10:46:12Z</time>
					</trkpt>
					<trkpt lat="45.664940" lon="4.570400">
						<ele>735</ele>
						<time>2026-08-28T10:46:17Z</time>
					</trkpt>
					<trkpt lat="45.664970" lon="4.570520">
						<ele>735</ele>
						<time>2026-08-28T10:46:18Z</time>
					</trkpt>
					<trkpt lat="45.664990" lon="4.570780">
						<ele>734</ele>
						<time>2026-08-28T10:46:21Z</time>
					</trkpt>
					<trkpt lat="45.665010" lon="4.571410">
						<ele>732</ele>
						<time>2026-08-28T10:46:29Z</time>
					</trkpt>
					<trkpt lat="45.665070" lon="4.571860">
						<ele>731</ele>
						<time>2026-08-28T10:46:35Z</time>
					</trkpt>
					<trkpt lat="45.665160" lon="4.572250">
						<ele>729</ele>
						<time>2026-08-28T10:46:40Z</time>
					</trkpt>
					<trkpt lat="45.665320" lon="4.572540">
						<ele>727</ele>
						<time>2026-08-28T10:46:45Z</time>
					</trkpt>
					<trkpt lat="45.665700" lon="4.573030">
						<ele>719</ele>
						<time>2026-08-28T10:46:54Z</time>
					</trkpt>
					<trkpt lat="45.665830" lon="4.573120">
						<ele>717</ele>
						<time>2026-08-28T10:46:56Z</time>
					</trkpt>
					<trkpt lat="45.665970" lon="4.573190">
						<ele>716</ele>
						<time>2026-08-28T10:46:59Z</time>
					</trkpt>
					<trkpt lat="45.666090" lon="4.573100">
						<ele>717</ele>
						<time>2026-08-28T10:47:01Z</time>
					</trkpt>
					<trkpt lat="45.666170" lon="4.573090">
						<ele>717</ele>
						<time>2026-08-28T10:47:03Z</time>
					</trkpt>
					<trkpt lat="45.666370" lon="4.573010">
						<ele>718</ele>
						<time>2026-08-28T10:47:07Z</time>
					</trkpt>
					<trkpt lat="45.666920" lon="4.573040">
						<ele>718</ele>
						<time>2026-08-28T10:47:16Z</time>
					</trkpt>
					<trkpt lat="45.667230" lon="4.573060">
						<ele>718</ele>
						<time>2026-08-28T10:47:22Z</time>
					</trkpt>
					<trkpt lat="45.667720" lon="4.573130">
						<ele>718</ele>
						<time>2026-08-28T10:47:31Z</time>
					</trkpt>
					<trkpt lat="45.667980" lon="4.572950">
						<ele>723</ele>
						<time>2026-08-28T10:47:36Z</time>
					</trkpt>
					<trkpt lat="45.668220" lon="4.572930">
						<ele>724</ele>
						<time>2026-08-28T10:47:40Z</time>
					</trkpt>
					<trkpt lat="45.668410" lon="4.572820">
						<ele>726</ele>
						<time>2026-08-28T10:47:44Z</time>
					</trkpt>
					<trkpt lat="45.668540" lon="4.572860">
						<ele>724</ele>
						<time>2026-08-28T10:47:46Z</time>
					</trkpt>
					<trkpt lat="45.668760" lon="4.573020">
						<ele>720</ele>
						<time>2026-08-28T10:47:50Z</time>
					</trkpt>
					<trkpt lat="45.668870" lon="4.573080">
						<ele>718</ele>
						<time>2026-08-28T10:47:53Z</time>
					</trkpt>
					<trkpt lat="45.669000" lon="4.573100">
						<ele>717</ele>
						<time>2026-08-28T10:47:55Z</time>
					</trkpt>
					<trkpt lat="45.669040" lon="4.573060">
						<ele>717</ele>
						<time>2026-08-28T10:47:56Z</time>
					</trkpt>
					<trkpt lat="45.669100" lon="4.572970">
						<ele>718</ele>
						<time>2026-08-28T10:47:57Z</time>
					</trkpt>
					<trkpt lat="45.669130" lon="4.572810">
						<ele>720</ele>
						<time>2026-08-28T10:47:59Z</time>
					</trkpt>
					<trkpt lat="45.669160" lon="4.572570">
						<ele>723</ele>
						<time>2026-08-28T10:48:02Z</time>
					</trkpt>
					<trkpt lat="45.669150" lon="4.572520">
						<ele>724</ele>
						<time>2026-08-28T10:48:03Z</time>
					</trkpt>
					<trkpt lat="45.669130" lon="4.572470">
						<ele>725</ele>
						<time>2026-08-28T10:48:04Z</time>
					</trkpt>
					<trkpt lat="45.669200" lon="4.571850">
						<ele>725</ele>
						<time>2026-08-28T10:48:12Z</time>
					</trkpt>
					<trkpt lat="45.669070" lon="4.571740">
						<ele>728</ele>
						<time>2026-08-28T10:48:14Z</time>
					</trkpt>
					<trkpt lat="45.669020" lon="4.571670">
						<ele>729</ele>
						<time>2026-08-28T10:48:15Z</time>
					</trkpt>
					<trkpt lat="45.668910" lon="4.571440">
						<ele>732</ele>
						<time>2026-08-28T10:48:19Z</time>
					</trkpt>
					<trkpt lat="45.668870" lon="4.571400">
						<ele>733</ele>
						<time>2026-08-28T10:48:20Z</time>
					</trkpt>
					<trkpt lat="45.668830" lon="4.571390">
						<ele>733</ele>
						<time>2026-08-28T10:48:21Z</time>
					</trkpt>
					<trkpt lat="45.668780" lon="4.571410">
						<ele>734</ele>
						<time>2026-08-28T10:48:21Z</time>
					</trkpt>
					<trkpt lat="45.668670" lon="4.571470">
						<ele>736</ele>
						<time>2026-08-28T10:48:24Z</time>
					</trkpt>
					<trkpt lat="45.668590" lon="4.571490">
						<ele>737</ele>
						<time>2026-08-28T10:48:25Z</time>
					</trkpt>
					<trkpt lat="45.668500" lon="4.571500">
						<ele>738</ele>
						<time>2026-08-28T10:48:27Z</time>
					</trkpt>
					<trkpt lat="45.668420" lon="4.571480">
						<ele>740</ele>
						<time>2026-08-28T10:48:28Z</time>
					</trkpt>
					<trkpt lat="45.668300" lon="4.571390">
						<ele>742</ele>
						<time>2026-08-28T10:48:30Z</time>
					</trkpt>
					<trkpt lat="45.668220" lon="4.571310">
						<ele>743</ele>
						<time>2026-08-28T10:48:32Z</time>
					</trkpt>
					<trkpt lat="45.668120" lon="4.571180">
						<ele>745</ele>
						<time>2026-08-28T10:48:35Z</time>
					</trkpt>
					<trkpt lat="45.667440" lon="4.570210">
						<ele>752</ele>
						<time>2026-08-28T10:48:52Z</time>
					</trkpt>
					<trkpt lat="45.667130" lon="4.569770">
						<ele>752</ele>
						<time>2026-08-28T10:48:59Z</time>
					</trkpt>
					<trkpt lat="45.666900" lon="4.569410">
						<ele>753</ele>
						<time>2026-08-28T10:49:06Z</time>
					</trkpt>
					<trkpt lat="45.666770" lon="4.569200">
						<ele>753</ele>
						<time>2026-08-28T10:49:09Z</time>
					</trkpt>
					<trkpt lat="45.666620" lon="4.568910">
						<ele>753</ele>
						<time>2026-08-28T10:49:13Z</time>
					</trkpt>
					<trkpt lat="45.666230" lon="4.567960">
						<ele>752</ele>
						<time>2026-08-28T10:49:27Z</time>
					</trkpt>
					<trkpt lat="45.666020" lon="4.567240">
						<ele>750</ele>
						<time>2026-08-28T10:49:37Z</time>
					</trkpt>
					<trkpt lat="45.665780" lon="4.566430">
						<ele>749</ele>
						<time>2026-08-28T10:49:48Z</time>
					</trkpt>
					<trkpt lat="45.665480" lon="4.566040">
						<ele>747</ele>
						<time>2026-08-28T10:49:55Z</time>
					</trkpt>
					<trkpt lat="45.664790" lon="4.565160">
						<ele>747</ele>
						<time>2026-08-28T10:50:11Z</time>
					</trkpt>
					<trkpt lat="45.664760" lon="4.565110">
						<ele>747</ele>
						<time>2026-08-28T10:50:12Z</time>
					</trkpt>
					<trkpt lat="45.664600" lon="4.564840">
						<ele>746</ele>
						<time>2026-08-28T10:50:17Z</time>
					</trkpt>
					<trkpt lat="45.664480" lon="4.564620">
						<ele>744</ele>
						<time>2026-08-28T10:50:20Z</time>
					</trkpt>
					<trkpt lat="45.664260" lon="4.564220">
						<ele>743</ele>
						<time>2026-08-28T10:50:27Z</time>
					</trkpt>
					<trkpt lat="45.663960" lon="4.563760">
						<ele>739</ele>
						<time>2026-08-28T10:50:34Z</time>
					</trkpt>
					<trkpt lat="45.663470" lon="4.563230">
						<ele>737</ele>
						<time>2026-08-28T10:50:45Z</time>
					</trkpt>
					<trkpt lat="45.663200" lon="4.562940">
						<ele>736</ele>
						<time>2026-08-28T10:50:51Z</time>
					</trkpt>
					<trkpt lat="45.663100" lon="4.562910">
						<ele>736</ele>
						<time>2026-08-28T10:50:53Z</time>
					</trkpt>
					<trkpt lat="45.663100" lon="4.562840">
						<ele>736</ele>
						<time>2026-08-28T10:50:54Z</time>
					</trkpt>
					<trkpt lat="45.663060" lon="4.562780">
						<ele>736</ele>
						<time>2026-08-28T10:50:55Z</time>
					</trkpt>
					<trkpt lat="45.663040" lon="4.562770">
						<ele>736</ele>
						<time>2026-08-28T10:50:55Z</time>
					</trkpt>
					<trkpt lat="45.662990" lon="4.562790">
						<ele>736</ele>
						<time>2026-08-28T10:50:56Z</time>
					</trkpt>
					<trkpt lat="45.662960" lon="4.562830">
						<ele>736</ele>
						<time>2026-08-28T10:50:57Z</time>
					</trkpt>
					<trkpt lat="45.662950" lon="4.562900">
						<ele>736</ele>
						<time>2026-08-28T10:50:58Z</time>
					</trkpt>
					<trkpt lat="45.662590" lon="4.563000">
						<ele>736</ele>
						<time>2026-08-28T10:51:04Z</time>
					</trkpt>
					<trkpt lat="45.661730" lon="4.563130">
						<ele>733</ele>
						<time>2026-08-28T10:51:20Z</time>
					</trkpt>
					<trkpt lat="45.661670" lon="4.563140">
						<ele>733</ele>
						<time>2026-08-28T10:51:21Z</time>
					</trkpt>
					<trkpt lat="45.661350" lon="4.563250">
						<ele>733</ele>
						<time>2026-08-28T10:51:27Z</time>
					</trkpt>
					<trkpt lat="45.660910" lon="4.563420">
						<ele>734</ele>
						<time>2026-08-28T10:51:35Z</time>
					</trkpt>
					<trkpt lat="45.660750" lon="4.563490">
						<ele>734</ele>
						<time>2026-08-28T10:51:38Z</time>
					</trkpt>
					<trkpt lat="45.660470" lon="4.563660">
						<ele>733</ele>
						<time>2026-08-28T10:51:43Z</time>
					</trkpt>
					<trkpt lat="45.660250" lon="4.563770">
						<ele>733</ele>
						<time>2026-08-28T10:51:47Z</time>
					</trkpt>
					<trkpt lat="45.660060" lon="4.563870">
						<ele>733</ele>
						<time>2026-08-28T10:51:51Z</time>
					</trkpt>
					<trkpt lat="45.659750" lon="4.564000">
						<ele>731</ele>
						<time>2026-08-28T10:51:57Z</time>
					</trkpt>
					<trkpt lat="45.659540" lon="4.563980">
						<ele>730</ele>
						<time>2026-08-28T10:52:00Z</time>
					</trkpt>
					<trkpt lat="45.658980" lon="4.564010">
						<ele>727</ele>
						<time>2026-08-28T10:52:10Z</time>
					</trkpt>
					<trkpt lat="45.658970" lon="4.563970">
						<ele>727</ele>
						<time>2026-08-28T10:52:11Z</time>
					</trkpt>
					<trkpt lat="45.658950" lon="4.563930">
						<ele>727</ele>
						<time>2026-08-28T10:52:12Z</time>
					</trkpt>
					<trkpt lat="45.658920" lon="4.563910">
						<ele>727</ele>
						<time>2026-08-28T10:52:12Z</time>
					</trkpt>
					<trkpt lat="45.658870" lon="4.563900">
						<ele>727</ele>
						<time>2026-08-28T10:52:13Z</time>
					</trkpt>
					<trkpt lat="45.658840" lon="4.563920">
						<ele>727</ele>
						<time>2026-08-28T10:52:14Z</time>
					</trkpt>
					<trkpt lat="45.658820" lon="4.563940">
						<ele>727</ele>
						<time>2026-08-28T10:52:14Z</time>
					</trkpt>
					<trkpt lat="45.658800" lon="4.563970">
						<ele>727</ele>
						<time>2026-08-28T10:52:15Z</time>
					</trkpt>
					<trkpt lat="45.658790" lon="4.564050">
						<ele>727</ele>
						<time>2026-08-28T10:52:16Z</time>
					</trkpt>
					<trkpt lat="45.658810" lon="4.564110">
						<ele>727</ele>
						<time>2026-08-28T10:52:16Z</time>
					</trkpt>
					</trkseg>
				</trk>
			</gpx>